<?xml version="1.0" encoding="UTF-8" standalone="no" ?>
<gpx xmlns="http://www.topografix.com/GPX/1/1" xmlns:xsi="http://www.w3.org/2001/XMLSchema-instance" xsi:schemaLocation="http://www.topografix.com/GPX/1/1 http://www.topografix.com/GPX/1/1/gpx.xsd" version="1.1" creator="VisuGPX - https://www.visugpx.com">
  <metadata>
    <name>Saint Saturnin - Circuit des Aiguiers</name>
    <desc><![CDATA[Boucle pedestre de moyenne difficulté
]]></desc>
  </metadata>
  <trk>
    <name><![CDATA[ST SAT LES AIGUIERS]]></name>
    <trkseg>
      <trkpt lat="43.94138" lon="5.38248">
        <ele>353.42</ele>
        <time>2014-04-18T08:09:58Z</time>
      </trkpt>
      <trkpt lat="43.94136" lon="5.38248">
        <ele>352.94</ele>
        <time>2014-04-18T08:09:59Z</time>
      </trkpt>
      <trkpt lat="43.94135" lon="5.38249">
        <ele>356.31</ele>
        <time>2014-04-18T08:10:06Z</time>
      </trkpt>
      <trkpt lat="43.94136" lon="5.3825">
        <ele>356.79</ele>
        <time>2014-04-18T08:10:07Z</time>
      </trkpt>
      <trkpt lat="43.94139" lon="5.38247">
        <ele>360.15</ele>
        <time>2014-04-18T08:10:13Z</time>
      </trkpt>
      <trkpt lat="43.94139" lon="5.38247">
        <ele>363.04</ele>
        <time>2014-04-18T08:10:20Z</time>
      </trkpt>
      <trkpt lat="43.94137" lon="5.38247">
        <ele>366.4</ele>
        <time>2014-04-18T08:10:30Z</time>
      </trkpt>
      <trkpt lat="43.94138" lon="5.38246">
        <ele>368.8</ele>
        <time>2014-04-18T08:10:45Z</time>
      </trkpt>
      <trkpt lat="43.9414" lon="5.38248">
        <ele>371.69</ele>
        <time>2014-04-18T08:11:01Z</time>
      </trkpt>
      <trkpt lat="43.94142" lon="5.38247">
        <ele>373.61</ele>
        <time>2014-04-18T08:11:12Z</time>
      </trkpt>
      <trkpt lat="43.94149" lon="5.38243">
        <ele>373.61</ele>
        <time>2014-04-18T08:11:22Z</time>
      </trkpt>
      <trkpt lat="43.94154" lon="5.3824">
        <ele>373.61</ele>
        <time>2014-04-18T08:11:32Z</time>
      </trkpt>
      <trkpt lat="43.94161" lon="5.3824">
        <ele>373.13</ele>
        <time>2014-04-18T08:11:43Z</time>
      </trkpt>
      <trkpt lat="43.94162" lon="5.3824">
        <ele>373.61</ele>
        <time>2014-04-18T08:11:44Z</time>
      </trkpt>
      <trkpt lat="43.9417" lon="5.3824">
        <ele>373.13</ele>
        <time>2014-04-18T08:11:55Z</time>
      </trkpt>
      <trkpt lat="43.94174" lon="5.38248">
        <ele>373.61</ele>
        <time>2014-04-18T08:12:04Z</time>
      </trkpt>
      <trkpt lat="43.94174" lon="5.3825">
        <ele>373.13</ele>
        <time>2014-04-18T08:12:14Z</time>
      </trkpt>
      <trkpt lat="43.94169" lon="5.38233">
        <ele>373.61</ele>
        <time>2014-04-18T08:12:28Z</time>
      </trkpt>
      <trkpt lat="43.94165" lon="5.38215">
        <ele>374.09</ele>
        <time>2014-04-18T08:12:40Z</time>
      </trkpt>
      <trkpt lat="43.94165" lon="5.38214">
        <ele>375.05</ele>
        <time>2014-04-18T08:12:54Z</time>
      </trkpt>
      <trkpt lat="43.94165" lon="5.38213">
        <ele>373.13</ele>
        <time>2014-04-18T08:13:09Z</time>
      </trkpt>
      <trkpt lat="43.94165" lon="5.38213">
        <ele>377.45</ele>
        <time>2014-04-18T08:13:10Z</time>
      </trkpt>
      <trkpt lat="43.94165" lon="5.38213">
        <ele>375.05</ele>
        <time>2014-04-18T08:13:11Z</time>
      </trkpt>
      <trkpt lat="43.94168" lon="5.38211">
        <ele>375.53</ele>
        <time>2014-04-18T08:13:23Z</time>
      </trkpt>
      <trkpt lat="43.94171" lon="5.3821">
        <ele>376.49</ele>
        <time>2014-04-18T08:13:34Z</time>
      </trkpt>
      <trkpt lat="43.94177" lon="5.38209">
        <ele>377.94</ele>
        <time>2014-04-18T08:13:45Z</time>
      </trkpt>
      <trkpt lat="43.94186" lon="5.38209">
        <ele>379.38</ele>
        <time>2014-04-18T08:13:58Z</time>
      </trkpt>
      <trkpt lat="43.94192" lon="5.3821">
        <ele>380.34</ele>
        <time>2014-04-18T08:14:09Z</time>
      </trkpt>
      <trkpt lat="43.94206" lon="5.38205">
        <ele>381.78</ele>
        <time>2014-04-18T08:14:22Z</time>
      </trkpt>
      <trkpt lat="43.94213" lon="5.38202">
        <ele>381.78</ele>
        <time>2014-04-18T08:14:37Z</time>
      </trkpt>
      <trkpt lat="43.94213" lon="5.38202">
        <ele>381.78</ele>
        <time>2014-04-18T08:14:49Z</time>
      </trkpt>
      <trkpt lat="43.94218" lon="5.38202">
        <ele>382.74</ele>
        <time>2014-04-18T08:14:59Z</time>
      </trkpt>
      <trkpt lat="43.94226" lon="5.38202">
        <ele>383.7</ele>
        <time>2014-04-18T08:15:08Z</time>
      </trkpt>
      <trkpt lat="43.94236" lon="5.38202">
        <ele>384.18</ele>
        <time>2014-04-18T08:15:19Z</time>
      </trkpt>
      <trkpt lat="43.94246" lon="5.38205">
        <ele>385.63</ele>
        <time>2014-04-18T08:15:28Z</time>
      </trkpt>
      <trkpt lat="43.94256" lon="5.38206">
        <ele>386.59</ele>
        <time>2014-04-18T08:15:39Z</time>
      </trkpt>
      <trkpt lat="43.94265" lon="5.38211">
        <ele>388.03</ele>
        <time>2014-04-18T08:15:49Z</time>
      </trkpt>
      <trkpt lat="43.94274" lon="5.38217">
        <ele>388.99</ele>
        <time>2014-04-18T08:16:00Z</time>
      </trkpt>
      <trkpt lat="43.94276" lon="5.38219">
        <ele>389.47</ele>
        <time>2014-04-18T08:16:02Z</time>
      </trkpt>
      <trkpt lat="43.94287" lon="5.38228">
        <ele>389.95</ele>
        <time>2014-04-18T08:16:11Z</time>
      </trkpt>
      <trkpt lat="43.94292" lon="5.38238">
        <ele>389.95</ele>
        <time>2014-04-18T08:16:20Z</time>
      </trkpt>
      <trkpt lat="43.943" lon="5.38242">
        <ele>389.95</ele>
        <time>2014-04-18T08:16:28Z</time>
      </trkpt>
      <trkpt lat="43.9431" lon="5.3825">
        <ele>390.43</ele>
        <time>2014-04-18T08:16:38Z</time>
      </trkpt>
      <trkpt lat="43.94319" lon="5.38255">
        <ele>391.39</ele>
        <time>2014-04-18T08:16:49Z</time>
      </trkpt>
      <trkpt lat="43.94332" lon="5.38264">
        <ele>392.36</ele>
        <time>2014-04-18T08:17:02Z</time>
      </trkpt>
      <trkpt lat="43.94338" lon="5.38275">
        <ele>393.8</ele>
        <time>2014-04-18T08:17:13Z</time>
      </trkpt>
      <trkpt lat="43.9434" lon="5.38279">
        <ele>393.8</ele>
        <time>2014-04-18T08:17:18Z</time>
      </trkpt>
      <trkpt lat="43.94349" lon="5.38284">
        <ele>395.24</ele>
        <time>2014-04-18T08:17:24Z</time>
      </trkpt>
      <trkpt lat="43.94365" lon="5.38302">
        <ele>396.2</ele>
        <time>2014-04-18T08:17:39Z</time>
      </trkpt>
      <trkpt lat="43.94375" lon="5.38314">
        <ele>397.16</ele>
        <time>2014-04-18T08:17:50Z</time>
      </trkpt>
      <trkpt lat="43.94383" lon="5.38331">
        <ele>398.12</ele>
        <time>2014-04-18T08:18:02Z</time>
      </trkpt>
      <trkpt lat="43.94394" lon="5.38337">
        <ele>399.08</ele>
        <time>2014-04-18T08:18:14Z</time>
      </trkpt>
      <trkpt lat="43.94399" lon="5.38339">
        <ele>399.57</ele>
        <time>2014-04-18T08:18:19Z</time>
      </trkpt>
      <trkpt lat="43.94409" lon="5.38341">
        <ele>399.57</ele>
        <time>2014-04-18T08:18:27Z</time>
      </trkpt>
      <trkpt lat="43.94411" lon="5.38341">
        <ele>400.05</ele>
        <time>2014-04-18T08:18:29Z</time>
      </trkpt>
      <trkpt lat="43.94419" lon="5.38341">
        <ele>400.05</ele>
        <time>2014-04-18T08:18:38Z</time>
      </trkpt>
      <trkpt lat="43.94425" lon="5.38343">
        <ele>401.01</ele>
        <time>2014-04-18T08:18:47Z</time>
      </trkpt>
      <trkpt lat="43.94432" lon="5.38344">
        <ele>402.45</ele>
        <time>2014-04-18T08:18:56Z</time>
      </trkpt>
      <trkpt lat="43.94436" lon="5.38347">
        <ele>403.41</ele>
        <time>2014-04-18T08:19:06Z</time>
      </trkpt>
      <trkpt lat="43.9444" lon="5.38348">
        <ele>404.85</ele>
        <time>2014-04-18T08:19:16Z</time>
      </trkpt>
      <trkpt lat="43.94446" lon="5.38348">
        <ele>406.29</ele>
        <time>2014-04-18T08:19:25Z</time>
      </trkpt>
      <trkpt lat="43.94454" lon="5.38351">
        <ele>408.22</ele>
        <time>2014-04-18T08:19:35Z</time>
      </trkpt>
      <trkpt lat="43.94466" lon="5.38358">
        <ele>410.14</ele>
        <time>2014-04-18T08:19:50Z</time>
      </trkpt>
      <trkpt lat="43.94475" lon="5.38365">
        <ele>411.58</ele>
        <time>2014-04-18T08:20:01Z</time>
      </trkpt>
      <trkpt lat="43.94482" lon="5.38372">
        <ele>413.5</ele>
        <time>2014-04-18T08:20:13Z</time>
      </trkpt>
      <trkpt lat="43.94491" lon="5.38376">
        <ele>414.95</ele>
        <time>2014-04-18T08:20:25Z</time>
      </trkpt>
      <trkpt lat="43.94497" lon="5.38379">
        <ele>416.39</ele>
        <time>2014-04-18T08:20:37Z</time>
      </trkpt>
      <trkpt lat="43.94502" lon="5.38381">
        <ele>417.83</ele>
        <time>2014-04-18T08:20:46Z</time>
      </trkpt>
      <trkpt lat="43.94503" lon="5.38383">
        <ele>417.83</ele>
        <time>2014-04-18T08:20:58Z</time>
      </trkpt>
      <trkpt lat="43.94498" lon="5.3838">
        <ele>416.39</ele>
        <time>2014-04-18T08:21:07Z</time>
      </trkpt>
      <trkpt lat="43.94496" lon="5.38378">
        <ele>416.39</ele>
        <time>2014-04-18T08:21:09Z</time>
      </trkpt>
      <trkpt lat="43.94492" lon="5.3837">
        <ele>417.35</ele>
        <time>2014-04-18T08:21:16Z</time>
      </trkpt>
      <trkpt lat="43.94487" lon="5.38361">
        <ele>419.75</ele>
        <time>2014-04-18T08:21:26Z</time>
      </trkpt>
      <trkpt lat="43.94483" lon="5.38354">
        <ele>421.68</ele>
        <time>2014-04-18T08:21:35Z</time>
      </trkpt>
      <trkpt lat="43.94479" lon="5.38348">
        <ele>423.6</ele>
        <time>2014-04-18T08:21:45Z</time>
      </trkpt>
      <trkpt lat="43.94471" lon="5.38353">
        <ele>424.08</ele>
        <time>2014-04-18T08:21:54Z</time>
      </trkpt>
      <trkpt lat="43.94471" lon="5.38353">
        <ele>424.08</ele>
        <time>2014-04-18T08:22:11Z</time>
      </trkpt>
      <trkpt lat="43.94469" lon="5.38354">
        <ele>423.6</ele>
        <time>2014-04-18T08:22:20Z</time>
      </trkpt>
      <trkpt lat="43.94469" lon="5.38353">
        <ele>423.6</ele>
        <time>2014-04-18T08:22:32Z</time>
      </trkpt>
      <trkpt lat="43.9447" lon="5.38352">
        <ele>424.08</ele>
        <time>2014-04-18T08:22:47Z</time>
      </trkpt>
      <trkpt lat="43.94472" lon="5.38347">
        <ele>424.56</ele>
        <time>2014-04-18T08:22:51Z</time>
      </trkpt>
      <trkpt lat="43.94479" lon="5.38334">
        <ele>424.56</ele>
        <time>2014-04-18T08:23:03Z</time>
      </trkpt>
      <trkpt lat="43.94479" lon="5.38335">
        <ele>424.56</ele>
        <time>2014-04-18T08:23:19Z</time>
      </trkpt>
      <trkpt lat="43.94478" lon="5.38341">
        <ele>424.56</ele>
        <time>2014-04-18T08:23:28Z</time>
      </trkpt>
      <trkpt lat="43.94477" lon="5.38342">
        <ele>425.04</ele>
        <time>2014-04-18T08:23:37Z</time>
      </trkpt>
      <trkpt lat="43.94472" lon="5.3834">
        <ele>423.6</ele>
        <time>2014-04-18T08:23:47Z</time>
      </trkpt>
      <trkpt lat="43.9447" lon="5.3834">
        <ele>422.64</ele>
        <time>2014-04-18T08:23:58Z</time>
      </trkpt>
      <trkpt lat="43.94467" lon="5.38337">
        <ele>422.16</ele>
        <time>2014-04-18T08:24:15Z</time>
      </trkpt>
      <trkpt lat="43.94466" lon="5.38336">
        <ele>421.19</ele>
        <time>2014-04-18T08:24:28Z</time>
      </trkpt>
      <trkpt lat="43.94467" lon="5.38335">
        <ele>421.68</ele>
        <time>2014-04-18T08:24:43Z</time>
      </trkpt>
      <trkpt lat="43.94466" lon="5.38339">
        <ele>422.16</ele>
        <time>2014-04-18T08:24:53Z</time>
      </trkpt>
      <trkpt lat="43.94469" lon="5.3834">
        <ele>423.12</ele>
        <time>2014-04-18T08:25:04Z</time>
      </trkpt>
      <trkpt lat="43.94474" lon="5.38343">
        <ele>424.08</ele>
        <time>2014-04-18T08:25:14Z</time>
      </trkpt>
      <trkpt lat="43.94483" lon="5.38349">
        <ele>426.48</ele>
        <time>2014-04-18T08:25:25Z</time>
      </trkpt>
      <trkpt lat="43.94484" lon="5.38351">
        <ele>426.48</ele>
        <time>2014-04-18T08:25:27Z</time>
      </trkpt>
      <trkpt lat="43.94491" lon="5.38361">
        <ele>427.92</ele>
        <time>2014-04-18T08:25:37Z</time>
      </trkpt>
      <trkpt lat="43.94497" lon="5.38369">
        <ele>429.37</ele>
        <time>2014-04-18T08:25:46Z</time>
      </trkpt>
      <trkpt lat="43.94504" lon="5.38376">
        <ele>430.33</ele>
        <time>2014-04-18T08:25:55Z</time>
      </trkpt>
      <trkpt lat="43.9451" lon="5.38379">
        <ele>431.77</ele>
        <time>2014-04-18T08:26:03Z</time>
      </trkpt>
      <trkpt lat="43.94512" lon="5.38381">
        <ele>432.73</ele>
        <time>2014-04-18T08:26:08Z</time>
      </trkpt>
      <trkpt lat="43.94518" lon="5.38384">
        <ele>434.17</ele>
        <time>2014-04-18T08:26:18Z</time>
      </trkpt>
      <trkpt lat="43.94518" lon="5.38385">
        <ele>434.65</ele>
        <time>2014-04-18T08:26:21Z</time>
      </trkpt>
      <trkpt lat="43.94518" lon="5.38389">
        <ele>434.17</ele>
        <time>2014-04-18T08:26:30Z</time>
      </trkpt>
      <trkpt lat="43.94518" lon="5.38391">
        <ele>433.69</ele>
        <time>2014-04-18T08:26:41Z</time>
      </trkpt>
      <trkpt lat="43.94519" lon="5.38387">
        <ele>433.69</ele>
        <time>2014-04-18T08:26:45Z</time>
      </trkpt>
      <trkpt lat="43.94528" lon="5.38388">
        <ele>435.13</ele>
        <time>2014-04-18T08:26:55Z</time>
      </trkpt>
      <trkpt lat="43.94535" lon="5.38397">
        <ele>436.58</ele>
        <time>2014-04-18T08:27:06Z</time>
      </trkpt>
      <trkpt lat="43.94538" lon="5.384">
        <ele>437.06</ele>
        <time>2014-04-18T08:27:10Z</time>
      </trkpt>
      <trkpt lat="43.94544" lon="5.3841">
        <ele>438.02</ele>
        <time>2014-04-18T08:27:21Z</time>
      </trkpt>
      <trkpt lat="43.94552" lon="5.3842">
        <ele>439.46</ele>
        <time>2014-04-18T08:27:31Z</time>
      </trkpt>
      <trkpt lat="43.94556" lon="5.38424">
        <ele>439.94</ele>
        <time>2014-04-18T08:27:36Z</time>
      </trkpt>
      <trkpt lat="43.94562" lon="5.38428">
        <ele>441.38</ele>
        <time>2014-04-18T08:27:44Z</time>
      </trkpt>
      <trkpt lat="43.94569" lon="5.38428">
        <ele>442.82</ele>
        <time>2014-04-18T08:27:56Z</time>
      </trkpt>
      <trkpt lat="43.94573" lon="5.38434">
        <ele>443.31</ele>
        <time>2014-04-18T08:28:07Z</time>
      </trkpt>
      <trkpt lat="43.94578" lon="5.3844">
        <ele>444.27</ele>
        <time>2014-04-18T08:28:14Z</time>
      </trkpt>
      <trkpt lat="43.94587" lon="5.38444">
        <ele>445.71</ele>
        <time>2014-04-18T08:28:23Z</time>
      </trkpt>
      <trkpt lat="43.9459" lon="5.38448">
        <ele>446.19</ele>
        <time>2014-04-18T08:28:32Z</time>
      </trkpt>
      <trkpt lat="43.94594" lon="5.3845">
        <ele>447.15</ele>
        <time>2014-04-18T08:28:47Z</time>
      </trkpt>
      <trkpt lat="43.94601" lon="5.38455">
        <ele>448.11</ele>
        <time>2014-04-18T08:28:57Z</time>
      </trkpt>
      <trkpt lat="43.9461" lon="5.38461">
        <ele>450.03</ele>
        <time>2014-04-18T08:29:08Z</time>
      </trkpt>
      <trkpt lat="43.94619" lon="5.38467">
        <ele>451.96</ele>
        <time>2014-04-18T08:29:20Z</time>
      </trkpt>
      <trkpt lat="43.94627" lon="5.38472">
        <ele>454.36</ele>
        <time>2014-04-18T08:29:32Z</time>
      </trkpt>
      <trkpt lat="43.94636" lon="5.38477">
        <ele>456.28</ele>
        <time>2014-04-18T08:29:43Z</time>
      </trkpt>
      <trkpt lat="43.94644" lon="5.38485">
        <ele>457.24</ele>
        <time>2014-04-18T08:29:55Z</time>
      </trkpt>
      <trkpt lat="43.94653" lon="5.38495">
        <ele>458.69</ele>
        <time>2014-04-18T08:30:08Z</time>
      </trkpt>
      <trkpt lat="43.94655" lon="5.385">
        <ele>458.21</ele>
        <time>2014-04-18T08:30:18Z</time>
      </trkpt>
      <trkpt lat="43.94655" lon="5.38506">
        <ele>458.21</ele>
        <time>2014-04-18T08:30:29Z</time>
      </trkpt>
      <trkpt lat="43.94651" lon="5.38499">
        <ele>458.21</ele>
        <time>2014-04-18T08:30:38Z</time>
      </trkpt>
      <trkpt lat="43.94651" lon="5.385">
        <ele>458.21</ele>
        <time>2014-04-18T08:30:58Z</time>
      </trkpt>
      <trkpt lat="43.94651" lon="5.38502">
        <ele>458.21</ele>
        <time>2014-04-18T08:31:18Z</time>
      </trkpt>
      <trkpt lat="43.94653" lon="5.38497">
        <ele>458.69</ele>
        <time>2014-04-18T08:31:29Z</time>
      </trkpt>
      <trkpt lat="43.94658" lon="5.38484">
        <ele>458.69</ele>
        <time>2014-04-18T08:31:40Z</time>
      </trkpt>
      <trkpt lat="43.94659" lon="5.38484">
        <ele>458.69</ele>
        <time>2014-04-18T08:31:56Z</time>
      </trkpt>
      <trkpt lat="43.94656" lon="5.38485">
        <ele>458.69</ele>
        <time>2014-04-18T08:32:00Z</time>
      </trkpt>
      <trkpt lat="43.94648" lon="5.38485">
        <ele>457.72</ele>
        <time>2014-04-18T08:32:10Z</time>
      </trkpt>
      <trkpt lat="43.94645" lon="5.38483">
        <ele>457.24</ele>
        <time>2014-04-18T08:32:12Z</time>
      </trkpt>
      <trkpt lat="43.94636" lon="5.38476">
        <ele>456.28</ele>
        <time>2014-04-18T08:32:22Z</time>
      </trkpt>
      <trkpt lat="43.9463" lon="5.38472">
        <ele>455.32</ele>
        <time>2014-04-18T08:32:32Z</time>
      </trkpt>
      <trkpt lat="43.94628" lon="5.38468">
        <ele>454.36</ele>
        <time>2014-04-18T08:32:41Z</time>
      </trkpt>
      <trkpt lat="43.94633" lon="5.38468">
        <ele>454.84</ele>
        <time>2014-04-18T08:32:51Z</time>
      </trkpt>
      <trkpt lat="43.94634" lon="5.38469">
        <ele>454.84</ele>
        <time>2014-04-18T08:32:55Z</time>
      </trkpt>
      <trkpt lat="43.94646" lon="5.38473">
        <ele>456.28</ele>
        <time>2014-04-18T08:33:07Z</time>
      </trkpt>
      <trkpt lat="43.94654" lon="5.38479">
        <ele>457.24</ele>
        <time>2014-04-18T08:33:17Z</time>
      </trkpt>
      <trkpt lat="43.94656" lon="5.3848">
        <ele>457.24</ele>
        <time>2014-04-18T08:33:19Z</time>
      </trkpt>
      <trkpt lat="43.94668" lon="5.38484">
        <ele>457.24</ele>
        <time>2014-04-18T08:33:30Z</time>
      </trkpt>
      <trkpt lat="43.94677" lon="5.3849">
        <ele>456.76</ele>
        <time>2014-04-18T08:33:41Z</time>
      </trkpt>
      <trkpt lat="43.94688" lon="5.38497">
        <ele>457.72</ele>
        <time>2014-04-18T08:33:52Z</time>
      </trkpt>
      <trkpt lat="43.94697" lon="5.38501">
        <ele>458.69</ele>
        <time>2014-04-18T08:34:02Z</time>
      </trkpt>
      <trkpt lat="43.94702" lon="5.38505">
        <ele>459.65</ele>
        <time>2014-04-18T08:34:13Z</time>
      </trkpt>
      <trkpt lat="43.94709" lon="5.38508">
        <ele>461.09</ele>
        <time>2014-04-18T08:34:22Z</time>
      </trkpt>
      <trkpt lat="43.94721" lon="5.38514">
        <ele>463.01</ele>
        <time>2014-04-18T08:34:34Z</time>
      </trkpt>
      <trkpt lat="43.9473" lon="5.38518">
        <ele>464.45</ele>
        <time>2014-04-18T08:34:44Z</time>
      </trkpt>
      <trkpt lat="43.94742" lon="5.38519">
        <ele>465.9</ele>
        <time>2014-04-18T08:34:55Z</time>
      </trkpt>
      <trkpt lat="43.9475" lon="5.38522">
        <ele>467.34</ele>
        <time>2014-04-18T08:35:05Z</time>
      </trkpt>
      <trkpt lat="43.9476" lon="5.38526">
        <ele>468.78</ele>
        <time>2014-04-18T08:35:17Z</time>
      </trkpt>
      <trkpt lat="43.94769" lon="5.38528">
        <ele>470.22</ele>
        <time>2014-04-18T08:35:26Z</time>
      </trkpt>
      <trkpt lat="43.94778" lon="5.38532">
        <ele>472.14</ele>
        <time>2014-04-18T08:35:37Z</time>
      </trkpt>
      <trkpt lat="43.94784" lon="5.38535">
        <ele>473.11</ele>
        <time>2014-04-18T08:35:46Z</time>
      </trkpt>
      <trkpt lat="43.94791" lon="5.38539">
        <ele>474.55</ele>
        <time>2014-04-18T08:35:56Z</time>
      </trkpt>
      <trkpt lat="43.948" lon="5.38544">
        <ele>475.99</ele>
        <time>2014-04-18T08:36:07Z</time>
      </trkpt>
      <trkpt lat="43.94808" lon="5.38549">
        <ele>476.95</ele>
        <time>2014-04-18T08:36:16Z</time>
      </trkpt>
      <trkpt lat="43.94821" lon="5.38554">
        <ele>478.87</ele>
        <time>2014-04-18T08:36:28Z</time>
      </trkpt>
      <trkpt lat="43.94832" lon="5.38559">
        <ele>480.8</ele>
        <time>2014-04-18T08:36:40Z</time>
      </trkpt>
      <trkpt lat="43.9484" lon="5.38562">
        <ele>481.76</ele>
        <time>2014-04-18T08:36:50Z</time>
      </trkpt>
      <trkpt lat="43.94847" lon="5.38568">
        <ele>483.68</ele>
        <time>2014-04-18T08:37:00Z</time>
      </trkpt>
      <trkpt lat="43.94858" lon="5.38573">
        <ele>485.12</ele>
        <time>2014-04-18T08:37:11Z</time>
      </trkpt>
      <trkpt lat="43.9487" lon="5.38586">
        <ele>487.05</ele>
        <time>2014-04-18T08:37:25Z</time>
      </trkpt>
      <trkpt lat="43.94879" lon="5.3859">
        <ele>488.97</ele>
        <time>2014-04-18T08:37:35Z</time>
      </trkpt>
      <trkpt lat="43.94888" lon="5.38597">
        <ele>490.41</ele>
        <time>2014-04-18T08:37:46Z</time>
      </trkpt>
      <trkpt lat="43.94901" lon="5.38599">
        <ele>492.33</ele>
        <time>2014-04-18T08:37:58Z</time>
      </trkpt>
      <trkpt lat="43.94911" lon="5.38601">
        <ele>493.77</ele>
        <time>2014-04-18T08:38:08Z</time>
      </trkpt>
      <trkpt lat="43.9492" lon="5.38606">
        <ele>495.7</ele>
        <time>2014-04-18T08:38:19Z</time>
      </trkpt>
      <trkpt lat="43.94928" lon="5.3861">
        <ele>497.62</ele>
        <time>2014-04-18T08:38:31Z</time>
      </trkpt>
      <trkpt lat="43.94937" lon="5.38614">
        <ele>499.06</ele>
        <time>2014-04-18T08:38:42Z</time>
      </trkpt>
      <trkpt lat="43.94947" lon="5.38619">
        <ele>500.98</ele>
        <time>2014-04-18T08:38:52Z</time>
      </trkpt>
      <trkpt lat="43.94956" lon="5.38627">
        <ele>502.43</ele>
        <time>2014-04-18T08:39:04Z</time>
      </trkpt>
      <trkpt lat="43.94962" lon="5.38639">
        <ele>504.35</ele>
        <time>2014-04-18T08:39:16Z</time>
      </trkpt>
      <trkpt lat="43.9497" lon="5.38646">
        <ele>505.79</ele>
        <time>2014-04-18T08:39:28Z</time>
      </trkpt>
      <trkpt lat="43.9498" lon="5.38649">
        <ele>507.71</ele>
        <time>2014-04-18T08:39:40Z</time>
      </trkpt>
      <trkpt lat="43.94988" lon="5.38649">
        <ele>509.64</ele>
        <time>2014-04-18T08:39:51Z</time>
      </trkpt>
      <trkpt lat="43.94997" lon="5.38651">
        <ele>511.08</ele>
        <time>2014-04-18T08:40:02Z</time>
      </trkpt>
      <trkpt lat="43.95002" lon="5.38655">
        <ele>512.52</ele>
        <time>2014-04-18T08:40:11Z</time>
      </trkpt>
      <trkpt lat="43.95013" lon="5.38656">
        <ele>513.96</ele>
        <time>2014-04-18T08:40:21Z</time>
      </trkpt>
      <trkpt lat="43.95023" lon="5.38664">
        <ele>515.88</ele>
        <time>2014-04-18T08:40:33Z</time>
      </trkpt>
      <trkpt lat="43.95031" lon="5.38669">
        <ele>516.85</ele>
        <time>2014-04-18T08:40:43Z</time>
      </trkpt>
      <trkpt lat="43.95038" lon="5.38673">
        <ele>519.25</ele>
        <time>2014-04-18T08:40:55Z</time>
      </trkpt>
      <trkpt lat="43.95047" lon="5.38679">
        <ele>520.69</ele>
        <time>2014-04-18T08:41:07Z</time>
      </trkpt>
      <trkpt lat="43.95056" lon="5.38686">
        <ele>522.61</ele>
        <time>2014-04-18T08:41:18Z</time>
      </trkpt>
      <trkpt lat="43.95064" lon="5.38691">
        <ele>523.58</ele>
        <time>2014-04-18T08:41:27Z</time>
      </trkpt>
      <trkpt lat="43.95069" lon="5.38703">
        <ele>525.02</ele>
        <time>2014-04-18T08:41:38Z</time>
      </trkpt>
      <trkpt lat="43.95075" lon="5.38717">
        <ele>526.94</ele>
        <time>2014-04-18T08:41:51Z</time>
      </trkpt>
      <trkpt lat="43.95079" lon="5.38731">
        <ele>527.9</ele>
        <time>2014-04-18T08:42:02Z</time>
      </trkpt>
      <trkpt lat="43.95083" lon="5.38742">
        <ele>529.34</ele>
        <time>2014-04-18T08:42:13Z</time>
      </trkpt>
      <trkpt lat="43.95089" lon="5.38753">
        <ele>530.79</ele>
        <time>2014-04-18T08:42:24Z</time>
      </trkpt>
      <trkpt lat="43.95098" lon="5.38763">
        <ele>532.23</ele>
        <time>2014-04-18T08:42:36Z</time>
      </trkpt>
      <trkpt lat="43.95104" lon="5.38766">
        <ele>533.67</ele>
        <time>2014-04-18T08:42:46Z</time>
      </trkpt>
      <trkpt lat="43.95112" lon="5.3877">
        <ele>535.11</ele>
        <time>2014-04-18T08:42:56Z</time>
      </trkpt>
      <trkpt lat="43.95121" lon="5.38776">
        <ele>536.07</ele>
        <time>2014-04-18T08:43:06Z</time>
      </trkpt>
      <trkpt lat="43.9513" lon="5.38779">
        <ele>537.51</ele>
        <time>2014-04-18T08:43:16Z</time>
      </trkpt>
      <trkpt lat="43.95142" lon="5.38786">
        <ele>538.96</ele>
        <time>2014-04-18T08:43:27Z</time>
      </trkpt>
      <trkpt lat="43.95152" lon="5.38791">
        <ele>539.92</ele>
        <time>2014-04-18T08:43:38Z</time>
      </trkpt>
      <trkpt lat="43.95163" lon="5.38793">
        <ele>541.84</ele>
        <time>2014-04-18T08:43:49Z</time>
      </trkpt>
      <trkpt lat="43.95173" lon="5.38796">
        <ele>542.8</ele>
        <time>2014-04-18T08:44:00Z</time>
      </trkpt>
      <trkpt lat="43.95183" lon="5.38802">
        <ele>544.72</ele>
        <time>2014-04-18T08:44:12Z</time>
      </trkpt>
      <trkpt lat="43.95192" lon="5.38807">
        <ele>546.17</ele>
        <time>2014-04-18T08:44:23Z</time>
      </trkpt>
      <trkpt lat="43.95201" lon="5.38816">
        <ele>547.13</ele>
        <time>2014-04-18T08:44:35Z</time>
      </trkpt>
      <trkpt lat="43.9521" lon="5.38823">
        <ele>549.05</ele>
        <time>2014-04-18T08:44:46Z</time>
      </trkpt>
      <trkpt lat="43.95217" lon="5.38828">
        <ele>550.01</ele>
        <time>2014-04-18T08:44:56Z</time>
      </trkpt>
      <trkpt lat="43.95219" lon="5.38829">
        <ele>550.49</ele>
        <time>2014-04-18T08:44:58Z</time>
      </trkpt>
      <trkpt lat="43.95228" lon="5.3884">
        <ele>551.93</ele>
        <time>2014-04-18T08:45:09Z</time>
      </trkpt>
      <trkpt lat="43.95235" lon="5.3885">
        <ele>552.9</ele>
        <time>2014-04-18T08:45:20Z</time>
      </trkpt>
      <trkpt lat="43.95242" lon="5.38857">
        <ele>553.86</ele>
        <time>2014-04-18T08:45:29Z</time>
      </trkpt>
      <trkpt lat="43.9525" lon="5.38866">
        <ele>555.3</ele>
        <time>2014-04-18T08:45:39Z</time>
      </trkpt>
      <trkpt lat="43.9526" lon="5.38877">
        <ele>556.74</ele>
        <time>2014-04-18T08:45:52Z</time>
      </trkpt>
      <trkpt lat="43.95265" lon="5.38888">
        <ele>557.7</ele>
        <time>2014-04-18T08:46:03Z</time>
      </trkpt>
      <trkpt lat="43.95273" lon="5.38901">
        <ele>559.14</ele>
        <time>2014-04-18T08:46:15Z</time>
      </trkpt>
      <trkpt lat="43.9528" lon="5.3891">
        <ele>561.07</ele>
        <time>2014-04-18T08:46:26Z</time>
      </trkpt>
      <trkpt lat="43.95288" lon="5.38915">
        <ele>561.55</ele>
        <time>2014-04-18T08:46:35Z</time>
      </trkpt>
      <trkpt lat="43.95295" lon="5.38923">
        <ele>562.51</ele>
        <time>2014-04-18T08:46:44Z</time>
      </trkpt>
      <trkpt lat="43.95304" lon="5.38931">
        <ele>563.47</ele>
        <time>2014-04-18T08:46:55Z</time>
      </trkpt>
      <trkpt lat="43.95312" lon="5.38945">
        <ele>565.39</ele>
        <time>2014-04-18T08:47:09Z</time>
      </trkpt>
      <trkpt lat="43.95318" lon="5.38956">
        <ele>566.35</ele>
        <time>2014-04-18T08:47:20Z</time>
      </trkpt>
      <trkpt lat="43.95323" lon="5.38965">
        <ele>568.28</ele>
        <time>2014-04-18T08:47:32Z</time>
      </trkpt>
      <trkpt lat="43.9533" lon="5.38976">
        <ele>569.72</ele>
        <time>2014-04-18T08:47:43Z</time>
      </trkpt>
      <trkpt lat="43.95336" lon="5.38988">
        <ele>571.64</ele>
        <time>2014-04-18T08:47:56Z</time>
      </trkpt>
      <trkpt lat="43.95345" lon="5.39">
        <ele>572.6</ele>
        <time>2014-04-18T08:48:08Z</time>
      </trkpt>
      <trkpt lat="43.95354" lon="5.3901">
        <ele>574.04</ele>
        <time>2014-04-18T08:48:21Z</time>
      </trkpt>
      <trkpt lat="43.95359" lon="5.39017">
        <ele>575.01</ele>
        <time>2014-04-18T08:48:31Z</time>
      </trkpt>
      <trkpt lat="43.95359" lon="5.39018">
        <ele>574.53</ele>
        <time>2014-04-18T08:48:49Z</time>
      </trkpt>
      <trkpt lat="43.9536" lon="5.39019">
        <ele>575.01</ele>
        <time>2014-04-18T08:49:04Z</time>
      </trkpt>
      <trkpt lat="43.95368" lon="5.39024">
        <ele>576.45</ele>
        <time>2014-04-18T08:49:16Z</time>
      </trkpt>
      <trkpt lat="43.95378" lon="5.3903">
        <ele>577.89</ele>
        <time>2014-04-18T08:49:28Z</time>
      </trkpt>
      <trkpt lat="43.95389" lon="5.39038">
        <ele>579.33</ele>
        <time>2014-04-18T08:49:40Z</time>
      </trkpt>
      <trkpt lat="43.95398" lon="5.39042">
        <ele>580.77</ele>
        <time>2014-04-18T08:49:50Z</time>
      </trkpt>
      <trkpt lat="43.95408" lon="5.39049">
        <ele>581.73</ele>
        <time>2014-04-18T08:50:01Z</time>
      </trkpt>
      <trkpt lat="43.95417" lon="5.39056">
        <ele>583.18</ele>
        <time>2014-04-18T08:50:12Z</time>
      </trkpt>
      <trkpt lat="43.95428" lon="5.39059">
        <ele>585.1</ele>
        <time>2014-04-18T08:50:23Z</time>
      </trkpt>
      <trkpt lat="43.95439" lon="5.39065">
        <ele>587.02</ele>
        <time>2014-04-18T08:50:35Z</time>
      </trkpt>
      <trkpt lat="43.95449" lon="5.39075">
        <ele>588.46</ele>
        <time>2014-04-18T08:50:49Z</time>
      </trkpt>
      <trkpt lat="43.9546" lon="5.39083">
        <ele>590.87</ele>
        <time>2014-04-18T08:51:02Z</time>
      </trkpt>
      <trkpt lat="43.95469" lon="5.39085">
        <ele>592.79</ele>
        <time>2014-04-18T08:51:13Z</time>
      </trkpt>
      <trkpt lat="43.95478" lon="5.39091">
        <ele>594.23</ele>
        <time>2014-04-18T08:51:25Z</time>
      </trkpt>
      <trkpt lat="43.95488" lon="5.39101">
        <ele>595.67</ele>
        <time>2014-04-18T08:51:38Z</time>
      </trkpt>
      <trkpt lat="43.95498" lon="5.39108">
        <ele>597.6</ele>
        <time>2014-04-18T08:51:49Z</time>
      </trkpt>
      <trkpt lat="43.95504" lon="5.39112">
        <ele>599.04</ele>
        <time>2014-04-18T08:51:59Z</time>
      </trkpt>
      <trkpt lat="43.95514" lon="5.39118">
        <ele>600.96</ele>
        <time>2014-04-18T08:52:10Z</time>
      </trkpt>
      <trkpt lat="43.95523" lon="5.39124">
        <ele>601.92</ele>
        <time>2014-04-18T08:52:21Z</time>
      </trkpt>
      <trkpt lat="43.95536" lon="5.39133">
        <ele>603.36</ele>
        <time>2014-04-18T08:52:35Z</time>
      </trkpt>
      <trkpt lat="43.95543" lon="5.39142">
        <ele>603.36</ele>
        <time>2014-04-18T08:52:45Z</time>
      </trkpt>
      <trkpt lat="43.95555" lon="5.39154">
        <ele>604.81</ele>
        <time>2014-04-18T08:52:58Z</time>
      </trkpt>
      <trkpt lat="43.95564" lon="5.39165">
        <ele>605.77</ele>
        <time>2014-04-18T08:53:11Z</time>
      </trkpt>
      <trkpt lat="43.95571" lon="5.39172">
        <ele>606.73</ele>
        <time>2014-04-18T08:53:22Z</time>
      </trkpt>
      <trkpt lat="43.95583" lon="5.39181">
        <ele>608.65</ele>
        <time>2014-04-18T08:53:34Z</time>
      </trkpt>
      <trkpt lat="43.95595" lon="5.39186">
        <ele>610.57</ele>
        <time>2014-04-18T08:53:47Z</time>
      </trkpt>
      <trkpt lat="43.956" lon="5.39189">
        <ele>611.06</ele>
        <time>2014-04-18T08:53:53Z</time>
      </trkpt>
      <trkpt lat="43.95612" lon="5.39197">
        <ele>612.98</ele>
        <time>2014-04-18T08:54:05Z</time>
      </trkpt>
      <trkpt lat="43.95622" lon="5.39202">
        <ele>613.94</ele>
        <time>2014-04-18T08:54:15Z</time>
      </trkpt>
      <trkpt lat="43.95624" lon="5.39203">
        <ele>614.42</ele>
        <time>2014-04-18T08:54:17Z</time>
      </trkpt>
      <trkpt lat="43.95626" lon="5.39206">
        <ele>614.9</ele>
        <time>2014-04-18T08:54:20Z</time>
      </trkpt>
      <trkpt lat="43.95635" lon="5.39212">
        <ele>615.86</ele>
        <time>2014-04-18T08:54:31Z</time>
      </trkpt>
      <trkpt lat="43.95646" lon="5.39216">
        <ele>618.26</ele>
        <time>2014-04-18T08:54:43Z</time>
      </trkpt>
      <trkpt lat="43.95655" lon="5.3922">
        <ele>619.71</ele>
        <time>2014-04-18T08:54:55Z</time>
      </trkpt>
      <trkpt lat="43.95667" lon="5.39223">
        <ele>621.63</ele>
        <time>2014-04-18T08:55:08Z</time>
      </trkpt>
      <trkpt lat="43.95676" lon="5.39227">
        <ele>623.07</ele>
        <time>2014-04-18T08:55:19Z</time>
      </trkpt>
      <trkpt lat="43.95686" lon="5.39234">
        <ele>624.51</ele>
        <time>2014-04-18T08:55:31Z</time>
      </trkpt>
      <trkpt lat="43.95698" lon="5.39238">
        <ele>625.47</ele>
        <time>2014-04-18T08:55:44Z</time>
      </trkpt>
      <trkpt lat="43.95709" lon="5.39241">
        <ele>627.4</ele>
        <time>2014-04-18T08:55:57Z</time>
      </trkpt>
      <trkpt lat="43.9572" lon="5.39242">
        <ele>629.8</ele>
        <time>2014-04-18T08:56:10Z</time>
      </trkpt>
      <trkpt lat="43.95732" lon="5.39245">
        <ele>631.24</ele>
        <time>2014-04-18T08:56:21Z</time>
      </trkpt>
      <trkpt lat="43.95741" lon="5.39255">
        <ele>631.72</ele>
        <time>2014-04-18T08:56:33Z</time>
      </trkpt>
      <trkpt lat="43.95751" lon="5.39262">
        <ele>632.68</ele>
        <time>2014-04-18T08:56:45Z</time>
      </trkpt>
      <trkpt lat="43.95761" lon="5.39269">
        <ele>633.65</ele>
        <time>2014-04-18T08:56:55Z</time>
      </trkpt>
      <trkpt lat="43.95771" lon="5.3927">
        <ele>634.61</ele>
        <time>2014-04-18T08:57:06Z</time>
      </trkpt>
      <trkpt lat="43.95774" lon="5.39271">
        <ele>635.57</ele>
        <time>2014-04-18T08:57:15Z</time>
      </trkpt>
      <trkpt lat="43.95788" lon="5.39274">
        <ele>636.53</ele>
        <time>2014-04-18T08:57:25Z</time>
      </trkpt>
      <trkpt lat="43.95802" lon="5.39278">
        <ele>637.49</ele>
        <time>2014-04-18T08:57:35Z</time>
      </trkpt>
      <trkpt lat="43.95816" lon="5.39279">
        <ele>638.45</ele>
        <time>2014-04-18T08:57:48Z</time>
      </trkpt>
      <trkpt lat="43.95819" lon="5.3928">
        <ele>638.93</ele>
        <time>2014-04-18T08:57:50Z</time>
      </trkpt>
      <trkpt lat="43.95832" lon="5.39285">
        <ele>639.89</ele>
        <time>2014-04-18T08:58:01Z</time>
      </trkpt>
      <trkpt lat="43.95833" lon="5.39285">
        <ele>639.89</ele>
        <time>2014-04-18T08:58:02Z</time>
      </trkpt>
      <trkpt lat="43.95845" lon="5.39294">
        <ele>640.38</ele>
        <time>2014-04-18T08:58:14Z</time>
      </trkpt>
      <trkpt lat="43.95854" lon="5.393">
        <ele>640.86</ele>
        <time>2014-04-18T08:58:22Z</time>
      </trkpt>
      <trkpt lat="43.95866" lon="5.39307">
        <ele>641.82</ele>
        <time>2014-04-18T08:58:34Z</time>
      </trkpt>
      <trkpt lat="43.95876" lon="5.39315">
        <ele>642.78</ele>
        <time>2014-04-18T08:58:46Z</time>
      </trkpt>
      <trkpt lat="43.95884" lon="5.39321">
        <ele>643.26</ele>
        <time>2014-04-18T08:58:54Z</time>
      </trkpt>
      <trkpt lat="43.95898" lon="5.3933">
        <ele>644.7</ele>
        <time>2014-04-18T08:59:07Z</time>
      </trkpt>
      <trkpt lat="43.95906" lon="5.39333">
        <ele>646.14</ele>
        <time>2014-04-18T08:59:15Z</time>
      </trkpt>
      <trkpt lat="43.95913" lon="5.39338">
        <ele>646.62</ele>
        <time>2014-04-18T08:59:22Z</time>
      </trkpt>
      <trkpt lat="43.95926" lon="5.39351">
        <ele>647.59</ele>
        <time>2014-04-18T08:59:36Z</time>
      </trkpt>
      <trkpt lat="43.95933" lon="5.39359">
        <ele>649.51</ele>
        <time>2014-04-18T08:59:48Z</time>
      </trkpt>
      <trkpt lat="43.95941" lon="5.3936">
        <ele>650.47</ele>
        <time>2014-04-18T08:59:55Z</time>
      </trkpt>
      <trkpt lat="43.95946" lon="5.39372">
        <ele>650.95</ele>
        <time>2014-04-18T09:00:04Z</time>
      </trkpt>
      <trkpt lat="43.9595" lon="5.3938">
        <ele>652.39</ele>
        <time>2014-04-18T09:00:16Z</time>
      </trkpt>
      <trkpt lat="43.95961" lon="5.39396">
        <ele>654.31</ele>
        <time>2014-04-18T09:00:30Z</time>
      </trkpt>
      <trkpt lat="43.95967" lon="5.39405">
        <ele>655.28</ele>
        <time>2014-04-18T09:00:42Z</time>
      </trkpt>
      <trkpt lat="43.95979" lon="5.39415">
        <ele>657.68</ele>
        <time>2014-04-18T09:00:55Z</time>
      </trkpt>
      <trkpt lat="43.95986" lon="5.3942">
        <ele>659.12</ele>
        <time>2014-04-18T09:01:05Z</time>
      </trkpt>
      <trkpt lat="43.95997" lon="5.39426">
        <ele>661.04</ele>
        <time>2014-04-18T09:01:19Z</time>
      </trkpt>
      <trkpt lat="43.96005" lon="5.39435">
        <ele>662.01</ele>
        <time>2014-04-18T09:01:30Z</time>
      </trkpt>
      <trkpt lat="43.96015" lon="5.39441">
        <ele>663.93</ele>
        <time>2014-04-18T09:01:43Z</time>
      </trkpt>
      <trkpt lat="43.96022" lon="5.39443">
        <ele>665.37</ele>
        <time>2014-04-18T09:01:54Z</time>
      </trkpt>
      <trkpt lat="43.96027" lon="5.39445">
        <ele>666.81</ele>
        <time>2014-04-18T09:02:05Z</time>
      </trkpt>
      <trkpt lat="43.96039" lon="5.39447">
        <ele>668.25</ele>
        <time>2014-04-18T09:02:16Z</time>
      </trkpt>
      <trkpt lat="43.96047" lon="5.39452">
        <ele>669.22</ele>
        <time>2014-04-18T09:02:26Z</time>
      </trkpt>
      <trkpt lat="43.9606" lon="5.39461">
        <ele>671.14</ele>
        <time>2014-04-18T09:02:39Z</time>
      </trkpt>
      <trkpt lat="43.9607" lon="5.3947">
        <ele>672.58</ele>
        <time>2014-04-18T09:02:52Z</time>
      </trkpt>
      <trkpt lat="43.9608" lon="5.39476">
        <ele>674.02</ele>
        <time>2014-04-18T09:03:04Z</time>
      </trkpt>
      <trkpt lat="43.96091" lon="5.39482">
        <ele>675.46</ele>
        <time>2014-04-18T09:03:16Z</time>
      </trkpt>
      <trkpt lat="43.96099" lon="5.39491">
        <ele>677.39</ele>
        <time>2014-04-18T09:03:28Z</time>
      </trkpt>
      <trkpt lat="43.96107" lon="5.39502">
        <ele>679.31</ele>
        <time>2014-04-18T09:03:40Z</time>
      </trkpt>
      <trkpt lat="43.96116" lon="5.3951">
        <ele>680.75</ele>
        <time>2014-04-18T09:03:51Z</time>
      </trkpt>
      <trkpt lat="43.96124" lon="5.39515">
        <ele>682.19</ele>
        <time>2014-04-18T09:04:02Z</time>
      </trkpt>
      <trkpt lat="43.96132" lon="5.39521">
        <ele>683.63</ele>
        <time>2014-04-18T09:04:14Z</time>
      </trkpt>
      <trkpt lat="43.96139" lon="5.39527">
        <ele>684.6</ele>
        <time>2014-04-18T09:04:25Z</time>
      </trkpt>
      <trkpt lat="43.96152" lon="5.39537">
        <ele>686.52</ele>
        <time>2014-04-18T09:04:39Z</time>
      </trkpt>
      <trkpt lat="43.96158" lon="5.39539">
        <ele>687</ele>
        <time>2014-04-18T09:04:45Z</time>
      </trkpt>
      <trkpt lat="43.96165" lon="5.3955">
        <ele>688.44</ele>
        <time>2014-04-18T09:04:56Z</time>
      </trkpt>
      <trkpt lat="43.96173" lon="5.39559">
        <ele>689.4</ele>
        <time>2014-04-18T09:05:07Z</time>
      </trkpt>
      <trkpt lat="43.96179" lon="5.39564">
        <ele>690.36</ele>
        <time>2014-04-18T09:05:14Z</time>
      </trkpt>
      <trkpt lat="43.96188" lon="5.39571">
        <ele>691.33</ele>
        <time>2014-04-18T09:05:25Z</time>
      </trkpt>
      <trkpt lat="43.96195" lon="5.39579">
        <ele>692.77</ele>
        <time>2014-04-18T09:05:36Z</time>
      </trkpt>
      <trkpt lat="43.96205" lon="5.39589">
        <ele>693.73</ele>
        <time>2014-04-18T09:05:48Z</time>
      </trkpt>
      <trkpt lat="43.96214" lon="5.39595">
        <ele>695.17</ele>
        <time>2014-04-18T09:05:59Z</time>
      </trkpt>
      <trkpt lat="43.96224" lon="5.39599">
        <ele>696.13</ele>
        <time>2014-04-18T09:06:09Z</time>
      </trkpt>
      <trkpt lat="43.96232" lon="5.39603">
        <ele>697.57</ele>
        <time>2014-04-18T09:06:18Z</time>
      </trkpt>
      <trkpt lat="43.96242" lon="5.39608">
        <ele>698.53</ele>
        <time>2014-04-18T09:06:28Z</time>
      </trkpt>
      <trkpt lat="43.96248" lon="5.39612">
        <ele>699.02</ele>
        <time>2014-04-18T09:06:34Z</time>
      </trkpt>
      <trkpt lat="43.96253" lon="5.39616">
        <ele>699.5</ele>
        <time>2014-04-18T09:06:39Z</time>
      </trkpt>
      <trkpt lat="43.96255" lon="5.39618">
        <ele>699.98</ele>
        <time>2014-04-18T09:06:41Z</time>
      </trkpt>
      <trkpt lat="43.96267" lon="5.39628">
        <ele>700.46</ele>
        <time>2014-04-18T09:06:53Z</time>
      </trkpt>
      <trkpt lat="43.96273" lon="5.39636">
        <ele>700.94</ele>
        <time>2014-04-18T09:07:02Z</time>
      </trkpt>
      <trkpt lat="43.9628" lon="5.3964">
        <ele>701.42</ele>
        <time>2014-04-18T09:07:12Z</time>
      </trkpt>
      <trkpt lat="43.96292" lon="5.39647">
        <ele>702.86</ele>
        <time>2014-04-18T09:07:24Z</time>
      </trkpt>
      <trkpt lat="43.96296" lon="5.39649">
        <ele>702.86</ele>
        <time>2014-04-18T09:07:27Z</time>
      </trkpt>
      <trkpt lat="43.96304" lon="5.39656">
        <ele>703.34</ele>
        <time>2014-04-18T09:07:35Z</time>
      </trkpt>
      <trkpt lat="43.96314" lon="5.39666">
        <ele>703.82</ele>
        <time>2014-04-18T09:07:47Z</time>
      </trkpt>
      <trkpt lat="43.96324" lon="5.39673">
        <ele>704.78</ele>
        <time>2014-04-18T09:07:58Z</time>
      </trkpt>
      <trkpt lat="43.96329" lon="5.39684">
        <ele>705.26</ele>
        <time>2014-04-18T09:08:09Z</time>
      </trkpt>
      <trkpt lat="43.9633" lon="5.3969">
        <ele>704.3</ele>
        <time>2014-04-18T09:08:18Z</time>
      </trkpt>
      <trkpt lat="43.96335" lon="5.39689">
        <ele>705.75</ele>
        <time>2014-04-18T09:08:27Z</time>
      </trkpt>
      <trkpt lat="43.96342" lon="5.39693">
        <ele>706.23</ele>
        <time>2014-04-18T09:08:37Z</time>
      </trkpt>
      <trkpt lat="43.96351" lon="5.39702">
        <ele>707.19</ele>
        <time>2014-04-18T09:08:48Z</time>
      </trkpt>
      <trkpt lat="43.96363" lon="5.3971">
        <ele>708.15</ele>
        <time>2014-04-18T09:08:59Z</time>
      </trkpt>
      <trkpt lat="43.96375" lon="5.39716">
        <ele>709.11</ele>
        <time>2014-04-18T09:09:08Z</time>
      </trkpt>
      <trkpt lat="43.96385" lon="5.39723">
        <ele>710.07</ele>
        <time>2014-04-18T09:09:18Z</time>
      </trkpt>
      <trkpt lat="43.96395" lon="5.3973">
        <ele>711.03</ele>
        <time>2014-04-18T09:09:29Z</time>
      </trkpt>
      <trkpt lat="43.96401" lon="5.39734">
        <ele>712.47</ele>
        <time>2014-04-18T09:09:39Z</time>
      </trkpt>
      <trkpt lat="43.96409" lon="5.39738">
        <ele>712.95</ele>
        <time>2014-04-18T09:09:49Z</time>
      </trkpt>
      <trkpt lat="43.96418" lon="5.39744">
        <ele>714.88</ele>
        <time>2014-04-18T09:10:01Z</time>
      </trkpt>
      <trkpt lat="43.96425" lon="5.39751">
        <ele>715.84</ele>
        <time>2014-04-18T09:10:10Z</time>
      </trkpt>
      <trkpt lat="43.9644" lon="5.39763">
        <ele>716.8</ele>
        <time>2014-04-18T09:10:21Z</time>
      </trkpt>
      <trkpt lat="43.96451" lon="5.39771">
        <ele>718.24</ele>
        <time>2014-04-18T09:10:32Z</time>
      </trkpt>
      <trkpt lat="43.96464" lon="5.39777">
        <ele>719.68</ele>
        <time>2014-04-18T09:10:45Z</time>
      </trkpt>
      <trkpt lat="43.96471" lon="5.3978">
        <ele>721.13</ele>
        <time>2014-04-18T09:10:54Z</time>
      </trkpt>
      <trkpt lat="43.96481" lon="5.39788">
        <ele>722.57</ele>
        <time>2014-04-18T09:11:06Z</time>
      </trkpt>
      <trkpt lat="43.96493" lon="5.39794">
        <ele>724.49</ele>
        <time>2014-04-18T09:11:20Z</time>
      </trkpt>
      <trkpt lat="43.96502" lon="5.39803">
        <ele>725.45</ele>
        <time>2014-04-18T09:11:32Z</time>
      </trkpt>
      <trkpt lat="43.96513" lon="5.39814">
        <ele>726.89</ele>
        <time>2014-04-18T09:11:44Z</time>
      </trkpt>
      <trkpt lat="43.96525" lon="5.39821">
        <ele>727.86</ele>
        <time>2014-04-18T09:11:57Z</time>
      </trkpt>
      <trkpt lat="43.96533" lon="5.39831">
        <ele>728.82</ele>
        <time>2014-04-18T09:12:07Z</time>
      </trkpt>
      <trkpt lat="43.96536" lon="5.39836">
        <ele>729.3</ele>
        <time>2014-04-18T09:12:11Z</time>
      </trkpt>
      <trkpt lat="43.96545" lon="5.39851">
        <ele>729.78</ele>
        <time>2014-04-18T09:12:24Z</time>
      </trkpt>
      <trkpt lat="43.9656" lon="5.39857">
        <ele>730.74</ele>
        <time>2014-04-18T09:12:35Z</time>
      </trkpt>
      <trkpt lat="43.9657" lon="5.39858">
        <ele>731.22</ele>
        <time>2014-04-18T09:12:45Z</time>
      </trkpt>
      <trkpt lat="43.96584" lon="5.3986">
        <ele>732.18</ele>
        <time>2014-04-18T09:12:56Z</time>
      </trkpt>
      <trkpt lat="43.96595" lon="5.39862">
        <ele>732.66</ele>
        <time>2014-04-18T09:13:06Z</time>
      </trkpt>
      <trkpt lat="43.96604" lon="5.39864">
        <ele>733.14</ele>
        <time>2014-04-18T09:13:18Z</time>
      </trkpt>
      <trkpt lat="43.96612" lon="5.3986">
        <ele>733.62</ele>
        <time>2014-04-18T09:13:28Z</time>
      </trkpt>
      <trkpt lat="43.96619" lon="5.39859">
        <ele>733.62</ele>
        <time>2014-04-18T09:13:38Z</time>
      </trkpt>
      <trkpt lat="43.96627" lon="5.39863">
        <ele>734.58</ele>
        <time>2014-04-18T09:13:49Z</time>
      </trkpt>
      <trkpt lat="43.96634" lon="5.39864">
        <ele>735.07</ele>
        <time>2014-04-18T09:14:00Z</time>
      </trkpt>
      <trkpt lat="43.96645" lon="5.39866">
        <ele>736.51</ele>
        <time>2014-04-18T09:14:12Z</time>
      </trkpt>
      <trkpt lat="43.96657" lon="5.3987">
        <ele>736.99</ele>
        <time>2014-04-18T09:14:23Z</time>
      </trkpt>
      <trkpt lat="43.96669" lon="5.3988">
        <ele>738.91</ele>
        <time>2014-04-18T09:14:36Z</time>
      </trkpt>
      <trkpt lat="43.9668" lon="5.39889">
        <ele>740.83</ele>
        <time>2014-04-18T09:14:48Z</time>
      </trkpt>
      <trkpt lat="43.96681" lon="5.3989">
        <ele>741.31</ele>
        <time>2014-04-18T09:14:50Z</time>
      </trkpt>
      <trkpt lat="43.96693" lon="5.39895">
        <ele>742.76</ele>
        <time>2014-04-18T09:15:02Z</time>
      </trkpt>
      <trkpt lat="43.96702" lon="5.39898">
        <ele>743.72</ele>
        <time>2014-04-18T09:15:13Z</time>
      </trkpt>
      <trkpt lat="43.96711" lon="5.39899">
        <ele>745.16</ele>
        <time>2014-04-18T09:15:24Z</time>
      </trkpt>
      <trkpt lat="43.96713" lon="5.39899">
        <ele>745.64</ele>
        <time>2014-04-18T09:15:42Z</time>
      </trkpt>
      <trkpt lat="43.9672" lon="5.39901">
        <ele>745.64</ele>
        <time>2014-04-18T09:15:50Z</time>
      </trkpt>
      <trkpt lat="43.96726" lon="5.39903">
        <ele>746.6</ele>
        <time>2014-04-18T09:15:59Z</time>
      </trkpt>
      <trkpt lat="43.96738" lon="5.39906">
        <ele>748.04</ele>
        <time>2014-04-18T09:16:10Z</time>
      </trkpt>
      <trkpt lat="43.96752" lon="5.39908">
        <ele>749.97</ele>
        <time>2014-04-18T09:16:24Z</time>
      </trkpt>
      <trkpt lat="43.96762" lon="5.39909">
        <ele>749.97</ele>
        <time>2014-04-18T09:16:36Z</time>
      </trkpt>
      <trkpt lat="43.96769" lon="5.39915">
        <ele>751.89</ele>
        <time>2014-04-18T09:16:46Z</time>
      </trkpt>
      <trkpt lat="43.96767" lon="5.39918">
        <ele>751.89</ele>
        <time>2014-04-18T09:17:03Z</time>
      </trkpt>
      <trkpt lat="43.96762" lon="5.39932">
        <ele>752.37</ele>
        <time>2014-04-18T09:17:14Z</time>
      </trkpt>
      <trkpt lat="43.96753" lon="5.39951">
        <ele>752.37</ele>
        <time>2014-04-18T09:17:26Z</time>
      </trkpt>
      <trkpt lat="43.96746" lon="5.39963">
        <ele>751.89</ele>
        <time>2014-04-18T09:17:36Z</time>
      </trkpt>
      <trkpt lat="43.96742" lon="5.39978">
        <ele>751.41</ele>
        <time>2014-04-18T09:17:46Z</time>
      </trkpt>
      <trkpt lat="43.96733" lon="5.39996">
        <ele>750.93</ele>
        <time>2014-04-18T09:17:57Z</time>
      </trkpt>
      <trkpt lat="43.96726" lon="5.40014">
        <ele>750.45</ele>
        <time>2014-04-18T09:18:09Z</time>
      </trkpt>
      <trkpt lat="43.96717" lon="5.40032">
        <ele>749.49</ele>
        <time>2014-04-18T09:18:21Z</time>
      </trkpt>
      <trkpt lat="43.96711" lon="5.40047">
        <ele>749.49</ele>
        <time>2014-04-18T09:18:32Z</time>
      </trkpt>
      <trkpt lat="43.96705" lon="5.40062">
        <ele>748.52</ele>
        <time>2014-04-18T09:18:43Z</time>
      </trkpt>
      <trkpt lat="43.96696" lon="5.4008">
        <ele>748.04</ele>
        <time>2014-04-18T09:18:56Z</time>
      </trkpt>
      <trkpt lat="43.96696" lon="5.40093">
        <ele>748.04</ele>
        <time>2014-04-18T09:19:06Z</time>
      </trkpt>
      <trkpt lat="43.96704" lon="5.40106">
        <ele>749</ele>
        <time>2014-04-18T09:19:16Z</time>
      </trkpt>
      <trkpt lat="43.96708" lon="5.40122">
        <ele>749.49</ele>
        <time>2014-04-18T09:19:27Z</time>
      </trkpt>
      <trkpt lat="43.96715" lon="5.40144">
        <ele>749.97</ele>
        <time>2014-04-18T09:19:41Z</time>
      </trkpt>
      <trkpt lat="43.96717" lon="5.40163">
        <ele>749.49</ele>
        <time>2014-04-18T09:19:53Z</time>
      </trkpt>
      <trkpt lat="43.96721" lon="5.4018">
        <ele>749</ele>
        <time>2014-04-18T09:20:04Z</time>
      </trkpt>
      <trkpt lat="43.96724" lon="5.40196">
        <ele>749</ele>
        <time>2014-04-18T09:20:15Z</time>
      </trkpt>
      <trkpt lat="43.96729" lon="5.40203">
        <ele>749.49</ele>
        <time>2014-04-18T09:20:26Z</time>
      </trkpt>
      <trkpt lat="43.96735" lon="5.40206">
        <ele>749.97</ele>
        <time>2014-04-18T09:20:32Z</time>
      </trkpt>
      <trkpt lat="43.96747" lon="5.40211">
        <ele>750.93</ele>
        <time>2014-04-18T09:20:43Z</time>
      </trkpt>
      <trkpt lat="43.96748" lon="5.40211">
        <ele>750.93</ele>
        <time>2014-04-18T09:20:44Z</time>
      </trkpt>
      <trkpt lat="43.9676" lon="5.40208">
        <ele>752.85</ele>
        <time>2014-04-18T09:20:56Z</time>
      </trkpt>
      <trkpt lat="43.96764" lon="5.40206">
        <ele>753.33</ele>
        <time>2014-04-18T09:21:00Z</time>
      </trkpt>
      <trkpt lat="43.96769" lon="5.40206">
        <ele>754.29</ele>
        <time>2014-04-18T09:21:05Z</time>
      </trkpt>
      <trkpt lat="43.96778" lon="5.40203">
        <ele>755.73</ele>
        <time>2014-04-18T09:21:17Z</time>
      </trkpt>
      <trkpt lat="43.96779" lon="5.40201">
        <ele>756.69</ele>
        <time>2014-04-18T09:21:26Z</time>
      </trkpt>
      <trkpt lat="43.96783" lon="5.40203">
        <ele>756.69</ele>
        <time>2014-04-18T09:21:35Z</time>
      </trkpt>
      <trkpt lat="43.96782" lon="5.40201">
        <ele>756.69</ele>
        <time>2014-04-18T09:21:44Z</time>
      </trkpt>
      <trkpt lat="43.96776" lon="5.40202">
        <ele>755.73</ele>
        <time>2014-04-18T09:21:52Z</time>
      </trkpt>
      <trkpt lat="43.96765" lon="5.40206">
        <ele>753.81</ele>
        <time>2014-04-18T09:22:04Z</time>
      </trkpt>
      <trkpt lat="43.96756" lon="5.40208">
        <ele>752.37</ele>
        <time>2014-04-18T09:22:15Z</time>
      </trkpt>
      <trkpt lat="43.96755" lon="5.40209">
        <ele>752.37</ele>
        <time>2014-04-18T09:22:16Z</time>
      </trkpt>
      <trkpt lat="43.96751" lon="5.40212">
        <ele>751.41</ele>
        <time>2014-04-18T09:22:20Z</time>
      </trkpt>
      <trkpt lat="43.96748" lon="5.40216">
        <ele>751.41</ele>
        <time>2014-04-18T09:22:24Z</time>
      </trkpt>
      <trkpt lat="43.96736" lon="5.40204">
        <ele>749.97</ele>
        <time>2014-04-18T09:22:36Z</time>
      </trkpt>
      <trkpt lat="43.96735" lon="5.40203">
        <ele>749.97</ele>
        <time>2014-04-18T09:22:38Z</time>
      </trkpt>
      <trkpt lat="43.96725" lon="5.40198">
        <ele>749.49</ele>
        <time>2014-04-18T09:22:48Z</time>
      </trkpt>
      <trkpt lat="43.96719" lon="5.40195">
        <ele>749</ele>
        <time>2014-04-18T09:22:59Z</time>
      </trkpt>
      <trkpt lat="43.96719" lon="5.40194">
        <ele>749</ele>
        <time>2014-04-18T09:23:00Z</time>
      </trkpt>
      <trkpt lat="43.96721" lon="5.40191">
        <ele>749</ele>
        <time>2014-04-18T09:23:03Z</time>
      </trkpt>
      <trkpt lat="43.96722" lon="5.40188">
        <ele>749</ele>
        <time>2014-04-18T09:23:06Z</time>
      </trkpt>
      <trkpt lat="43.96718" lon="5.4017">
        <ele>749.49</ele>
        <time>2014-04-18T09:23:17Z</time>
      </trkpt>
      <trkpt lat="43.96714" lon="5.4015">
        <ele>749.49</ele>
        <time>2014-04-18T09:23:30Z</time>
      </trkpt>
      <trkpt lat="43.9671" lon="5.40131">
        <ele>749.49</ele>
        <time>2014-04-18T09:23:42Z</time>
      </trkpt>
      <trkpt lat="43.96709" lon="5.40128">
        <ele>749.97</ele>
        <time>2014-04-18T09:23:44Z</time>
      </trkpt>
      <trkpt lat="43.96704" lon="5.40109">
        <ele>749.49</ele>
        <time>2014-04-18T09:23:56Z</time>
      </trkpt>
      <trkpt lat="43.96695" lon="5.40093">
        <ele>748.52</ele>
        <time>2014-04-18T09:24:09Z</time>
      </trkpt>
      <trkpt lat="43.96693" lon="5.40091">
        <ele>748.52</ele>
        <time>2014-04-18T09:24:13Z</time>
      </trkpt>
      <trkpt lat="43.96697" lon="5.40081">
        <ele>748.52</ele>
        <time>2014-04-18T09:24:23Z</time>
      </trkpt>
      <trkpt lat="43.96701" lon="5.40087">
        <ele>749</ele>
        <time>2014-04-18T09:24:32Z</time>
      </trkpt>
      <trkpt lat="43.96702" lon="5.40089">
        <ele>749.49</ele>
        <time>2014-04-18T09:24:40Z</time>
      </trkpt>
      <trkpt lat="43.96698" lon="5.40081">
        <ele>748.52</ele>
        <time>2014-04-18T09:24:49Z</time>
      </trkpt>
      <trkpt lat="43.96698" lon="5.40078">
        <ele>748.52</ele>
        <time>2014-04-18T09:24:51Z</time>
      </trkpt>
      <trkpt lat="43.96702" lon="5.40069">
        <ele>749</ele>
        <time>2014-04-18T09:25:01Z</time>
      </trkpt>
      <trkpt lat="43.96708" lon="5.40056">
        <ele>749.49</ele>
        <time>2014-04-18T09:25:14Z</time>
      </trkpt>
      <trkpt lat="43.96713" lon="5.40045">
        <ele>749.97</ele>
        <time>2014-04-18T09:25:25Z</time>
      </trkpt>
      <trkpt lat="43.96719" lon="5.4003">
        <ele>750.45</ele>
        <time>2014-04-18T09:25:37Z</time>
      </trkpt>
      <trkpt lat="43.96726" lon="5.40016">
        <ele>750.45</ele>
        <time>2014-04-18T09:25:49Z</time>
      </trkpt>
      <trkpt lat="43.96733" lon="5.40002">
        <ele>750.93</ele>
        <time>2014-04-18T09:26:00Z</time>
      </trkpt>
      <trkpt lat="43.96734" lon="5.39999">
        <ele>750.93</ele>
        <time>2014-04-18T09:26:02Z</time>
      </trkpt>
      <trkpt lat="43.96741" lon="5.39987">
        <ele>751.89</ele>
        <time>2014-04-18T09:26:13Z</time>
      </trkpt>
      <trkpt lat="43.96747" lon="5.39968">
        <ele>751.89</ele>
        <time>2014-04-18T09:26:26Z</time>
      </trkpt>
      <trkpt lat="43.9675" lon="5.39959">
        <ele>751.89</ele>
        <time>2014-04-18T09:26:37Z</time>
      </trkpt>
      <trkpt lat="43.96751" lon="5.39953">
        <ele>752.37</ele>
        <time>2014-04-18T09:26:41Z</time>
      </trkpt>
      <trkpt lat="43.96757" lon="5.39943">
        <ele>752.37</ele>
        <time>2014-04-18T09:26:49Z</time>
      </trkpt>
      <trkpt lat="43.96767" lon="5.39925">
        <ele>751.89</ele>
        <time>2014-04-18T09:27:02Z</time>
      </trkpt>
      <trkpt lat="43.96776" lon="5.39917">
        <ele>752.37</ele>
        <time>2014-04-18T09:27:12Z</time>
      </trkpt>
      <trkpt lat="43.96779" lon="5.39916">
        <ele>752.37</ele>
        <time>2014-04-18T09:27:25Z</time>
      </trkpt>
      <trkpt lat="43.96788" lon="5.39919">
        <ele>754.29</ele>
        <time>2014-04-18T09:27:36Z</time>
      </trkpt>
      <trkpt lat="43.96791" lon="5.3992">
        <ele>754.29</ele>
        <time>2014-04-18T09:27:38Z</time>
      </trkpt>
      <trkpt lat="43.96796" lon="5.39914">
        <ele>755.25</ele>
        <time>2014-04-18T09:27:49Z</time>
      </trkpt>
      <trkpt lat="43.96796" lon="5.39913">
        <ele>755.25</ele>
        <time>2014-04-18T09:27:55Z</time>
      </trkpt>
      <trkpt lat="43.96798" lon="5.39915">
        <ele>755.25</ele>
        <time>2014-04-18T09:27:57Z</time>
      </trkpt>
      <trkpt lat="43.9681" lon="5.39919">
        <ele>756.69</ele>
        <time>2014-04-18T09:28:09Z</time>
      </trkpt>
      <trkpt lat="43.9682" lon="5.39922">
        <ele>758.14</ele>
        <time>2014-04-18T09:28:20Z</time>
      </trkpt>
      <trkpt lat="43.96832" lon="5.39926">
        <ele>760.06</ele>
        <time>2014-04-18T09:28:32Z</time>
      </trkpt>
      <trkpt lat="43.96833" lon="5.39926">
        <ele>760.06</ele>
        <time>2014-04-18T09:28:33Z</time>
      </trkpt>
      <trkpt lat="43.96846" lon="5.3993">
        <ele>761.5</ele>
        <time>2014-04-18T09:28:46Z</time>
      </trkpt>
      <trkpt lat="43.96858" lon="5.39935">
        <ele>762.94</ele>
        <time>2014-04-18T09:28:58Z</time>
      </trkpt>
      <trkpt lat="43.96864" lon="5.39938">
        <ele>763.9</ele>
        <time>2014-04-18T09:29:04Z</time>
      </trkpt>
      <trkpt lat="43.96878" lon="5.39938">
        <ele>765.83</ele>
        <time>2014-04-18T09:29:17Z</time>
      </trkpt>
      <trkpt lat="43.96888" lon="5.39939">
        <ele>767.27</ele>
        <time>2014-04-18T09:29:28Z</time>
      </trkpt>
      <trkpt lat="43.96899" lon="5.39939">
        <ele>768.71</ele>
        <time>2014-04-18T09:29:39Z</time>
      </trkpt>
      <trkpt lat="43.96906" lon="5.39942">
        <ele>770.15</ele>
        <time>2014-04-18T09:29:48Z</time>
      </trkpt>
      <trkpt lat="43.96916" lon="5.39946">
        <ele>772.08</ele>
        <time>2014-04-18T09:29:59Z</time>
      </trkpt>
      <trkpt lat="43.96927" lon="5.39952">
        <ele>774</ele>
        <time>2014-04-18T09:30:12Z</time>
      </trkpt>
      <trkpt lat="43.96936" lon="5.39954">
        <ele>775.44</ele>
        <time>2014-04-18T09:30:24Z</time>
      </trkpt>
      <trkpt lat="43.96946" lon="5.39954">
        <ele>776.88</ele>
        <time>2014-04-18T09:30:35Z</time>
      </trkpt>
      <trkpt lat="43.96955" lon="5.39956">
        <ele>778.32</ele>
        <time>2014-04-18T09:30:45Z</time>
      </trkpt>
      <trkpt lat="43.96965" lon="5.39958">
        <ele>779.77</ele>
        <time>2014-04-18T09:30:57Z</time>
      </trkpt>
      <trkpt lat="43.96972" lon="5.39958">
        <ele>780.73</ele>
        <time>2014-04-18T09:31:06Z</time>
      </trkpt>
      <trkpt lat="43.96979" lon="5.3996">
        <ele>782.65</ele>
        <time>2014-04-18T09:31:15Z</time>
      </trkpt>
      <trkpt lat="43.96988" lon="5.39963">
        <ele>784.09</ele>
        <time>2014-04-18T09:31:25Z</time>
      </trkpt>
      <trkpt lat="43.96997" lon="5.39964">
        <ele>785.53</ele>
        <time>2014-04-18T09:31:37Z</time>
      </trkpt>
      <trkpt lat="43.97006" lon="5.39966">
        <ele>786.98</ele>
        <time>2014-04-18T09:31:49Z</time>
      </trkpt>
      <trkpt lat="43.97015" lon="5.39967">
        <ele>787.94</ele>
        <time>2014-04-18T09:31:59Z</time>
      </trkpt>
      <trkpt lat="43.97025" lon="5.3997">
        <ele>789.38</ele>
        <time>2014-04-18T09:32:10Z</time>
      </trkpt>
      <trkpt lat="43.97031" lon="5.39972">
        <ele>790.34</ele>
        <time>2014-04-18T09:32:22Z</time>
      </trkpt>
      <trkpt lat="43.97032" lon="5.3997">
        <ele>790.34</ele>
        <time>2014-04-18T09:32:43Z</time>
      </trkpt>
      <trkpt lat="43.97033" lon="5.3997">
        <ele>790.34</ele>
        <time>2014-04-18T09:33:09Z</time>
      </trkpt>
      <trkpt lat="43.97033" lon="5.3997">
        <ele>790.34</ele>
        <time>2014-04-18T09:33:31Z</time>
      </trkpt>
      <trkpt lat="43.97035" lon="5.39969">
        <ele>790.82</ele>
        <time>2014-04-18T09:33:41Z</time>
      </trkpt>
      <trkpt lat="43.97035" lon="5.39974">
        <ele>790.82</ele>
        <time>2014-04-18T09:33:49Z</time>
      </trkpt>
      <trkpt lat="43.97036" lon="5.39976">
        <ele>790.82</ele>
        <time>2014-04-18T09:33:51Z</time>
      </trkpt>
      <trkpt lat="43.97038" lon="5.39984">
        <ele>791.78</ele>
        <time>2014-04-18T09:33:57Z</time>
      </trkpt>
      <trkpt lat="43.97042" lon="5.39994">
        <ele>792.74</ele>
        <time>2014-04-18T09:34:05Z</time>
      </trkpt>
      <trkpt lat="43.97047" lon="5.40006">
        <ele>793.71</ele>
        <time>2014-04-18T09:34:16Z</time>
      </trkpt>
      <trkpt lat="43.97045" lon="5.40005">
        <ele>793.71</ele>
        <time>2014-04-18T09:34:21Z</time>
      </trkpt>
      <trkpt lat="43.97043" lon="5.39995">
        <ele>792.74</ele>
        <time>2014-04-18T09:34:31Z</time>
      </trkpt>
      <trkpt lat="43.97045" lon="5.39986">
        <ele>792.26</ele>
        <time>2014-04-18T09:34:44Z</time>
      </trkpt>
      <trkpt lat="43.97053" lon="5.39978">
        <ele>792.26</ele>
        <time>2014-04-18T09:34:54Z</time>
      </trkpt>
      <trkpt lat="43.9706" lon="5.39974">
        <ele>793.22</ele>
        <time>2014-04-18T09:35:01Z</time>
      </trkpt>
      <trkpt lat="43.97071" lon="5.39977">
        <ele>794.19</ele>
        <time>2014-04-18T09:35:12Z</time>
      </trkpt>
      <trkpt lat="43.97071" lon="5.39978">
        <ele>794.67</ele>
        <time>2014-04-18T09:35:13Z</time>
      </trkpt>
      <trkpt lat="43.97082" lon="5.39983">
        <ele>795.63</ele>
        <time>2014-04-18T09:35:24Z</time>
      </trkpt>
      <trkpt lat="43.97093" lon="5.39982">
        <ele>796.59</ele>
        <time>2014-04-18T09:35:35Z</time>
      </trkpt>
      <trkpt lat="43.971" lon="5.39981">
        <ele>797.07</ele>
        <time>2014-04-18T09:35:47Z</time>
      </trkpt>
      <trkpt lat="43.971" lon="5.39982">
        <ele>797.07</ele>
        <time>2014-04-18T09:36:00Z</time>
      </trkpt>
      <trkpt lat="43.97096" lon="5.39982">
        <ele>796.59</ele>
        <time>2014-04-18T09:36:03Z</time>
      </trkpt>
      <trkpt lat="43.97092" lon="5.39987">
        <ele>796.59</ele>
        <time>2014-04-18T09:36:08Z</time>
      </trkpt>
      <trkpt lat="43.97096" lon="5.39998">
        <ele>797.55</ele>
        <time>2014-04-18T09:36:18Z</time>
      </trkpt>
      <trkpt lat="43.97108" lon="5.40008">
        <ele>799.47</ele>
        <time>2014-04-18T09:36:32Z</time>
      </trkpt>
      <trkpt lat="43.9712" lon="5.40014">
        <ele>800.44</ele>
        <time>2014-04-18T09:36:44Z</time>
      </trkpt>
      <trkpt lat="43.97134" lon="5.40022">
        <ele>801.88</ele>
        <time>2014-04-18T09:36:58Z</time>
      </trkpt>
      <trkpt lat="43.97143" lon="5.4003">
        <ele>802.84</ele>
        <time>2014-04-18T09:37:07Z</time>
      </trkpt>
      <trkpt lat="43.97154" lon="5.40038">
        <ele>804.28</ele>
        <time>2014-04-18T09:37:19Z</time>
      </trkpt>
      <trkpt lat="43.97167" lon="5.40047">
        <ele>806.2</ele>
        <time>2014-04-18T09:37:34Z</time>
      </trkpt>
      <trkpt lat="43.97178" lon="5.40053">
        <ele>807.16</ele>
        <time>2014-04-18T09:37:46Z</time>
      </trkpt>
      <trkpt lat="43.97188" lon="5.40056">
        <ele>808.13</ele>
        <time>2014-04-18T09:37:55Z</time>
      </trkpt>
      <trkpt lat="43.97198" lon="5.40061">
        <ele>809.09</ele>
        <time>2014-04-18T09:38:06Z</time>
      </trkpt>
      <trkpt lat="43.97211" lon="5.40062">
        <ele>810.53</ele>
        <time>2014-04-18T09:38:18Z</time>
      </trkpt>
      <trkpt lat="43.97216" lon="5.4006">
        <ele>810.53</ele>
        <time>2014-04-18T09:38:23Z</time>
      </trkpt>
      <trkpt lat="43.97227" lon="5.40057">
        <ele>811.49</ele>
        <time>2014-04-18T09:38:34Z</time>
      </trkpt>
      <trkpt lat="43.97238" lon="5.40053">
        <ele>812.45</ele>
        <time>2014-04-18T09:38:44Z</time>
      </trkpt>
      <trkpt lat="43.97248" lon="5.40048">
        <ele>812.45</ele>
        <time>2014-04-18T09:38:54Z</time>
      </trkpt>
      <trkpt lat="43.97256" lon="5.40044">
        <ele>812.45</ele>
        <time>2014-04-18T09:39:02Z</time>
      </trkpt>
      <trkpt lat="43.9726" lon="5.40043">
        <ele>812.45</ele>
        <time>2014-04-18T09:39:06Z</time>
      </trkpt>
      <trkpt lat="43.9727" lon="5.40039">
        <ele>812.93</ele>
        <time>2014-04-18T09:39:16Z</time>
      </trkpt>
      <trkpt lat="43.97279" lon="5.40035">
        <ele>812.93</ele>
        <time>2014-04-18T09:39:24Z</time>
      </trkpt>
      <trkpt lat="43.97289" lon="5.40026">
        <ele>813.89</ele>
        <time>2014-04-18T09:39:31Z</time>
      </trkpt>
      <trkpt lat="43.97291" lon="5.40023">
        <ele>813.89</ele>
        <time>2014-04-18T09:39:33Z</time>
      </trkpt>
      <trkpt lat="43.97299" lon="5.40005">
        <ele>814.85</ele>
        <time>2014-04-18T09:39:46Z</time>
      </trkpt>
      <trkpt lat="43.97307" lon="5.39992">
        <ele>815.34</ele>
        <time>2014-04-18T09:39:56Z</time>
      </trkpt>
      <trkpt lat="43.97309" lon="5.3999">
        <ele>815.82</ele>
        <time>2014-04-18T09:39:58Z</time>
      </trkpt>
      <trkpt lat="43.9732" lon="5.3998">
        <ele>816.78</ele>
        <time>2014-04-18T09:40:09Z</time>
      </trkpt>
      <trkpt lat="43.97333" lon="5.39977">
        <ele>818.22</ele>
        <time>2014-04-18T09:40:21Z</time>
      </trkpt>
      <trkpt lat="43.97348" lon="5.39975">
        <ele>820.14</ele>
        <time>2014-04-18T09:40:34Z</time>
      </trkpt>
      <trkpt lat="43.97359" lon="5.39974">
        <ele>821.1</ele>
        <time>2014-04-18T09:40:44Z</time>
      </trkpt>
      <trkpt lat="43.97362" lon="5.39973">
        <ele>821.1</ele>
        <time>2014-04-18T09:40:47Z</time>
      </trkpt>
      <trkpt lat="43.97377" lon="5.39972">
        <ele>822.55</ele>
        <time>2014-04-18T09:41:00Z</time>
      </trkpt>
      <trkpt lat="43.97388" lon="5.39969">
        <ele>824.47</ele>
        <time>2014-04-18T09:41:12Z</time>
      </trkpt>
      <trkpt lat="43.97401" lon="5.39965">
        <ele>824.95</ele>
        <time>2014-04-18T09:41:23Z</time>
      </trkpt>
      <trkpt lat="43.97413" lon="5.39961">
        <ele>826.39</ele>
        <time>2014-04-18T09:41:35Z</time>
      </trkpt>
      <trkpt lat="43.97427" lon="5.39959">
        <ele>827.83</ele>
        <time>2014-04-18T09:41:48Z</time>
      </trkpt>
      <trkpt lat="43.97439" lon="5.39956">
        <ele>828.79</ele>
        <time>2014-04-18T09:41:59Z</time>
      </trkpt>
      <trkpt lat="43.97452" lon="5.39953">
        <ele>829.76</ele>
        <time>2014-04-18T09:42:10Z</time>
      </trkpt>
      <trkpt lat="43.97466" lon="5.39948">
        <ele>830.72</ele>
        <time>2014-04-18T09:42:23Z</time>
      </trkpt>
      <trkpt lat="43.97477" lon="5.39945">
        <ele>831.68</ele>
        <time>2014-04-18T09:42:34Z</time>
      </trkpt>
      <trkpt lat="43.97481" lon="5.39942">
        <ele>831.68</ele>
        <time>2014-04-18T09:42:38Z</time>
      </trkpt>
      <trkpt lat="43.97485" lon="5.39938">
        <ele>832.16</ele>
        <time>2014-04-18T09:42:49Z</time>
      </trkpt>
      <trkpt lat="43.97485" lon="5.39938">
        <ele>832.16</ele>
        <time>2014-04-18T09:43:12Z</time>
      </trkpt>
      <trkpt lat="43.97486" lon="5.39939">
        <ele>832.64</ele>
        <time>2014-04-18T09:43:13Z</time>
      </trkpt>
      <trkpt lat="43.97494" lon="5.39946">
        <ele>833.6</ele>
        <time>2014-04-18T09:43:24Z</time>
      </trkpt>
      <trkpt lat="43.975" lon="5.39947">
        <ele>834.08</ele>
        <time>2014-04-18T09:43:36Z</time>
      </trkpt>
      <trkpt lat="43.97509" lon="5.39952">
        <ele>835.52</ele>
        <time>2014-04-18T09:43:46Z</time>
      </trkpt>
      <trkpt lat="43.97519" lon="5.39958">
        <ele>837.45</ele>
        <time>2014-04-18T09:43:58Z</time>
      </trkpt>
      <trkpt lat="43.97529" lon="5.39962">
        <ele>839.37</ele>
        <time>2014-04-18T09:44:09Z</time>
      </trkpt>
      <trkpt lat="43.97539" lon="5.39968">
        <ele>841.29</ele>
        <time>2014-04-18T09:44:21Z</time>
      </trkpt>
      <trkpt lat="43.97551" lon="5.39979">
        <ele>843.21</ele>
        <time>2014-04-18T09:44:36Z</time>
      </trkpt>
      <trkpt lat="43.97552" lon="5.3998">
        <ele>843.69</ele>
        <time>2014-04-18T09:44:37Z</time>
      </trkpt>
      <trkpt lat="43.97562" lon="5.39986">
        <ele>845.62</ele>
        <time>2014-04-18T09:44:49Z</time>
      </trkpt>
      <trkpt lat="43.97571" lon="5.39996">
        <ele>847.06</ele>
        <time>2014-04-18T09:45:03Z</time>
      </trkpt>
      <trkpt lat="43.97579" lon="5.40002">
        <ele>848.5</ele>
        <time>2014-04-18T09:45:14Z</time>
      </trkpt>
      <trkpt lat="43.97586" lon="5.4001">
        <ele>849.94</ele>
        <time>2014-04-18T09:45:25Z</time>
      </trkpt>
      <trkpt lat="43.97593" lon="5.40019">
        <ele>851.38</ele>
        <time>2014-04-18T09:45:36Z</time>
      </trkpt>
      <trkpt lat="43.97597" lon="5.40029">
        <ele>853.31</ele>
        <time>2014-04-18T09:45:47Z</time>
      </trkpt>
      <trkpt lat="43.97604" lon="5.40038">
        <ele>854.75</ele>
        <time>2014-04-18T09:45:57Z</time>
      </trkpt>
      <trkpt lat="43.97614" lon="5.40044">
        <ele>856.67</ele>
        <time>2014-04-18T09:46:10Z</time>
      </trkpt>
      <trkpt lat="43.97618" lon="5.40045">
        <ele>857.15</ele>
        <time>2014-04-18T09:46:24Z</time>
      </trkpt>
      <trkpt lat="43.97622" lon="5.40044">
        <ele>858.11</ele>
        <time>2014-04-18T09:46:36Z</time>
      </trkpt>
      <trkpt lat="43.97631" lon="5.40043">
        <ele>858.59</ele>
        <time>2014-04-18T09:46:45Z</time>
      </trkpt>
      <trkpt lat="43.97643" lon="5.40045">
        <ele>860.04</ele>
        <time>2014-04-18T09:46:57Z</time>
      </trkpt>
      <trkpt lat="43.97656" lon="5.4005">
        <ele>861.96</ele>
        <time>2014-04-18T09:47:09Z</time>
      </trkpt>
      <trkpt lat="43.97667" lon="5.40056">
        <ele>862.92</ele>
        <time>2014-04-18T09:47:21Z</time>
      </trkpt>
      <trkpt lat="43.97676" lon="5.4006">
        <ele>863.88</ele>
        <time>2014-04-18T09:47:31Z</time>
      </trkpt>
      <trkpt lat="43.97678" lon="5.40061">
        <ele>864.36</ele>
        <time>2014-04-18T09:47:33Z</time>
      </trkpt>
      <trkpt lat="43.97692" lon="5.40067">
        <ele>866.29</ele>
        <time>2014-04-18T09:47:47Z</time>
      </trkpt>
      <trkpt lat="43.97702" lon="5.40071">
        <ele>867.73</ele>
        <time>2014-04-18T09:47:57Z</time>
      </trkpt>
      <trkpt lat="43.97711" lon="5.40076">
        <ele>869.17</ele>
        <time>2014-04-18T09:48:07Z</time>
      </trkpt>
      <trkpt lat="43.97714" lon="5.40076">
        <ele>870.13</ele>
        <time>2014-04-18T09:48:18Z</time>
      </trkpt>
      <trkpt lat="43.97723" lon="5.4008">
        <ele>871.57</ele>
        <time>2014-04-18T09:48:30Z</time>
      </trkpt>
      <trkpt lat="43.97731" lon="5.40085">
        <ele>873.98</ele>
        <time>2014-04-18T09:48:42Z</time>
      </trkpt>
      <trkpt lat="43.9774" lon="5.40088">
        <ele>875.42</ele>
        <time>2014-04-18T09:48:53Z</time>
      </trkpt>
      <trkpt lat="43.97752" lon="5.40092">
        <ele>876.86</ele>
        <time>2014-04-18T09:49:05Z</time>
      </trkpt>
      <trkpt lat="43.97759" lon="5.40092">
        <ele>877.82</ele>
        <time>2014-04-18T09:49:14Z</time>
      </trkpt>
      <trkpt lat="43.97767" lon="5.40096">
        <ele>879.26</ele>
        <time>2014-04-18T09:49:24Z</time>
      </trkpt>
      <trkpt lat="43.97775" lon="5.40099">
        <ele>880.22</ele>
        <time>2014-04-18T09:49:34Z</time>
      </trkpt>
      <trkpt lat="43.97784" lon="5.40103">
        <ele>881.67</ele>
        <time>2014-04-18T09:49:45Z</time>
      </trkpt>
      <trkpt lat="43.97794" lon="5.40109">
        <ele>883.59</ele>
        <time>2014-04-18T09:49:58Z</time>
      </trkpt>
      <trkpt lat="43.97805" lon="5.40114">
        <ele>885.03</ele>
        <time>2014-04-18T09:50:08Z</time>
      </trkpt>
      <trkpt lat="43.97807" lon="5.40117">
        <ele>885.51</ele>
        <time>2014-04-18T09:50:12Z</time>
      </trkpt>
      <trkpt lat="43.97814" lon="5.40119">
        <ele>886.47</ele>
        <time>2014-04-18T09:50:20Z</time>
      </trkpt>
      <trkpt lat="43.97826" lon="5.40123">
        <ele>887.43</ele>
        <time>2014-04-18T09:50:33Z</time>
      </trkpt>
      <trkpt lat="43.97834" lon="5.40127">
        <ele>888.4</ele>
        <time>2014-04-18T09:50:42Z</time>
      </trkpt>
      <trkpt lat="43.97844" lon="5.40133">
        <ele>890.32</ele>
        <time>2014-04-18T09:50:53Z</time>
      </trkpt>
      <trkpt lat="43.97848" lon="5.40134">
        <ele>890.32</ele>
        <time>2014-04-18T09:50:57Z</time>
      </trkpt>
      <trkpt lat="43.9786" lon="5.40138">
        <ele>891.76</ele>
        <time>2014-04-18T09:51:09Z</time>
      </trkpt>
      <trkpt lat="43.97865" lon="5.40139">
        <ele>892.24</ele>
        <time>2014-04-18T09:51:19Z</time>
      </trkpt>
      <trkpt lat="43.97876" lon="5.40142">
        <ele>893.2</ele>
        <time>2014-04-18T09:51:29Z</time>
      </trkpt>
      <trkpt lat="43.97889" lon="5.40148">
        <ele>894.64</ele>
        <time>2014-04-18T09:51:43Z</time>
      </trkpt>
      <trkpt lat="43.97892" lon="5.40148">
        <ele>894.64</ele>
        <time>2014-04-18T09:51:45Z</time>
      </trkpt>
      <trkpt lat="43.97904" lon="5.40151">
        <ele>895.61</ele>
        <time>2014-04-18T09:51:56Z</time>
      </trkpt>
      <trkpt lat="43.97917" lon="5.40152">
        <ele>896.57</ele>
        <time>2014-04-18T09:52:07Z</time>
      </trkpt>
      <trkpt lat="43.97927" lon="5.40153">
        <ele>897.05</ele>
        <time>2014-04-18T09:52:17Z</time>
      </trkpt>
      <trkpt lat="43.97931" lon="5.40153">
        <ele>897.53</ele>
        <time>2014-04-18T09:52:20Z</time>
      </trkpt>
      <trkpt lat="43.97944" lon="5.40156">
        <ele>898.49</ele>
        <time>2014-04-18T09:52:31Z</time>
      </trkpt>
      <trkpt lat="43.97957" lon="5.40157">
        <ele>898.97</ele>
        <time>2014-04-18T09:52:42Z</time>
      </trkpt>
      <trkpt lat="43.97973" lon="5.40156">
        <ele>898.49</ele>
        <time>2014-04-18T09:52:55Z</time>
      </trkpt>
      <trkpt lat="43.97976" lon="5.40156">
        <ele>898.49</ele>
        <time>2014-04-18T09:52:58Z</time>
      </trkpt>
      <trkpt lat="43.97979" lon="5.40155">
        <ele>898.01</ele>
        <time>2014-04-18T09:53:01Z</time>
      </trkpt>
      <trkpt lat="43.97994" lon="5.40154">
        <ele>898.49</ele>
        <time>2014-04-18T09:53:12Z</time>
      </trkpt>
      <trkpt lat="43.98006" lon="5.40152">
        <ele>898.01</ele>
        <time>2014-04-18T09:53:24Z</time>
      </trkpt>
      <trkpt lat="43.98019" lon="5.40148">
        <ele>897.05</ele>
        <time>2014-04-18T09:53:34Z</time>
      </trkpt>
      <trkpt lat="43.98027" lon="5.40144">
        <ele>896.09</ele>
        <time>2014-04-18T09:53:45Z</time>
      </trkpt>
      <trkpt lat="43.98033" lon="5.40142">
        <ele>896.09</ele>
        <time>2014-04-18T09:53:50Z</time>
      </trkpt>
      <trkpt lat="43.98036" lon="5.40141">
        <ele>896.09</ele>
        <time>2014-04-18T09:53:52Z</time>
      </trkpt>
      <trkpt lat="43.98057" lon="5.40131">
        <ele>896.09</ele>
        <time>2014-04-18T09:54:06Z</time>
      </trkpt>
      <trkpt lat="43.98066" lon="5.40124">
        <ele>896.57</ele>
        <time>2014-04-18T09:54:14Z</time>
      </trkpt>
      <trkpt lat="43.9807" lon="5.40123">
        <ele>896.57</ele>
        <time>2014-04-18T09:54:17Z</time>
      </trkpt>
      <trkpt lat="43.98078" lon="5.40119">
        <ele>896.57</ele>
        <time>2014-04-18T09:54:23Z</time>
      </trkpt>
      <trkpt lat="43.9809" lon="5.40111">
        <ele>896.57</ele>
        <time>2014-04-18T09:54:34Z</time>
      </trkpt>
      <trkpt lat="43.981" lon="5.40102">
        <ele>896.09</ele>
        <time>2014-04-18T09:54:45Z</time>
      </trkpt>
      <trkpt lat="43.98106" lon="5.40097">
        <ele>896.09</ele>
        <time>2014-04-18T09:54:49Z</time>
      </trkpt>
      <trkpt lat="43.98119" lon="5.4009">
        <ele>896.57</ele>
        <time>2014-04-18T09:55:01Z</time>
      </trkpt>
      <trkpt lat="43.98128" lon="5.4008">
        <ele>897.05</ele>
        <time>2014-04-18T09:55:12Z</time>
      </trkpt>
      <trkpt lat="43.98127" lon="5.40078">
        <ele>897.53</ele>
        <time>2014-04-18T09:55:28Z</time>
      </trkpt>
      <trkpt lat="43.9813" lon="5.40078">
        <ele>897.53</ele>
        <time>2014-04-18T09:55:37Z</time>
      </trkpt>
      <trkpt lat="43.98141" lon="5.40069">
        <ele>898.49</ele>
        <time>2014-04-18T09:55:47Z</time>
      </trkpt>
      <trkpt lat="43.98148" lon="5.40061">
        <ele>899.93</ele>
        <time>2014-04-18T09:55:57Z</time>
      </trkpt>
      <trkpt lat="43.98156" lon="5.40061">
        <ele>901.37</ele>
        <time>2014-04-18T09:56:08Z</time>
      </trkpt>
      <trkpt lat="43.98157" lon="5.40061">
        <ele>901.85</ele>
        <time>2014-04-18T09:56:26Z</time>
      </trkpt>
      <trkpt lat="43.98158" lon="5.4006">
        <ele>902.33</ele>
        <time>2014-04-18T09:56:44Z</time>
      </trkpt>
      <trkpt lat="43.9816" lon="5.40058">
        <ele>902.33</ele>
        <time>2014-04-18T09:57:00Z</time>
      </trkpt>
      <trkpt lat="43.98161" lon="5.40056">
        <ele>902.82</ele>
        <time>2014-04-18T09:57:09Z</time>
      </trkpt>
      <trkpt lat="43.98161" lon="5.40056">
        <ele>902.82</ele>
        <time>2014-04-18T09:57:29Z</time>
      </trkpt>
      <trkpt lat="43.98162" lon="5.40054">
        <ele>903.3</ele>
        <time>2014-04-18T09:57:41Z</time>
      </trkpt>
      <trkpt lat="43.98166" lon="5.4005">
        <ele>903.78</ele>
        <time>2014-04-18T09:57:52Z</time>
      </trkpt>
      <trkpt lat="43.9817" lon="5.40042">
        <ele>904.74</ele>
        <time>2014-04-18T09:58:01Z</time>
      </trkpt>
      <trkpt lat="43.98168" lon="5.40039">
        <ele>904.74</ele>
        <time>2014-04-18T09:58:12Z</time>
      </trkpt>
      <trkpt lat="43.98169" lon="5.40037">
        <ele>904.74</ele>
        <time>2014-04-18T09:58:29Z</time>
      </trkpt>
      <trkpt lat="43.98171" lon="5.40036">
        <ele>905.22</ele>
        <time>2014-04-18T09:58:44Z</time>
      </trkpt>
      <trkpt lat="43.98172" lon="5.40036">
        <ele>905.22</ele>
        <time>2014-04-18T09:59:08Z</time>
      </trkpt>
      <trkpt lat="43.98172" lon="5.40035">
        <ele>905.22</ele>
        <time>2014-04-18T09:59:18Z</time>
      </trkpt>
      <trkpt lat="43.98174" lon="5.40026">
        <ele>904.26</ele>
        <time>2014-04-18T09:59:28Z</time>
      </trkpt>
      <trkpt lat="43.98177" lon="5.40014">
        <ele>904.26</ele>
        <time>2014-04-18T09:59:40Z</time>
      </trkpt>
      <trkpt lat="43.98178" lon="5.40013">
        <ele>903.78</ele>
        <time>2014-04-18T09:59:52Z</time>
      </trkpt>
      <trkpt lat="43.98181" lon="5.40006">
        <ele>903.78</ele>
        <time>2014-04-18T10:00:03Z</time>
      </trkpt>
      <trkpt lat="43.98182" lon="5.40003">
        <ele>903.78</ele>
        <time>2014-04-18T10:00:05Z</time>
      </trkpt>
      <trkpt lat="43.98186" lon="5.39999">
        <ele>903.78</ele>
        <time>2014-04-18T10:00:09Z</time>
      </trkpt>
      <trkpt lat="43.98196" lon="5.39984">
        <ele>904.26</ele>
        <time>2014-04-18T10:00:21Z</time>
      </trkpt>
      <trkpt lat="43.98197" lon="5.39983">
        <ele>904.26</ele>
        <time>2014-04-18T10:00:22Z</time>
      </trkpt>
      <trkpt lat="43.982" lon="5.3998">
        <ele>904.26</ele>
        <time>2014-04-18T10:00:25Z</time>
      </trkpt>
      <trkpt lat="43.98209" lon="5.39965">
        <ele>904.26</ele>
        <time>2014-04-18T10:00:36Z</time>
      </trkpt>
      <trkpt lat="43.98212" lon="5.3996">
        <ele>904.26</ele>
        <time>2014-04-18T10:00:41Z</time>
      </trkpt>
      <trkpt lat="43.98217" lon="5.39953">
        <ele>903.78</ele>
        <time>2014-04-18T10:00:46Z</time>
      </trkpt>
      <trkpt lat="43.98219" lon="5.39948">
        <ele>903.78</ele>
        <time>2014-04-18T10:00:50Z</time>
      </trkpt>
      <trkpt lat="43.98221" lon="5.39945">
        <ele>904.26</ele>
        <time>2014-04-18T10:00:53Z</time>
      </trkpt>
      <trkpt lat="43.98232" lon="5.39935">
        <ele>904.26</ele>
        <time>2014-04-18T10:01:04Z</time>
      </trkpt>
      <trkpt lat="43.98245" lon="5.39927">
        <ele>904.74</ele>
        <time>2014-04-18T10:01:15Z</time>
      </trkpt>
      <trkpt lat="43.98257" lon="5.39918">
        <ele>905.7</ele>
        <time>2014-04-18T10:01:25Z</time>
      </trkpt>
      <trkpt lat="43.9826" lon="5.39916">
        <ele>906.18</ele>
        <time>2014-04-18T10:01:28Z</time>
      </trkpt>
      <trkpt lat="43.98273" lon="5.39906">
        <ele>907.14</ele>
        <time>2014-04-18T10:01:41Z</time>
      </trkpt>
      <trkpt lat="43.98275" lon="5.39904">
        <ele>907.14</ele>
        <time>2014-04-18T10:01:43Z</time>
      </trkpt>
      <trkpt lat="43.9828" lon="5.39896">
        <ele>906.66</ele>
        <time>2014-04-18T10:01:50Z</time>
      </trkpt>
      <trkpt lat="43.98286" lon="5.3989">
        <ele>906.66</ele>
        <time>2014-04-18T10:01:56Z</time>
      </trkpt>
      <trkpt lat="43.98295" lon="5.39876">
        <ele>906.66</ele>
        <time>2014-04-18T10:02:06Z</time>
      </trkpt>
      <trkpt lat="43.98303" lon="5.39865">
        <ele>906.18</ele>
        <time>2014-04-18T10:02:14Z</time>
      </trkpt>
      <trkpt lat="43.98317" lon="5.39853">
        <ele>905.7</ele>
        <time>2014-04-18T10:02:27Z</time>
      </trkpt>
      <trkpt lat="43.98327" lon="5.39843">
        <ele>905.22</ele>
        <time>2014-04-18T10:02:38Z</time>
      </trkpt>
      <trkpt lat="43.98338" lon="5.39832">
        <ele>904.74</ele>
        <time>2014-04-18T10:02:46Z</time>
      </trkpt>
      <trkpt lat="43.98352" lon="5.39824">
        <ele>906.18</ele>
        <time>2014-04-18T10:02:57Z</time>
      </trkpt>
      <trkpt lat="43.98365" lon="5.39813">
        <ele>905.22</ele>
        <time>2014-04-18T10:03:09Z</time>
      </trkpt>
      <trkpt lat="43.98366" lon="5.39812">
        <ele>905.22</ele>
        <time>2014-04-18T10:03:10Z</time>
      </trkpt>
      <trkpt lat="43.98379" lon="5.398">
        <ele>904.74</ele>
        <time>2014-04-18T10:03:21Z</time>
      </trkpt>
      <trkpt lat="43.98389" lon="5.39791">
        <ele>904.74</ele>
        <time>2014-04-18T10:03:32Z</time>
      </trkpt>
      <trkpt lat="43.98392" lon="5.39789">
        <ele>904.74</ele>
        <time>2014-04-18T10:03:34Z</time>
      </trkpt>
      <trkpt lat="43.98408" lon="5.39778">
        <ele>904.26</ele>
        <time>2014-04-18T10:03:47Z</time>
      </trkpt>
      <trkpt lat="43.98423" lon="5.39766">
        <ele>904.74</ele>
        <time>2014-04-18T10:03:58Z</time>
      </trkpt>
      <trkpt lat="43.98432" lon="5.39759">
        <ele>903.78</ele>
        <time>2014-04-18T10:04:06Z</time>
      </trkpt>
      <trkpt lat="43.98444" lon="5.3975">
        <ele>904.74</ele>
        <time>2014-04-18T10:04:18Z</time>
      </trkpt>
      <trkpt lat="43.98459" lon="5.39744">
        <ele>906.18</ele>
        <time>2014-04-18T10:04:31Z</time>
      </trkpt>
      <trkpt lat="43.98472" lon="5.39738">
        <ele>906.66</ele>
        <time>2014-04-18T10:04:43Z</time>
      </trkpt>
      <trkpt lat="43.98476" lon="5.39735">
        <ele>907.14</ele>
        <time>2014-04-18T10:04:49Z</time>
      </trkpt>
      <trkpt lat="43.98481" lon="5.39731">
        <ele>907.14</ele>
        <time>2014-04-18T10:04:53Z</time>
      </trkpt>
      <trkpt lat="43.98491" lon="5.39723">
        <ele>907.62</ele>
        <time>2014-04-18T10:05:02Z</time>
      </trkpt>
      <trkpt lat="43.98493" lon="5.39722">
        <ele>907.14</ele>
        <time>2014-04-18T10:05:04Z</time>
      </trkpt>
      <trkpt lat="43.98507" lon="5.39717">
        <ele>907.62</ele>
        <time>2014-04-18T10:05:16Z</time>
      </trkpt>
      <trkpt lat="43.98516" lon="5.39714">
        <ele>908.1</ele>
        <time>2014-04-18T10:05:26Z</time>
      </trkpt>
      <trkpt lat="43.98526" lon="5.3971">
        <ele>908.1</ele>
        <time>2014-04-18T10:05:37Z</time>
      </trkpt>
      <trkpt lat="43.98538" lon="5.39707">
        <ele>910.51</ele>
        <time>2014-04-18T10:05:49Z</time>
      </trkpt>
      <trkpt lat="43.98551" lon="5.39706">
        <ele>911.47</ele>
        <time>2014-04-18T10:06:00Z</time>
      </trkpt>
      <trkpt lat="43.98566" lon="5.39704">
        <ele>911.95</ele>
        <time>2014-04-18T10:06:10Z</time>
      </trkpt>
      <trkpt lat="43.98579" lon="5.39706">
        <ele>912.43</ele>
        <time>2014-04-18T10:06:21Z</time>
      </trkpt>
      <trkpt lat="43.98594" lon="5.39705">
        <ele>913.87</ele>
        <time>2014-04-18T10:06:32Z</time>
      </trkpt>
      <trkpt lat="43.98607" lon="5.39705">
        <ele>915.79</ele>
        <time>2014-04-18T10:06:42Z</time>
      </trkpt>
      <trkpt lat="43.9862" lon="5.39707">
        <ele>916.27</ele>
        <time>2014-04-18T10:06:54Z</time>
      </trkpt>
      <trkpt lat="43.98624" lon="5.39707">
        <ele>916.27</ele>
        <time>2014-04-18T10:06:57Z</time>
      </trkpt>
      <trkpt lat="43.98639" lon="5.39711">
        <ele>917.24</ele>
        <time>2014-04-18T10:07:09Z</time>
      </trkpt>
      <trkpt lat="43.98642" lon="5.39713">
        <ele>917.72</ele>
        <time>2014-04-18T10:07:11Z</time>
      </trkpt>
      <trkpt lat="43.98644" lon="5.39714">
        <ele>917.72</ele>
        <time>2014-04-18T10:07:13Z</time>
      </trkpt>
      <trkpt lat="43.98654" lon="5.39717">
        <ele>918.2</ele>
        <time>2014-04-18T10:07:24Z</time>
      </trkpt>
      <trkpt lat="43.98656" lon="5.39718">
        <ele>917.72</ele>
        <time>2014-04-18T10:07:26Z</time>
      </trkpt>
      <trkpt lat="43.98659" lon="5.3972">
        <ele>918.2</ele>
        <time>2014-04-18T10:07:29Z</time>
      </trkpt>
      <trkpt lat="43.98664" lon="5.39723">
        <ele>917.72</ele>
        <time>2014-04-18T10:07:33Z</time>
      </trkpt>
      <trkpt lat="43.98678" lon="5.39731">
        <ele>917.72</ele>
        <time>2014-04-18T10:07:44Z</time>
      </trkpt>
      <trkpt lat="43.98682" lon="5.39733">
        <ele>917.24</ele>
        <time>2014-04-18T10:07:47Z</time>
      </trkpt>
      <trkpt lat="43.98686" lon="5.39741">
        <ele>918.68</ele>
        <time>2014-04-18T10:07:58Z</time>
      </trkpt>
      <trkpt lat="43.98686" lon="5.3974">
        <ele>918.2</ele>
        <time>2014-04-18T10:08:13Z</time>
      </trkpt>
      <trkpt lat="43.98686" lon="5.3974">
        <ele>918.2</ele>
        <time>2014-04-18T10:08:31Z</time>
      </trkpt>
      <trkpt lat="43.98686" lon="5.39739">
        <ele>918.2</ele>
        <time>2014-04-18T10:08:51Z</time>
      </trkpt>
      <trkpt lat="43.98685" lon="5.39739">
        <ele>918.2</ele>
        <time>2014-04-18T10:09:09Z</time>
      </trkpt>
      <trkpt lat="43.98685" lon="5.3974">
        <ele>918.68</ele>
        <time>2014-04-18T10:09:25Z</time>
      </trkpt>
      <trkpt lat="43.98684" lon="5.39739">
        <ele>917.72</ele>
        <time>2014-04-18T10:09:48Z</time>
      </trkpt>
      <trkpt lat="43.98683" lon="5.3974">
        <ele>918.68</ele>
        <time>2014-04-18T10:10:02Z</time>
      </trkpt>
      <trkpt lat="43.98684" lon="5.3974">
        <ele>918.68</ele>
        <time>2014-04-18T10:10:26Z</time>
      </trkpt>
      <trkpt lat="43.98684" lon="5.3974">
        <ele>918.68</ele>
        <time>2014-04-18T10:10:48Z</time>
      </trkpt>
      <trkpt lat="43.98684" lon="5.39741">
        <ele>918.68</ele>
        <time>2014-04-18T10:11:02Z</time>
      </trkpt>
      <trkpt lat="43.98684" lon="5.39741">
        <ele>918.68</ele>
        <time>2014-04-18T10:11:24Z</time>
      </trkpt>
      <trkpt lat="43.98684" lon="5.39742">
        <ele>918.2</ele>
        <time>2014-04-18T10:11:41Z</time>
      </trkpt>
      <trkpt lat="43.98684" lon="5.39741">
        <ele>917.72</ele>
        <time>2014-04-18T10:11:56Z</time>
      </trkpt>
      <trkpt lat="43.98685" lon="5.39738">
        <ele>918.2</ele>
        <time>2014-04-18T10:12:05Z</time>
      </trkpt>
      <trkpt lat="43.98683" lon="5.39737">
        <ele>918.2</ele>
        <time>2014-04-18T10:12:08Z</time>
      </trkpt>
      <trkpt lat="43.98674" lon="5.3973">
        <ele>918.2</ele>
        <time>2014-04-18T10:12:15Z</time>
      </trkpt>
      <trkpt lat="43.98673" lon="5.39729">
        <ele>918.2</ele>
        <time>2014-04-18T10:12:17Z</time>
      </trkpt>
      <trkpt lat="43.98671" lon="5.39728">
        <ele>918.68</ele>
        <time>2014-04-18T10:12:20Z</time>
      </trkpt>
      <trkpt lat="43.98673" lon="5.3973">
        <ele>918.2</ele>
        <time>2014-04-18T10:12:23Z</time>
      </trkpt>
      <trkpt lat="43.98687" lon="5.3974">
        <ele>918.68</ele>
        <time>2014-04-18T10:12:36Z</time>
      </trkpt>
      <trkpt lat="43.98696" lon="5.39748">
        <ele>918.2</ele>
        <time>2014-04-18T10:12:45Z</time>
      </trkpt>
      <trkpt lat="43.9871" lon="5.39756">
        <ele>918.2</ele>
        <time>2014-04-18T10:12:57Z</time>
      </trkpt>
      <trkpt lat="43.98724" lon="5.39763">
        <ele>917.24</ele>
        <time>2014-04-18T10:13:09Z</time>
      </trkpt>
      <trkpt lat="43.98728" lon="5.39765">
        <ele>917.24</ele>
        <time>2014-04-18T10:13:13Z</time>
      </trkpt>
      <trkpt lat="43.98732" lon="5.39769">
        <ele>917.72</ele>
        <time>2014-04-18T10:13:17Z</time>
      </trkpt>
      <trkpt lat="43.98743" lon="5.39778">
        <ele>919.16</ele>
        <time>2014-04-18T10:13:27Z</time>
      </trkpt>
      <trkpt lat="43.98749" lon="5.39782">
        <ele>919.64</ele>
        <time>2014-04-18T10:13:33Z</time>
      </trkpt>
      <trkpt lat="43.98766" lon="5.39792">
        <ele>922.04</ele>
        <time>2014-04-18T10:13:48Z</time>
      </trkpt>
      <trkpt lat="43.98774" lon="5.39802">
        <ele>923</ele>
        <time>2014-04-18T10:13:58Z</time>
      </trkpt>
      <trkpt lat="43.98781" lon="5.39811">
        <ele>923.96</ele>
        <time>2014-04-18T10:14:07Z</time>
      </trkpt>
      <trkpt lat="43.98789" lon="5.39825">
        <ele>924.93</ele>
        <time>2014-04-18T10:14:18Z</time>
      </trkpt>
      <trkpt lat="43.98795" lon="5.39837">
        <ele>925.89</ele>
        <time>2014-04-18T10:14:28Z</time>
      </trkpt>
      <trkpt lat="43.98797" lon="5.39842">
        <ele>925.89</ele>
        <time>2014-04-18T10:14:32Z</time>
      </trkpt>
      <trkpt lat="43.98804" lon="5.39854">
        <ele>927.33</ele>
        <time>2014-04-18T10:14:42Z</time>
      </trkpt>
      <trkpt lat="43.9881" lon="5.39867">
        <ele>928.77</ele>
        <time>2014-04-18T10:14:52Z</time>
      </trkpt>
      <trkpt lat="43.98819" lon="5.39879">
        <ele>928.77</ele>
        <time>2014-04-18T10:15:02Z</time>
      </trkpt>
      <trkpt lat="43.98829" lon="5.3989">
        <ele>929.25</ele>
        <time>2014-04-18T10:15:13Z</time>
      </trkpt>
      <trkpt lat="43.98838" lon="5.399">
        <ele>931.17</ele>
        <time>2014-04-18T10:15:23Z</time>
      </trkpt>
      <trkpt lat="43.98842" lon="5.39908">
        <ele>932.14</ele>
        <time>2014-04-18T10:15:30Z</time>
      </trkpt>
      <trkpt lat="43.98851" lon="5.39926">
        <ele>933.58</ele>
        <time>2014-04-18T10:15:45Z</time>
      </trkpt>
      <trkpt lat="43.98859" lon="5.3994">
        <ele>934.54</ele>
        <time>2014-04-18T10:15:56Z</time>
      </trkpt>
      <trkpt lat="43.98867" lon="5.39954">
        <ele>935.5</ele>
        <time>2014-04-18T10:16:07Z</time>
      </trkpt>
      <trkpt lat="43.98877" lon="5.39965">
        <ele>936.94</ele>
        <time>2014-04-18T10:16:19Z</time>
      </trkpt>
      <trkpt lat="43.98885" lon="5.39979">
        <ele>938.38</ele>
        <time>2014-04-18T10:16:31Z</time>
      </trkpt>
      <trkpt lat="43.98886" lon="5.39981">
        <ele>939.35</ele>
        <time>2014-04-18T10:16:33Z</time>
      </trkpt>
      <trkpt lat="43.98894" lon="5.39991">
        <ele>940.31</ele>
        <time>2014-04-18T10:16:44Z</time>
      </trkpt>
      <trkpt lat="43.98902" lon="5.40001">
        <ele>941.27</ele>
        <time>2014-04-18T10:16:54Z</time>
      </trkpt>
      <trkpt lat="43.98902" lon="5.40003">
        <ele>941.75</ele>
        <time>2014-04-18T10:16:55Z</time>
      </trkpt>
      <trkpt lat="43.98914" lon="5.40014">
        <ele>942.71</ele>
        <time>2014-04-18T10:17:07Z</time>
      </trkpt>
      <trkpt lat="43.98923" lon="5.40021">
        <ele>944.15</ele>
        <time>2014-04-18T10:17:18Z</time>
      </trkpt>
      <trkpt lat="43.9893" lon="5.40026">
        <ele>945.59</ele>
        <time>2014-04-18T10:17:26Z</time>
      </trkpt>
      <trkpt lat="43.9894" lon="5.40037">
        <ele>947.04</ele>
        <time>2014-04-18T10:17:39Z</time>
      </trkpt>
      <trkpt lat="43.9895" lon="5.40049">
        <ele>948</ele>
        <time>2014-04-18T10:17:51Z</time>
      </trkpt>
      <trkpt lat="43.9896" lon="5.4006">
        <ele>949.44</ele>
        <time>2014-04-18T10:18:04Z</time>
      </trkpt>
      <trkpt lat="43.98969" lon="5.4007">
        <ele>950.4</ele>
        <time>2014-04-18T10:18:15Z</time>
      </trkpt>
      <trkpt lat="43.98975" lon="5.40078">
        <ele>951.36</ele>
        <time>2014-04-18T10:18:23Z</time>
      </trkpt>
      <trkpt lat="43.98979" lon="5.40082">
        <ele>951.36</ele>
        <time>2014-04-18T10:18:27Z</time>
      </trkpt>
      <trkpt lat="43.98988" lon="5.40093">
        <ele>952.8</ele>
        <time>2014-04-18T10:18:38Z</time>
      </trkpt>
      <trkpt lat="43.98997" lon="5.40105">
        <ele>953.28</ele>
        <time>2014-04-18T10:18:49Z</time>
      </trkpt>
      <trkpt lat="43.99002" lon="5.4011">
        <ele>953.77</ele>
        <time>2014-04-18T10:18:59Z</time>
      </trkpt>
      <trkpt lat="43.99005" lon="5.40114">
        <ele>954.25</ele>
        <time>2014-04-18T10:19:10Z</time>
      </trkpt>
      <trkpt lat="43.99007" lon="5.40115">
        <ele>954.25</ele>
        <time>2014-04-18T10:19:13Z</time>
      </trkpt>
      <trkpt lat="43.99012" lon="5.4012">
        <ele>954.73</ele>
        <time>2014-04-18T10:19:19Z</time>
      </trkpt>
      <trkpt lat="43.99025" lon="5.40126">
        <ele>956.17</ele>
        <time>2014-04-18T10:19:30Z</time>
      </trkpt>
      <trkpt lat="43.99036" lon="5.4013">
        <ele>957.61</ele>
        <time>2014-04-18T10:19:42Z</time>
      </trkpt>
      <trkpt lat="43.9904" lon="5.40133">
        <ele>958.57</ele>
        <time>2014-04-18T10:19:52Z</time>
      </trkpt>
      <trkpt lat="43.99048" lon="5.40135">
        <ele>959.53</ele>
        <time>2014-04-18T10:20:01Z</time>
      </trkpt>
      <trkpt lat="43.99058" lon="5.4014">
        <ele>960.98</ele>
        <time>2014-04-18T10:20:11Z</time>
      </trkpt>
      <trkpt lat="43.99069" lon="5.40145">
        <ele>962.42</ele>
        <time>2014-04-18T10:20:22Z</time>
      </trkpt>
      <trkpt lat="43.99078" lon="5.40151">
        <ele>962.9</ele>
        <time>2014-04-18T10:20:32Z</time>
      </trkpt>
      <trkpt lat="43.99079" lon="5.40151">
        <ele>963.38</ele>
        <time>2014-04-18T10:20:33Z</time>
      </trkpt>
      <trkpt lat="43.99087" lon="5.40154">
        <ele>964.34</ele>
        <time>2014-04-18T10:20:42Z</time>
      </trkpt>
      <trkpt lat="43.99089" lon="5.40155">
        <ele>964.82</ele>
        <time>2014-04-18T10:20:44Z</time>
      </trkpt>
      <trkpt lat="43.991" lon="5.40161">
        <ele>965.78</ele>
        <time>2014-04-18T10:20:56Z</time>
      </trkpt>
      <trkpt lat="43.9911" lon="5.40165">
        <ele>967.22</ele>
        <time>2014-04-18T10:21:07Z</time>
      </trkpt>
      <trkpt lat="43.99115" lon="5.40165">
        <ele>967.7</ele>
        <time>2014-04-18T10:21:12Z</time>
      </trkpt>
      <trkpt lat="43.99118" lon="5.40172">
        <ele>968.18</ele>
        <time>2014-04-18T10:21:22Z</time>
      </trkpt>
      <trkpt lat="43.99118" lon="5.40173">
        <ele>967.7</ele>
        <time>2014-04-18T10:21:31Z</time>
      </trkpt>
      <trkpt lat="43.99128" lon="5.40187">
        <ele>967.22</ele>
        <time>2014-04-18T10:21:43Z</time>
      </trkpt>
      <trkpt lat="43.99134" lon="5.40197">
        <ele>967.22</ele>
        <time>2014-04-18T10:21:50Z</time>
      </trkpt>
      <trkpt lat="43.99143" lon="5.40209">
        <ele>966.26</ele>
        <time>2014-04-18T10:22:01Z</time>
      </trkpt>
      <trkpt lat="43.99147" lon="5.40214">
        <ele>966.26</ele>
        <time>2014-04-18T10:22:07Z</time>
      </trkpt>
      <trkpt lat="43.99149" lon="5.40218">
        <ele>966.26</ele>
        <time>2014-04-18T10:22:09Z</time>
      </trkpt>
      <trkpt lat="43.99161" lon="5.40225">
        <ele>966.74</ele>
        <time>2014-04-18T10:22:21Z</time>
      </trkpt>
      <trkpt lat="43.99169" lon="5.40223">
        <ele>967.7</ele>
        <time>2014-04-18T10:22:35Z</time>
      </trkpt>
      <trkpt lat="43.99174" lon="5.40221">
        <ele>969.15</ele>
        <time>2014-04-18T10:22:48Z</time>
      </trkpt>
      <trkpt lat="43.99177" lon="5.40216">
        <ele>969.63</ele>
        <time>2014-04-18T10:23:02Z</time>
      </trkpt>
      <trkpt lat="43.99177" lon="5.40214">
        <ele>969.63</ele>
        <time>2014-04-18T10:23:13Z</time>
      </trkpt>
      <trkpt lat="43.99178" lon="5.40217">
        <ele>969.63</ele>
        <time>2014-04-18T10:23:22Z</time>
      </trkpt>
      <trkpt lat="43.99178" lon="5.40217">
        <ele>970.59</ele>
        <time>2014-04-18T10:23:38Z</time>
      </trkpt>
      <trkpt lat="43.99179" lon="5.40218">
        <ele>969.63</ele>
        <time>2014-04-18T10:23:49Z</time>
      </trkpt>
      <trkpt lat="43.99178" lon="5.40219">
        <ele>969.15</ele>
        <time>2014-04-18T10:24:01Z</time>
      </trkpt>
      <trkpt lat="43.99178" lon="5.40222">
        <ele>968.67</ele>
        <time>2014-04-18T10:24:20Z</time>
      </trkpt>
      <trkpt lat="43.99172" lon="5.40225">
        <ele>967.22</ele>
        <time>2014-04-18T10:24:31Z</time>
      </trkpt>
      <trkpt lat="43.99171" lon="5.40226">
        <ele>967.22</ele>
        <time>2014-04-18T10:24:45Z</time>
      </trkpt>
      <trkpt lat="43.99173" lon="5.40239">
        <ele>965.78</ele>
        <time>2014-04-18T10:24:56Z</time>
      </trkpt>
      <trkpt lat="43.99173" lon="5.4024">
        <ele>965.3</ele>
        <time>2014-04-18T10:24:58Z</time>
      </trkpt>
      <trkpt lat="43.99171" lon="5.40244">
        <ele>964.82</ele>
        <time>2014-04-18T10:25:02Z</time>
      </trkpt>
      <trkpt lat="43.99171" lon="5.40246">
        <ele>964.34</ele>
        <time>2014-04-18T10:25:04Z</time>
      </trkpt>
      <trkpt lat="43.99173" lon="5.40252">
        <ele>963.86</ele>
        <time>2014-04-18T10:25:09Z</time>
      </trkpt>
      <trkpt lat="43.99182" lon="5.40269">
        <ele>961.94</ele>
        <time>2014-04-18T10:25:22Z</time>
      </trkpt>
      <trkpt lat="43.99183" lon="5.40276">
        <ele>961.94</ele>
        <time>2014-04-18T10:25:28Z</time>
      </trkpt>
      <trkpt lat="43.99184" lon="5.40281">
        <ele>961.94</ele>
        <time>2014-04-18T10:25:31Z</time>
      </trkpt>
      <trkpt lat="43.99186" lon="5.40303">
        <ele>962.9</ele>
        <time>2014-04-18T10:25:43Z</time>
      </trkpt>
      <trkpt lat="43.99187" lon="5.40314">
        <ele>963.38</ele>
        <time>2014-04-18T10:25:50Z</time>
      </trkpt>
      <trkpt lat="43.99186" lon="5.40336">
        <ele>963.86</ele>
        <time>2014-04-18T10:26:02Z</time>
      </trkpt>
      <trkpt lat="43.99188" lon="5.40355">
        <ele>964.34</ele>
        <time>2014-04-18T10:26:13Z</time>
      </trkpt>
      <trkpt lat="43.99188" lon="5.40359">
        <ele>964.34</ele>
        <time>2014-04-18T10:26:23Z</time>
      </trkpt>
      <trkpt lat="43.99189" lon="5.40372">
        <ele>964.34</ele>
        <time>2014-04-18T10:26:33Z</time>
      </trkpt>
      <trkpt lat="43.99191" lon="5.40386">
        <ele>963.86</ele>
        <time>2014-04-18T10:26:44Z</time>
      </trkpt>
      <trkpt lat="43.99194" lon="5.40402">
        <ele>964.34</ele>
        <time>2014-04-18T10:26:56Z</time>
      </trkpt>
      <trkpt lat="43.99197" lon="5.40417">
        <ele>964.34</ele>
        <time>2014-04-18T10:27:06Z</time>
      </trkpt>
      <trkpt lat="43.992" lon="5.40434">
        <ele>964.34</ele>
        <time>2014-04-18T10:27:14Z</time>
      </trkpt>
      <trkpt lat="43.99203" lon="5.4046">
        <ele>963.86</ele>
        <time>2014-04-18T10:27:27Z</time>
      </trkpt>
      <trkpt lat="43.99207" lon="5.40486">
        <ele>963.86</ele>
        <time>2014-04-18T10:27:41Z</time>
      </trkpt>
      <trkpt lat="43.99207" lon="5.40487">
        <ele>963.38</ele>
        <time>2014-04-18T10:27:42Z</time>
      </trkpt>
      <trkpt lat="43.99211" lon="5.40506">
        <ele>963.38</ele>
        <time>2014-04-18T10:27:54Z</time>
      </trkpt>
      <trkpt lat="43.99218" lon="5.40526">
        <ele>963.38</ele>
        <time>2014-04-18T10:28:07Z</time>
      </trkpt>
      <trkpt lat="43.99225" lon="5.40547">
        <ele>963.38</ele>
        <time>2014-04-18T10:28:21Z</time>
      </trkpt>
      <trkpt lat="43.99235" lon="5.4057">
        <ele>963.38</ele>
        <time>2014-04-18T10:28:36Z</time>
      </trkpt>
      <trkpt lat="43.99238" lon="5.4058">
        <ele>962.42</ele>
        <time>2014-04-18T10:28:43Z</time>
      </trkpt>
      <trkpt lat="43.99241" lon="5.40587">
        <ele>961.94</ele>
        <time>2014-04-18T10:28:48Z</time>
      </trkpt>
      <trkpt lat="43.9925" lon="5.40604">
        <ele>961.46</ele>
        <time>2014-04-18T10:29:01Z</time>
      </trkpt>
      <trkpt lat="43.99257" lon="5.4062">
        <ele>960.98</ele>
        <time>2014-04-18T10:29:12Z</time>
      </trkpt>
      <trkpt lat="43.99267" lon="5.40638">
        <ele>960.49</ele>
        <time>2014-04-18T10:29:24Z</time>
      </trkpt>
      <trkpt lat="43.99276" lon="5.40657">
        <ele>960.49</ele>
        <time>2014-04-18T10:29:37Z</time>
      </trkpt>
      <trkpt lat="43.99287" lon="5.40664">
        <ele>960.98</ele>
        <time>2014-04-18T10:29:48Z</time>
      </trkpt>
      <trkpt lat="43.99299" lon="5.40679">
        <ele>960.98</ele>
        <time>2014-04-18T10:30:01Z</time>
      </trkpt>
      <trkpt lat="43.99308" lon="5.40685">
        <ele>961.46</ele>
        <time>2014-04-18T10:30:13Z</time>
      </trkpt>
      <trkpt lat="43.99314" lon="5.40688">
        <ele>961.94</ele>
        <time>2014-04-18T10:30:23Z</time>
      </trkpt>
      <trkpt lat="43.99318" lon="5.40691">
        <ele>961.94</ele>
        <time>2014-04-18T10:30:35Z</time>
      </trkpt>
      <trkpt lat="43.99318" lon="5.40698">
        <ele>962.42</ele>
        <time>2014-04-18T10:30:45Z</time>
      </trkpt>
      <trkpt lat="43.99315" lon="5.40705">
        <ele>961.94</ele>
        <time>2014-04-18T10:30:55Z</time>
      </trkpt>
      <trkpt lat="43.99314" lon="5.40707">
        <ele>961.46</ele>
        <time>2014-04-18T10:31:09Z</time>
      </trkpt>
      <trkpt lat="43.99314" lon="5.4071">
        <ele>960.98</ele>
        <time>2014-04-18T10:31:31Z</time>
      </trkpt>
      <trkpt lat="43.99312" lon="5.4071">
        <ele>960.98</ele>
        <time>2014-04-18T10:31:47Z</time>
      </trkpt>
      <trkpt lat="43.99313" lon="5.40709">
        <ele>961.94</ele>
        <time>2014-04-18T10:32:00Z</time>
      </trkpt>
      <trkpt lat="43.99315" lon="5.40708">
        <ele>961.46</ele>
        <time>2014-04-18T10:32:17Z</time>
      </trkpt>
      <trkpt lat="43.99318" lon="5.40703">
        <ele>962.42</ele>
        <time>2014-04-18T10:32:29Z</time>
      </trkpt>
      <trkpt lat="43.99322" lon="5.40703">
        <ele>962.42</ele>
        <time>2014-04-18T10:32:43Z</time>
      </trkpt>
      <trkpt lat="43.99323" lon="5.40704">
        <ele>962.9</ele>
        <time>2014-04-18T10:33:02Z</time>
      </trkpt>
      <trkpt lat="43.99332" lon="5.40714">
        <ele>962.9</ele>
        <time>2014-04-18T10:33:13Z</time>
      </trkpt>
      <trkpt lat="43.99339" lon="5.4073">
        <ele>962.9</ele>
        <time>2014-04-18T10:33:26Z</time>
      </trkpt>
      <trkpt lat="43.99347" lon="5.40742">
        <ele>962.42</ele>
        <time>2014-04-18T10:33:36Z</time>
      </trkpt>
      <trkpt lat="43.99353" lon="5.40747">
        <ele>962.9</ele>
        <time>2014-04-18T10:33:43Z</time>
      </trkpt>
      <trkpt lat="43.99362" lon="5.40764">
        <ele>963.38</ele>
        <time>2014-04-18T10:33:55Z</time>
      </trkpt>
      <trkpt lat="43.99375" lon="5.40777">
        <ele>963.38</ele>
        <time>2014-04-18T10:34:09Z</time>
      </trkpt>
      <trkpt lat="43.99388" lon="5.40778">
        <ele>963.86</ele>
        <time>2014-04-18T10:34:21Z</time>
      </trkpt>
      <trkpt lat="43.99399" lon="5.40787">
        <ele>964.82</ele>
        <time>2014-04-18T10:34:32Z</time>
      </trkpt>
      <trkpt lat="43.99413" lon="5.40801">
        <ele>964.82</ele>
        <time>2014-04-18T10:34:45Z</time>
      </trkpt>
      <trkpt lat="43.99422" lon="5.40814">
        <ele>965.78</ele>
        <time>2014-04-18T10:34:57Z</time>
      </trkpt>
      <trkpt lat="43.99432" lon="5.40828">
        <ele>965.78</ele>
        <time>2014-04-18T10:35:09Z</time>
      </trkpt>
      <trkpt lat="43.99434" lon="5.40832">
        <ele>965.78</ele>
        <time>2014-04-18T10:35:12Z</time>
      </trkpt>
      <trkpt lat="43.99447" lon="5.40838">
        <ele>967.22</ele>
        <time>2014-04-18T10:35:25Z</time>
      </trkpt>
      <trkpt lat="43.9946" lon="5.40849">
        <ele>967.7</ele>
        <time>2014-04-18T10:35:38Z</time>
      </trkpt>
      <trkpt lat="43.99471" lon="5.40861">
        <ele>967.7</ele>
        <time>2014-04-18T10:35:50Z</time>
      </trkpt>
      <trkpt lat="43.99482" lon="5.40874">
        <ele>968.18</ele>
        <time>2014-04-18T10:36:03Z</time>
      </trkpt>
      <trkpt lat="43.99486" lon="5.40879">
        <ele>968.18</ele>
        <time>2014-04-18T10:36:08Z</time>
      </trkpt>
      <trkpt lat="43.9949" lon="5.40882">
        <ele>968.18</ele>
        <time>2014-04-18T10:36:12Z</time>
      </trkpt>
      <trkpt lat="43.99499" lon="5.40896">
        <ele>968.18</ele>
        <time>2014-04-18T10:36:24Z</time>
      </trkpt>
      <trkpt lat="43.99504" lon="5.40908">
        <ele>968.18</ele>
        <time>2014-04-18T10:36:32Z</time>
      </trkpt>
      <trkpt lat="43.99515" lon="5.40922">
        <ele>968.18</ele>
        <time>2014-04-18T10:36:44Z</time>
      </trkpt>
      <trkpt lat="43.9953" lon="5.40935">
        <ele>967.7</ele>
        <time>2014-04-18T10:36:58Z</time>
      </trkpt>
      <trkpt lat="43.99541" lon="5.40945">
        <ele>968.67</ele>
        <time>2014-04-18T10:37:09Z</time>
      </trkpt>
      <trkpt lat="43.99551" lon="5.40955">
        <ele>969.15</ele>
        <time>2014-04-18T10:37:19Z</time>
      </trkpt>
      <trkpt lat="43.99559" lon="5.40963">
        <ele>969.15</ele>
        <time>2014-04-18T10:37:28Z</time>
      </trkpt>
      <trkpt lat="43.99567" lon="5.40972">
        <ele>969.63</ele>
        <time>2014-04-18T10:37:36Z</time>
      </trkpt>
      <trkpt lat="43.99579" lon="5.40984">
        <ele>970.11</ele>
        <time>2014-04-18T10:37:48Z</time>
      </trkpt>
      <trkpt lat="43.99586" lon="5.40999">
        <ele>970.59</ele>
        <time>2014-04-18T10:37:57Z</time>
      </trkpt>
      <trkpt lat="43.99595" lon="5.41019">
        <ele>970.59</ele>
        <time>2014-04-18T10:38:10Z</time>
      </trkpt>
      <trkpt lat="43.99607" lon="5.41025">
        <ele>971.07</ele>
        <time>2014-04-18T10:38:21Z</time>
      </trkpt>
      <trkpt lat="43.99617" lon="5.41035">
        <ele>971.55</ele>
        <time>2014-04-18T10:38:32Z</time>
      </trkpt>
      <trkpt lat="43.99627" lon="5.41046">
        <ele>972.03</ele>
        <time>2014-04-18T10:38:42Z</time>
      </trkpt>
      <trkpt lat="43.99639" lon="5.41055">
        <ele>972.03</ele>
        <time>2014-04-18T10:38:53Z</time>
      </trkpt>
      <trkpt lat="43.99652" lon="5.41064">
        <ele>972.51</ele>
        <time>2014-04-18T10:39:05Z</time>
      </trkpt>
      <trkpt lat="43.99663" lon="5.41077">
        <ele>972.99</ele>
        <time>2014-04-18T10:39:17Z</time>
      </trkpt>
      <trkpt lat="43.99674" lon="5.41086">
        <ele>973.47</ele>
        <time>2014-04-18T10:39:28Z</time>
      </trkpt>
      <trkpt lat="43.99684" lon="5.41096">
        <ele>973.47</ele>
        <time>2014-04-18T10:39:39Z</time>
      </trkpt>
      <trkpt lat="43.99692" lon="5.41104">
        <ele>973.95</ele>
        <time>2014-04-18T10:39:47Z</time>
      </trkpt>
      <trkpt lat="43.99705" lon="5.41113">
        <ele>974.43</ele>
        <time>2014-04-18T10:39:58Z</time>
      </trkpt>
      <trkpt lat="43.99719" lon="5.41118">
        <ele>974.43</ele>
        <time>2014-04-18T10:40:11Z</time>
      </trkpt>
      <trkpt lat="43.99734" lon="5.41124">
        <ele>975.39</ele>
        <time>2014-04-18T10:40:23Z</time>
      </trkpt>
      <trkpt lat="43.99745" lon="5.41128">
        <ele>975.88</ele>
        <time>2014-04-18T10:40:33Z</time>
      </trkpt>
      <trkpt lat="43.99759" lon="5.41135">
        <ele>976.36</ele>
        <time>2014-04-18T10:40:45Z</time>
      </trkpt>
      <trkpt lat="43.9977" lon="5.41142">
        <ele>976.84</ele>
        <time>2014-04-18T10:40:56Z</time>
      </trkpt>
      <trkpt lat="43.99772" lon="5.41142">
        <ele>977.32</ele>
        <time>2014-04-18T10:40:58Z</time>
      </trkpt>
      <trkpt lat="43.99784" lon="5.4115">
        <ele>977.8</ele>
        <time>2014-04-18T10:41:11Z</time>
      </trkpt>
      <trkpt lat="43.99799" lon="5.41157">
        <ele>978.76</ele>
        <time>2014-04-18T10:41:22Z</time>
      </trkpt>
      <trkpt lat="43.99811" lon="5.41177">
        <ele>978.76</ele>
        <time>2014-04-18T10:41:37Z</time>
      </trkpt>
      <trkpt lat="43.99818" lon="5.41193">
        <ele>978.76</ele>
        <time>2014-04-18T10:41:48Z</time>
      </trkpt>
      <trkpt lat="43.99826" lon="5.41208">
        <ele>979.24</ele>
        <time>2014-04-18T10:42:00Z</time>
      </trkpt>
      <trkpt lat="43.99827" lon="5.41209">
        <ele>979.24</ele>
        <time>2014-04-18T10:42:01Z</time>
      </trkpt>
      <trkpt lat="43.99829" lon="5.41212">
        <ele>979.24</ele>
        <time>2014-04-18T10:42:03Z</time>
      </trkpt>
      <trkpt lat="43.9984" lon="5.41225">
        <ele>979.72</ele>
        <time>2014-04-18T10:42:14Z</time>
      </trkpt>
      <trkpt lat="43.99847" lon="5.41232">
        <ele>979.72</ele>
        <time>2014-04-18T10:42:21Z</time>
      </trkpt>
      <trkpt lat="43.99855" lon="5.41236">
        <ele>980.2</ele>
        <time>2014-04-18T10:42:28Z</time>
      </trkpt>
      <trkpt lat="43.99867" lon="5.41244">
        <ele>981.64</ele>
        <time>2014-04-18T10:42:40Z</time>
      </trkpt>
      <trkpt lat="43.9987" lon="5.41254">
        <ele>981.64</ele>
        <time>2014-04-18T10:42:47Z</time>
      </trkpt>
      <trkpt lat="43.99873" lon="5.41266">
        <ele>981.64</ele>
        <time>2014-04-18T10:42:54Z</time>
      </trkpt>
      <trkpt lat="43.99874" lon="5.41274">
        <ele>982.12</ele>
        <time>2014-04-18T10:43:03Z</time>
      </trkpt>
      <trkpt lat="43.99872" lon="5.41278">
        <ele>981.64</ele>
        <time>2014-04-18T10:43:06Z</time>
      </trkpt>
      <trkpt lat="43.99871" lon="5.41282">
        <ele>981.64</ele>
        <time>2014-04-18T10:43:09Z</time>
      </trkpt>
      <trkpt lat="43.99874" lon="5.41286">
        <ele>981.64</ele>
        <time>2014-04-18T10:43:14Z</time>
      </trkpt>
      <trkpt lat="43.99883" lon="5.41296">
        <ele>982.6</ele>
        <time>2014-04-18T10:43:25Z</time>
      </trkpt>
      <trkpt lat="43.99891" lon="5.41307">
        <ele>982.6</ele>
        <time>2014-04-18T10:43:36Z</time>
      </trkpt>
      <trkpt lat="43.99899" lon="5.41313">
        <ele>982.6</ele>
        <time>2014-04-18T10:43:46Z</time>
      </trkpt>
      <trkpt lat="43.99905" lon="5.41321">
        <ele>983.09</ele>
        <time>2014-04-18T10:43:59Z</time>
      </trkpt>
      <trkpt lat="43.99909" lon="5.41325">
        <ele>982.6</ele>
        <time>2014-04-18T10:44:09Z</time>
      </trkpt>
      <trkpt lat="43.99907" lon="5.41323">
        <ele>983.09</ele>
        <time>2014-04-18T10:44:16Z</time>
      </trkpt>
      <trkpt lat="43.99903" lon="5.41325">
        <ele>982.6</ele>
        <time>2014-04-18T10:44:26Z</time>
      </trkpt>
      <trkpt lat="43.99904" lon="5.41327">
        <ele>982.6</ele>
        <time>2014-04-18T10:44:35Z</time>
      </trkpt>
      <trkpt lat="43.99904" lon="5.41341">
        <ele>982.6</ele>
        <time>2014-04-18T10:44:46Z</time>
      </trkpt>
      <trkpt lat="43.99903" lon="5.41344">
        <ele>982.12</ele>
        <time>2014-04-18T10:44:48Z</time>
      </trkpt>
      <trkpt lat="43.99904" lon="5.41353">
        <ele>983.09</ele>
        <time>2014-04-18T10:44:58Z</time>
      </trkpt>
      <trkpt lat="43.99904" lon="5.41357">
        <ele>983.09</ele>
        <time>2014-04-18T10:45:02Z</time>
      </trkpt>
      <trkpt lat="43.99901" lon="5.41364">
        <ele>983.57</ele>
        <time>2014-04-18T10:45:08Z</time>
      </trkpt>
      <trkpt lat="43.99896" lon="5.41361">
        <ele>983.09</ele>
        <time>2014-04-18T10:45:18Z</time>
      </trkpt>
      <trkpt lat="43.99893" lon="5.41363">
        <ele>983.09</ele>
        <time>2014-04-18T10:45:32Z</time>
      </trkpt>
      <trkpt lat="43.99892" lon="5.41364">
        <ele>983.09</ele>
        <time>2014-04-18T10:45:34Z</time>
      </trkpt>
      <trkpt lat="43.99889" lon="5.41367">
        <ele>983.09</ele>
        <time>2014-04-18T10:45:37Z</time>
      </trkpt>
      <trkpt lat="43.99879" lon="5.41373">
        <ele>982.6</ele>
        <time>2014-04-18T10:45:47Z</time>
      </trkpt>
      <trkpt lat="43.99869" lon="5.41372">
        <ele>982.6</ele>
        <time>2014-04-18T10:45:56Z</time>
      </trkpt>
      <trkpt lat="43.99864" lon="5.41371">
        <ele>981.64</ele>
        <time>2014-04-18T10:46:00Z</time>
      </trkpt>
      <trkpt lat="43.99852" lon="5.41379">
        <ele>981.64</ele>
        <time>2014-04-18T10:46:12Z</time>
      </trkpt>
      <trkpt lat="43.99848" lon="5.41385">
        <ele>982.12</ele>
        <time>2014-04-18T10:46:18Z</time>
      </trkpt>
      <trkpt lat="43.99847" lon="5.41394">
        <ele>981.64</ele>
        <time>2014-04-18T10:46:24Z</time>
      </trkpt>
      <trkpt lat="43.99843" lon="5.41409">
        <ele>982.12</ele>
        <time>2014-04-18T10:46:35Z</time>
      </trkpt>
      <trkpt lat="43.99841" lon="5.41413">
        <ele>982.12</ele>
        <time>2014-04-18T10:46:39Z</time>
      </trkpt>
      <trkpt lat="43.99836" lon="5.41428">
        <ele>982.6</ele>
        <time>2014-04-18T10:46:47Z</time>
      </trkpt>
      <trkpt lat="43.99834" lon="5.41432">
        <ele>982.6</ele>
        <time>2014-04-18T10:46:50Z</time>
      </trkpt>
      <trkpt lat="43.99827" lon="5.41447">
        <ele>982.12</ele>
        <time>2014-04-18T10:47:03Z</time>
      </trkpt>
      <trkpt lat="43.99822" lon="5.41466">
        <ele>981.64</ele>
        <time>2014-04-18T10:47:15Z</time>
      </trkpt>
      <trkpt lat="43.99824" lon="5.41481">
        <ele>981.64</ele>
        <time>2014-04-18T10:47:25Z</time>
      </trkpt>
      <trkpt lat="43.99828" lon="5.41492">
        <ele>981.64</ele>
        <time>2014-04-18T10:47:33Z</time>
      </trkpt>
      <trkpt lat="43.99838" lon="5.41508">
        <ele>981.64</ele>
        <time>2014-04-18T10:47:45Z</time>
      </trkpt>
      <trkpt lat="43.99848" lon="5.4152">
        <ele>982.6</ele>
        <time>2014-04-18T10:47:57Z</time>
      </trkpt>
      <trkpt lat="43.99854" lon="5.41543">
        <ele>982.6</ele>
        <time>2014-04-18T10:48:11Z</time>
      </trkpt>
      <trkpt lat="43.99857" lon="5.41559">
        <ele>983.09</ele>
        <time>2014-04-18T10:48:22Z</time>
      </trkpt>
      <trkpt lat="43.99857" lon="5.41563">
        <ele>982.6</ele>
        <time>2014-04-18T10:48:24Z</time>
      </trkpt>
      <trkpt lat="43.99862" lon="5.41574">
        <ele>982.6</ele>
        <time>2014-04-18T10:48:31Z</time>
      </trkpt>
      <trkpt lat="43.99864" lon="5.41577">
        <ele>982.12</ele>
        <time>2014-04-18T10:48:33Z</time>
      </trkpt>
      <trkpt lat="43.99876" lon="5.41592">
        <ele>982.6</ele>
        <time>2014-04-18T10:48:45Z</time>
      </trkpt>
      <trkpt lat="43.99885" lon="5.41608">
        <ele>983.09</ele>
        <time>2014-04-18T10:48:58Z</time>
      </trkpt>
      <trkpt lat="43.99886" lon="5.4161">
        <ele>983.57</ele>
        <time>2014-04-18T10:49:00Z</time>
      </trkpt>
      <trkpt lat="43.99888" lon="5.41616">
        <ele>983.09</ele>
        <time>2014-04-18T10:49:04Z</time>
      </trkpt>
      <trkpt lat="43.99898" lon="5.41629">
        <ele>982.12</ele>
        <time>2014-04-18T10:49:15Z</time>
      </trkpt>
      <trkpt lat="43.99901" lon="5.41637">
        <ele>981.64</ele>
        <time>2014-04-18T10:49:20Z</time>
      </trkpt>
      <trkpt lat="43.99912" lon="5.41649">
        <ele>981.64</ele>
        <time>2014-04-18T10:49:32Z</time>
      </trkpt>
      <trkpt lat="43.99925" lon="5.41662">
        <ele>981.16</ele>
        <time>2014-04-18T10:49:45Z</time>
      </trkpt>
      <trkpt lat="43.99935" lon="5.41676">
        <ele>980.2</ele>
        <time>2014-04-18T10:49:57Z</time>
      </trkpt>
      <trkpt lat="43.99945" lon="5.41692">
        <ele>978.76</ele>
        <time>2014-04-18T10:50:10Z</time>
      </trkpt>
      <trkpt lat="43.99946" lon="5.41693">
        <ele>978.76</ele>
        <time>2014-04-18T10:50:11Z</time>
      </trkpt>
      <trkpt lat="43.99952" lon="5.41702">
        <ele>977.8</ele>
        <time>2014-04-18T10:50:19Z</time>
      </trkpt>
      <trkpt lat="43.99962" lon="5.41712">
        <ele>976.36</ele>
        <time>2014-04-18T10:50:31Z</time>
      </trkpt>
      <trkpt lat="43.99976" lon="5.41724">
        <ele>975.88</ele>
        <time>2014-04-18T10:50:44Z</time>
      </trkpt>
      <trkpt lat="43.99986" lon="5.41731">
        <ele>974.91</ele>
        <time>2014-04-18T10:50:55Z</time>
      </trkpt>
      <trkpt lat="43.99988" lon="5.41733">
        <ele>974.43</ele>
        <time>2014-04-18T10:50:57Z</time>
      </trkpt>
      <trkpt lat="43.99997" lon="5.4174">
        <ele>973.47</ele>
        <time>2014-04-18T10:51:07Z</time>
      </trkpt>
      <trkpt lat="44.00008" lon="5.41747">
        <ele>972.99</ele>
        <time>2014-04-18T10:51:16Z</time>
      </trkpt>
      <trkpt lat="44.00016" lon="5.41749">
        <ele>971.55</ele>
        <time>2014-04-18T10:51:25Z</time>
      </trkpt>
      <trkpt lat="44.0002" lon="5.41751">
        <ele>970.59</ele>
        <time>2014-04-18T10:51:34Z</time>
      </trkpt>
      <trkpt lat="44.00022" lon="5.41753">
        <ele>970.11</ele>
        <time>2014-04-18T10:51:44Z</time>
      </trkpt>
      <trkpt lat="44.00025" lon="5.41756">
        <ele>968.67</ele>
        <time>2014-04-18T10:51:57Z</time>
      </trkpt>
      <trkpt lat="44.00035" lon="5.41758">
        <ele>967.7</ele>
        <time>2014-04-18T10:52:05Z</time>
      </trkpt>
      <trkpt lat="44.0004" lon="5.41759">
        <ele>967.7</ele>
        <time>2014-04-18T10:52:07Z</time>
      </trkpt>
      <trkpt lat="44.00048" lon="5.41756">
        <ele>967.22</ele>
        <time>2014-04-18T10:52:14Z</time>
      </trkpt>
      <trkpt lat="44.0006" lon="5.41753">
        <ele>966.26</ele>
        <time>2014-04-18T10:52:22Z</time>
      </trkpt>
      <trkpt lat="44.00067" lon="5.41756">
        <ele>964.82</ele>
        <time>2014-04-18T10:52:31Z</time>
      </trkpt>
      <trkpt lat="44.00079" lon="5.4177">
        <ele>964.34</ele>
        <time>2014-04-18T10:52:40Z</time>
      </trkpt>
      <trkpt lat="44.00081" lon="5.41773">
        <ele>964.34</ele>
        <time>2014-04-18T10:52:42Z</time>
      </trkpt>
      <trkpt lat="44.00107" lon="5.41776">
        <ele>963.86</ele>
        <time>2014-04-18T10:52:51Z</time>
      </trkpt>
      <trkpt lat="44.00113" lon="5.41783">
        <ele>963.86</ele>
        <time>2014-04-18T10:52:59Z</time>
      </trkpt>
      <trkpt lat="44.00113" lon="5.41783">
        <ele>963.38</ele>
        <time>2014-04-18T10:53:09Z</time>
      </trkpt>
      <trkpt lat="44.00114" lon="5.41791">
        <ele>963.38</ele>
        <time>2014-04-18T10:53:15Z</time>
      </trkpt>
      <trkpt lat="44.00116" lon="5.41812">
        <ele>963.38</ele>
        <time>2014-04-18T10:53:27Z</time>
      </trkpt>
      <trkpt lat="44.00114" lon="5.41827">
        <ele>963.86</ele>
        <time>2014-04-18T10:53:37Z</time>
      </trkpt>
      <trkpt lat="44.00114" lon="5.41829">
        <ele>963.38</ele>
        <time>2014-04-18T10:53:39Z</time>
      </trkpt>
      <trkpt lat="44.00115" lon="5.41837">
        <ele>963.86</ele>
        <time>2014-04-18T10:53:43Z</time>
      </trkpt>
      <trkpt lat="44.00114" lon="5.41845">
        <ele>963.86</ele>
        <time>2014-04-18T10:53:51Z</time>
      </trkpt>
      <trkpt lat="44.00109" lon="5.41848">
        <ele>963.38</ele>
        <time>2014-04-18T10:54:01Z</time>
      </trkpt>
      <trkpt lat="44.00105" lon="5.41849">
        <ele>962.9</ele>
        <time>2014-04-18T10:54:06Z</time>
      </trkpt>
      <trkpt lat="44.00102" lon="5.4185">
        <ele>962.42</ele>
        <time>2014-04-18T10:54:08Z</time>
      </trkpt>
      <trkpt lat="44.00091" lon="5.41851">
        <ele>961.46</ele>
        <time>2014-04-18T10:54:17Z</time>
      </trkpt>
      <trkpt lat="44.00089" lon="5.41853">
        <ele>961.46</ele>
        <time>2014-04-18T10:54:19Z</time>
      </trkpt>
      <trkpt lat="44.00084" lon="5.41857">
        <ele>960.49</ele>
        <time>2014-04-18T10:54:26Z</time>
      </trkpt>
      <trkpt lat="44.0008" lon="5.41865">
        <ele>960.49</ele>
        <time>2014-04-18T10:54:31Z</time>
      </trkpt>
      <trkpt lat="44.00075" lon="5.4188">
        <ele>959.05</ele>
        <time>2014-04-18T10:54:42Z</time>
      </trkpt>
      <trkpt lat="44.0007" lon="5.41889">
        <ele>958.57</ele>
        <time>2014-04-18T10:54:51Z</time>
      </trkpt>
      <trkpt lat="44.00067" lon="5.41894">
        <ele>958.09</ele>
        <time>2014-04-18T10:54:55Z</time>
      </trkpt>
      <trkpt lat="44.00062" lon="5.41906">
        <ele>958.09</ele>
        <time>2014-04-18T10:55:04Z</time>
      </trkpt>
      <trkpt lat="44.00057" lon="5.41911">
        <ele>957.13</ele>
        <time>2014-04-18T10:55:10Z</time>
      </trkpt>
      <trkpt lat="44.00046" lon="5.41927">
        <ele>956.17</ele>
        <time>2014-04-18T10:55:24Z</time>
      </trkpt>
      <trkpt lat="44.00038" lon="5.41941">
        <ele>955.69</ele>
        <time>2014-04-18T10:55:35Z</time>
      </trkpt>
      <trkpt lat="44.00029" lon="5.41953">
        <ele>955.69</ele>
        <time>2014-04-18T10:55:43Z</time>
      </trkpt>
      <trkpt lat="44.00019" lon="5.4196">
        <ele>955.69</ele>
        <time>2014-04-18T10:55:53Z</time>
      </trkpt>
      <trkpt lat="44.0001" lon="5.41965">
        <ele>955.69</ele>
        <time>2014-04-18T10:56:01Z</time>
      </trkpt>
      <trkpt lat="43.99996" lon="5.41971">
        <ele>955.69</ele>
        <time>2014-04-18T10:56:13Z</time>
      </trkpt>
      <trkpt lat="43.99984" lon="5.41978">
        <ele>955.69</ele>
        <time>2014-04-18T10:56:25Z</time>
      </trkpt>
      <trkpt lat="43.9997" lon="5.4198">
        <ele>955.69</ele>
        <time>2014-04-18T10:56:37Z</time>
      </trkpt>
      <trkpt lat="43.99956" lon="5.41985">
        <ele>955.69</ele>
        <time>2014-04-18T10:56:49Z</time>
      </trkpt>
      <trkpt lat="43.99947" lon="5.41992">
        <ele>955.69</ele>
        <time>2014-04-18T10:56:57Z</time>
      </trkpt>
      <trkpt lat="43.99932" lon="5.42">
        <ele>955.69</ele>
        <time>2014-04-18T10:57:09Z</time>
      </trkpt>
      <trkpt lat="43.99925" lon="5.42005">
        <ele>956.17</ele>
        <time>2014-04-18T10:57:15Z</time>
      </trkpt>
      <trkpt lat="43.99914" lon="5.42014">
        <ele>957.13</ele>
        <time>2014-04-18T10:57:26Z</time>
      </trkpt>
      <trkpt lat="43.999" lon="5.42022">
        <ele>958.57</ele>
        <time>2014-04-18T10:57:40Z</time>
      </trkpt>
      <trkpt lat="43.9989" lon="5.42032">
        <ele>959.53</ele>
        <time>2014-04-18T10:57:51Z</time>
      </trkpt>
      <trkpt lat="43.99878" lon="5.4204">
        <ele>960.49</ele>
        <time>2014-04-18T10:58:02Z</time>
      </trkpt>
      <trkpt lat="43.99866" lon="5.42047">
        <ele>960.98</ele>
        <time>2014-04-18T10:58:14Z</time>
      </trkpt>
      <trkpt lat="43.99853" lon="5.42052">
        <ele>961.46</ele>
        <time>2014-04-18T10:58:26Z</time>
      </trkpt>
      <trkpt lat="43.99838" lon="5.42057">
        <ele>961.46</ele>
        <time>2014-04-18T10:58:39Z</time>
      </trkpt>
      <trkpt lat="43.99822" lon="5.42066">
        <ele>961.46</ele>
        <time>2014-04-18T10:58:52Z</time>
      </trkpt>
      <trkpt lat="43.99809" lon="5.42079">
        <ele>962.42</ele>
        <time>2014-04-18T10:59:06Z</time>
      </trkpt>
      <trkpt lat="43.99797" lon="5.42087">
        <ele>962.42</ele>
        <time>2014-04-18T10:59:17Z</time>
      </trkpt>
      <trkpt lat="43.99785" lon="5.42088">
        <ele>961.94</ele>
        <time>2014-04-18T10:59:28Z</time>
      </trkpt>
      <trkpt lat="43.99778" lon="5.42091">
        <ele>961.94</ele>
        <time>2014-04-18T10:59:36Z</time>
      </trkpt>
      <trkpt lat="43.9976" lon="5.42102">
        <ele>962.42</ele>
        <time>2014-04-18T10:59:49Z</time>
      </trkpt>
      <trkpt lat="43.99749" lon="5.42116">
        <ele>961.94</ele>
        <time>2014-04-18T10:59:59Z</time>
      </trkpt>
      <trkpt lat="43.99747" lon="5.42122">
        <ele>961.94</ele>
        <time>2014-04-18T11:00:02Z</time>
      </trkpt>
      <trkpt lat="43.99739" lon="5.4214">
        <ele>961.94</ele>
        <time>2014-04-18T11:00:15Z</time>
      </trkpt>
      <trkpt lat="43.99735" lon="5.42151">
        <ele>961.94</ele>
        <time>2014-04-18T11:00:22Z</time>
      </trkpt>
      <trkpt lat="43.99732" lon="5.42159">
        <ele>961.94</ele>
        <time>2014-04-18T11:00:27Z</time>
      </trkpt>
      <trkpt lat="43.99724" lon="5.42185">
        <ele>960.98</ele>
        <time>2014-04-18T11:00:41Z</time>
      </trkpt>
      <trkpt lat="43.99724" lon="5.42196">
        <ele>960.49</ele>
        <time>2014-04-18T11:00:51Z</time>
      </trkpt>
      <trkpt lat="43.9973" lon="5.42202">
        <ele>961.46</ele>
        <time>2014-04-18T11:00:59Z</time>
      </trkpt>
      <trkpt lat="43.99736" lon="5.42207">
        <ele>961.46</ele>
        <time>2014-04-18T11:01:09Z</time>
      </trkpt>
      <trkpt lat="43.99738" lon="5.42207">
        <ele>961.46</ele>
        <time>2014-04-18T11:01:27Z</time>
      </trkpt>
      <trkpt lat="43.99739" lon="5.42212">
        <ele>961.46</ele>
        <time>2014-04-18T11:01:32Z</time>
      </trkpt>
      <trkpt lat="43.99741" lon="5.4222">
        <ele>960.98</ele>
        <time>2014-04-18T11:01:42Z</time>
      </trkpt>
      <trkpt lat="43.99749" lon="5.42223">
        <ele>961.94</ele>
        <time>2014-04-18T11:01:52Z</time>
      </trkpt>
      <trkpt lat="43.99754" lon="5.42221">
        <ele>961.46</ele>
        <time>2014-04-18T11:02:02Z</time>
      </trkpt>
      <trkpt lat="43.99763" lon="5.42219">
        <ele>961.94</ele>
        <time>2014-04-18T11:02:13Z</time>
      </trkpt>
      <trkpt lat="43.99763" lon="5.42219">
        <ele>961.46</ele>
        <time>2014-04-18T11:02:26Z</time>
      </trkpt>
      <trkpt lat="43.99763" lon="5.42218">
        <ele>961.94</ele>
        <time>2014-04-18T11:02:42Z</time>
      </trkpt>
      <trkpt lat="43.99763" lon="5.42218">
        <ele>961.94</ele>
        <time>2014-04-18T11:03:00Z</time>
      </trkpt>
      <trkpt lat="43.99763" lon="5.42219">
        <ele>961.46</ele>
        <time>2014-04-18T11:03:18Z</time>
      </trkpt>
      <trkpt lat="43.99763" lon="5.42219">
        <ele>961.94</ele>
        <time>2014-04-18T11:03:34Z</time>
      </trkpt>
      <trkpt lat="43.99763" lon="5.42219">
        <ele>961.46</ele>
        <time>2014-04-18T11:03:53Z</time>
      </trkpt>
      <trkpt lat="43.99763" lon="5.4222">
        <ele>961.46</ele>
        <time>2014-04-18T11:04:13Z</time>
      </trkpt>
      <trkpt lat="43.99763" lon="5.4222">
        <ele>962.9</ele>
        <time>2014-04-18T11:04:29Z</time>
      </trkpt>
      <trkpt lat="43.99763" lon="5.4222">
        <ele>961.94</ele>
        <time>2014-04-18T11:04:47Z</time>
      </trkpt>
      <trkpt lat="43.99763" lon="5.4222">
        <ele>961.94</ele>
        <time>2014-04-18T11:05:04Z</time>
      </trkpt>
      <trkpt lat="43.99763" lon="5.42219">
        <ele>961.94</ele>
        <time>2014-04-18T11:05:21Z</time>
      </trkpt>
      <trkpt lat="43.99763" lon="5.42219">
        <ele>962.42</ele>
        <time>2014-04-18T11:05:38Z</time>
      </trkpt>
      <trkpt lat="43.99763" lon="5.42219">
        <ele>962.42</ele>
        <time>2014-04-18T11:05:58Z</time>
      </trkpt>
      <trkpt lat="43.99763" lon="5.42218">
        <ele>962.42</ele>
        <time>2014-04-18T11:06:18Z</time>
      </trkpt>
      <trkpt lat="43.99763" lon="5.42218">
        <ele>962.42</ele>
        <time>2014-04-18T11:06:36Z</time>
      </trkpt>
      <trkpt lat="43.99763" lon="5.42218">
        <ele>962.9</ele>
        <time>2014-04-18T11:06:57Z</time>
      </trkpt>
      <trkpt lat="43.99763" lon="5.42218">
        <ele>962.42</ele>
        <time>2014-04-18T11:07:17Z</time>
      </trkpt>
      <trkpt lat="43.99763" lon="5.42217">
        <ele>962.9</ele>
        <time>2014-04-18T11:07:34Z</time>
      </trkpt>
      <trkpt lat="43.99763" lon="5.42217">
        <ele>962.42</ele>
        <time>2014-04-18T11:07:56Z</time>
      </trkpt>
      <trkpt lat="43.99763" lon="5.42217">
        <ele>962.9</ele>
        <time>2014-04-18T11:08:18Z</time>
      </trkpt>
      <trkpt lat="43.99763" lon="5.42217">
        <ele>962.9</ele>
        <time>2014-04-18T11:08:37Z</time>
      </trkpt>
      <trkpt lat="43.99763" lon="5.42217">
        <ele>962.9</ele>
        <time>2014-04-18T11:08:53Z</time>
      </trkpt>
      <trkpt lat="43.99763" lon="5.42217">
        <ele>963.38</ele>
        <time>2014-04-18T11:09:13Z</time>
      </trkpt>
      <trkpt lat="43.99763" lon="5.42217">
        <ele>963.38</ele>
        <time>2014-04-18T11:09:34Z</time>
      </trkpt>
      <trkpt lat="43.99763" lon="5.42217">
        <ele>963.38</ele>
        <time>2014-04-18T11:09:50Z</time>
      </trkpt>
      <trkpt lat="43.99762" lon="5.42217">
        <ele>963.38</ele>
        <time>2014-04-18T11:10:11Z</time>
      </trkpt>
      <trkpt lat="43.99763" lon="5.42217">
        <ele>963.38</ele>
        <time>2014-04-18T11:10:34Z</time>
      </trkpt>
      <trkpt lat="43.99763" lon="5.42217">
        <ele>963.38</ele>
        <time>2014-04-18T11:10:53Z</time>
      </trkpt>
      <trkpt lat="43.99763" lon="5.42216">
        <ele>963.38</ele>
        <time>2014-04-18T11:11:14Z</time>
      </trkpt>
      <trkpt lat="43.99763" lon="5.42216">
        <ele>963.38</ele>
        <time>2014-04-18T11:11:34Z</time>
      </trkpt>
      <trkpt lat="43.99763" lon="5.42216">
        <ele>963.86</ele>
        <time>2014-04-18T11:11:55Z</time>
      </trkpt>
      <trkpt lat="43.99764" lon="5.42216">
        <ele>963.86</ele>
        <time>2014-04-18T11:12:19Z</time>
      </trkpt>
      <trkpt lat="43.99764" lon="5.42216">
        <ele>963.86</ele>
        <time>2014-04-18T11:12:40Z</time>
      </trkpt>
      <trkpt lat="43.99764" lon="5.42216">
        <ele>963.86</ele>
        <time>2014-04-18T11:12:59Z</time>
      </trkpt>
      <trkpt lat="43.99764" lon="5.42217">
        <ele>963.86</ele>
        <time>2014-04-18T11:13:22Z</time>
      </trkpt>
      <trkpt lat="43.99764" lon="5.42217">
        <ele>963.86</ele>
        <time>2014-04-18T11:13:43Z</time>
      </trkpt>
      <trkpt lat="43.99763" lon="5.42217">
        <ele>964.34</ele>
        <time>2014-04-18T11:14:02Z</time>
      </trkpt>
      <trkpt lat="43.99763" lon="5.42218">
        <ele>964.34</ele>
        <time>2014-04-18T11:14:20Z</time>
      </trkpt>
      <trkpt lat="43.99763" lon="5.4222">
        <ele>963.86</ele>
        <time>2014-04-18T11:14:42Z</time>
      </trkpt>
      <trkpt lat="43.99762" lon="5.42221">
        <ele>963.86</ele>
        <time>2014-04-18T11:14:59Z</time>
      </trkpt>
      <trkpt lat="43.99763" lon="5.42221">
        <ele>964.34</ele>
        <time>2014-04-18T11:15:23Z</time>
      </trkpt>
      <trkpt lat="43.99763" lon="5.42221">
        <ele>964.34</ele>
        <time>2014-04-18T11:15:46Z</time>
      </trkpt>
      <trkpt lat="43.99763" lon="5.42221">
        <ele>964.34</ele>
        <time>2014-04-18T11:16:09Z</time>
      </trkpt>
      <trkpt lat="43.99762" lon="5.42221">
        <ele>964.34</ele>
        <time>2014-04-18T11:16:20Z</time>
      </trkpt>
      <trkpt lat="43.99762" lon="5.42222">
        <ele>964.34</ele>
        <time>2014-04-18T11:16:28Z</time>
      </trkpt>
      <trkpt lat="43.99762" lon="5.42221">
        <ele>964.82</ele>
        <time>2014-04-18T11:16:49Z</time>
      </trkpt>
      <trkpt lat="43.99762" lon="5.42221">
        <ele>964.82</ele>
        <time>2014-04-18T11:17:16Z</time>
      </trkpt>
      <trkpt lat="43.99761" lon="5.42221">
        <ele>964.82</ele>
        <time>2014-04-18T11:17:44Z</time>
      </trkpt>
      <trkpt lat="43.99761" lon="5.4222">
        <ele>964.82</ele>
        <time>2014-04-18T11:18:06Z</time>
      </trkpt>
      <trkpt lat="43.99763" lon="5.42221">
        <ele>964.82</ele>
        <time>2014-04-18T11:18:30Z</time>
      </trkpt>
      <trkpt lat="43.99763" lon="5.4222">
        <ele>965.3</ele>
        <time>2014-04-18T11:18:56Z</time>
      </trkpt>
      <trkpt lat="43.99763" lon="5.4222">
        <ele>965.3</ele>
        <time>2014-04-18T11:19:18Z</time>
      </trkpt>
      <trkpt lat="43.99763" lon="5.4222">
        <ele>965.3</ele>
        <time>2014-04-18T11:19:42Z</time>
      </trkpt>
      <trkpt lat="43.99763" lon="5.42219">
        <ele>965.78</ele>
        <time>2014-04-18T11:20:04Z</time>
      </trkpt>
      <trkpt lat="43.99762" lon="5.4222">
        <ele>965.3</ele>
        <time>2014-04-18T11:20:26Z</time>
      </trkpt>
      <trkpt lat="43.99762" lon="5.4222">
        <ele>965.3</ele>
        <time>2014-04-18T11:20:50Z</time>
      </trkpt>
      <trkpt lat="43.99762" lon="5.42219">
        <ele>965.78</ele>
        <time>2014-04-18T11:21:07Z</time>
      </trkpt>
      <trkpt lat="43.99762" lon="5.42219">
        <ele>965.3</ele>
        <time>2014-04-18T11:21:27Z</time>
      </trkpt>
      <trkpt lat="43.99762" lon="5.42219">
        <ele>965.78</ele>
        <time>2014-04-18T11:21:51Z</time>
      </trkpt>
      <trkpt lat="43.99762" lon="5.42219">
        <ele>965.78</ele>
        <time>2014-04-18T11:22:08Z</time>
      </trkpt>
      <trkpt lat="43.99762" lon="5.42219">
        <ele>965.3</ele>
        <time>2014-04-18T11:22:30Z</time>
      </trkpt>
      <trkpt lat="43.99762" lon="5.42221">
        <ele>964.82</ele>
        <time>2014-04-18T11:22:48Z</time>
      </trkpt>
      <trkpt lat="43.99762" lon="5.42222">
        <ele>965.78</ele>
        <time>2014-04-18T11:23:05Z</time>
      </trkpt>
      <trkpt lat="43.99763" lon="5.42222">
        <ele>965.78</ele>
        <time>2014-04-18T11:23:22Z</time>
      </trkpt>
      <trkpt lat="43.99764" lon="5.42216">
        <ele>965.3</ele>
        <time>2014-04-18T11:23:33Z</time>
      </trkpt>
      <trkpt lat="43.99763" lon="5.42222">
        <ele>965.3</ele>
        <time>2014-04-18T11:23:53Z</time>
      </trkpt>
      <trkpt lat="43.99763" lon="5.42224">
        <ele>963.86</ele>
        <time>2014-04-18T11:24:14Z</time>
      </trkpt>
      <trkpt lat="43.99763" lon="5.42224">
        <ele>967.7</ele>
        <time>2014-04-18T11:24:15Z</time>
      </trkpt>
      <trkpt lat="43.99762" lon="5.42224">
        <ele>966.26</ele>
        <time>2014-04-18T11:24:36Z</time>
      </trkpt>
      <trkpt lat="43.99762" lon="5.42224">
        <ele>966.26</ele>
        <time>2014-04-18T11:24:53Z</time>
      </trkpt>
      <trkpt lat="43.99762" lon="5.42225">
        <ele>966.26</ele>
        <time>2014-04-18T11:25:12Z</time>
      </trkpt>
      <trkpt lat="43.99762" lon="5.42224">
        <ele>965.78</ele>
        <time>2014-04-18T11:25:31Z</time>
      </trkpt>
      <trkpt lat="43.99762" lon="5.42224">
        <ele>966.26</ele>
        <time>2014-04-18T11:25:48Z</time>
      </trkpt>
      <trkpt lat="43.99763" lon="5.42222">
        <ele>965.78</ele>
        <time>2014-04-18T11:26:00Z</time>
      </trkpt>
      <trkpt lat="43.99762" lon="5.42227">
        <ele>965.78</ele>
        <time>2014-04-18T11:26:11Z</time>
      </trkpt>
      <trkpt lat="43.99761" lon="5.4223">
        <ele>966.26</ele>
        <time>2014-04-18T11:26:17Z</time>
      </trkpt>
      <trkpt lat="43.99763" lon="5.42219">
        <ele>967.7</ele>
        <time>2014-04-18T11:26:28Z</time>
      </trkpt>
      <trkpt lat="43.99763" lon="5.42218">
        <ele>963.86</ele>
        <time>2014-04-18T11:26:30Z</time>
      </trkpt>
      <trkpt lat="43.99763" lon="5.42218">
        <ele>967.22</ele>
        <time>2014-04-18T11:26:31Z</time>
      </trkpt>
      <trkpt lat="43.99764" lon="5.42219">
        <ele>965.3</ele>
        <time>2014-04-18T11:26:49Z</time>
      </trkpt>
      <trkpt lat="43.99763" lon="5.42219">
        <ele>965.3</ele>
        <time>2014-04-18T11:27:07Z</time>
      </trkpt>
      <trkpt lat="43.99763" lon="5.42218">
        <ele>966.26</ele>
        <time>2014-04-18T11:27:23Z</time>
      </trkpt>
      <trkpt lat="43.99763" lon="5.42218">
        <ele>965.78</ele>
        <time>2014-04-18T11:27:42Z</time>
      </trkpt>
      <trkpt lat="43.99763" lon="5.42219">
        <ele>965.78</ele>
        <time>2014-04-18T11:27:57Z</time>
      </trkpt>
      <trkpt lat="43.99763" lon="5.42218">
        <ele>965.78</ele>
        <time>2014-04-18T11:28:09Z</time>
      </trkpt>
      <trkpt lat="43.99764" lon="5.42217">
        <ele>965.78</ele>
        <time>2014-04-18T11:28:25Z</time>
      </trkpt>
      <trkpt lat="43.99765" lon="5.42218">
        <ele>966.74</ele>
        <time>2014-04-18T11:28:37Z</time>
      </trkpt>
      <trkpt lat="43.99765" lon="5.42218">
        <ele>966.26</ele>
        <time>2014-04-18T11:28:38Z</time>
      </trkpt>
      <trkpt lat="43.99766" lon="5.42218">
        <ele>965.3</ele>
        <time>2014-04-18T11:28:57Z</time>
      </trkpt>
      <trkpt lat="43.99766" lon="5.42218">
        <ele>966.74</ele>
        <time>2014-04-18T11:29:19Z</time>
      </trkpt>
      <trkpt lat="43.99766" lon="5.42218">
        <ele>966.26</ele>
        <time>2014-04-18T11:29:39Z</time>
      </trkpt>
      <trkpt lat="43.99766" lon="5.42217">
        <ele>967.22</ele>
        <time>2014-04-18T11:29:57Z</time>
      </trkpt>
      <trkpt lat="43.99765" lon="5.42218">
        <ele>966.26</ele>
        <time>2014-04-18T11:30:16Z</time>
      </trkpt>
      <trkpt lat="43.99765" lon="5.42219">
        <ele>966.26</ele>
        <time>2014-04-18T11:30:34Z</time>
      </trkpt>
      <trkpt lat="43.99765" lon="5.42219">
        <ele>966.26</ele>
        <time>2014-04-18T11:30:49Z</time>
      </trkpt>
      <trkpt lat="43.99765" lon="5.4222">
        <ele>967.22</ele>
        <time>2014-04-18T11:31:09Z</time>
      </trkpt>
      <trkpt lat="43.99764" lon="5.4222">
        <ele>968.18</ele>
        <time>2014-04-18T11:31:19Z</time>
      </trkpt>
      <trkpt lat="43.99764" lon="5.4222">
        <ele>967.7</ele>
        <time>2014-04-18T11:31:26Z</time>
      </trkpt>
      <trkpt lat="43.99764" lon="5.4222">
        <ele>964.34</ele>
        <time>2014-04-18T11:31:28Z</time>
      </trkpt>
      <trkpt lat="43.99764" lon="5.4222">
        <ele>968.67</ele>
        <time>2014-04-18T11:31:29Z</time>
      </trkpt>
      <trkpt lat="43.99765" lon="5.4222">
        <ele>967.7</ele>
        <time>2014-04-18T11:31:45Z</time>
      </trkpt>
      <trkpt lat="43.99762" lon="5.42218">
        <ele>967.7</ele>
        <time>2014-04-18T11:31:54Z</time>
      </trkpt>
      <trkpt lat="43.99758" lon="5.42219">
        <ele>967.7</ele>
        <time>2014-04-18T11:32:02Z</time>
      </trkpt>
      <trkpt lat="43.99753" lon="5.42223">
        <ele>967.7</ele>
        <time>2014-04-18T11:32:14Z</time>
      </trkpt>
      <trkpt lat="43.99749" lon="5.42224">
        <ele>967.22</ele>
        <time>2014-04-18T11:32:23Z</time>
      </trkpt>
      <trkpt lat="43.99744" lon="5.42225">
        <ele>967.22</ele>
        <time>2014-04-18T11:32:31Z</time>
      </trkpt>
      <trkpt lat="43.99742" lon="5.42225">
        <ele>967.22</ele>
        <time>2014-04-18T11:32:44Z</time>
      </trkpt>
      <trkpt lat="43.99739" lon="5.42214">
        <ele>966.74</ele>
        <time>2014-04-18T11:32:57Z</time>
      </trkpt>
      <trkpt lat="43.99737" lon="5.4221">
        <ele>966.74</ele>
        <time>2014-04-18T11:33:10Z</time>
      </trkpt>
      <trkpt lat="43.99728" lon="5.42203">
        <ele>966.26</ele>
        <time>2014-04-18T11:33:22Z</time>
      </trkpt>
      <trkpt lat="43.99723" lon="5.42211">
        <ele>965.78</ele>
        <time>2014-04-18T11:33:32Z</time>
      </trkpt>
      <trkpt lat="43.99726" lon="5.42219">
        <ele>965.78</ele>
        <time>2014-04-18T11:33:38Z</time>
      </trkpt>
      <trkpt lat="43.99729" lon="5.42227">
        <ele>965.3</ele>
        <time>2014-04-18T11:33:44Z</time>
      </trkpt>
      <trkpt lat="43.9973" lon="5.42232">
        <ele>965.78</ele>
        <time>2014-04-18T11:33:47Z</time>
      </trkpt>
      <trkpt lat="43.99736" lon="5.42241">
        <ele>965.3</ele>
        <time>2014-04-18T11:33:56Z</time>
      </trkpt>
      <trkpt lat="43.99739" lon="5.42247">
        <ele>965.3</ele>
        <time>2014-04-18T11:34:00Z</time>
      </trkpt>
      <trkpt lat="43.99742" lon="5.42255">
        <ele>965.3</ele>
        <time>2014-04-18T11:34:04Z</time>
      </trkpt>
      <trkpt lat="43.99751" lon="5.42268">
        <ele>965.78</ele>
        <time>2014-04-18T11:34:15Z</time>
      </trkpt>
      <trkpt lat="43.99757" lon="5.42279">
        <ele>965.78</ele>
        <time>2014-04-18T11:34:24Z</time>
      </trkpt>
      <trkpt lat="43.99767" lon="5.42294">
        <ele>965.3</ele>
        <time>2014-04-18T11:34:37Z</time>
      </trkpt>
      <trkpt lat="43.99768" lon="5.42304">
        <ele>965.3</ele>
        <time>2014-04-18T11:34:45Z</time>
      </trkpt>
      <trkpt lat="43.99769" lon="5.42316">
        <ele>964.82</ele>
        <time>2014-04-18T11:34:54Z</time>
      </trkpt>
      <trkpt lat="43.9977" lon="5.4232">
        <ele>964.82</ele>
        <time>2014-04-18T11:35:05Z</time>
      </trkpt>
      <trkpt lat="43.99771" lon="5.42324">
        <ele>964.82</ele>
        <time>2014-04-18T11:35:13Z</time>
      </trkpt>
      <trkpt lat="43.99771" lon="5.42323">
        <ele>964.82</ele>
        <time>2014-04-18T11:35:29Z</time>
      </trkpt>
      <trkpt lat="43.9977" lon="5.42323">
        <ele>964.82</ele>
        <time>2014-04-18T11:35:36Z</time>
      </trkpt>
      <trkpt lat="43.9977" lon="5.42324">
        <ele>964.82</ele>
        <time>2014-04-18T11:35:44Z</time>
      </trkpt>
      <trkpt lat="43.99771" lon="5.42322">
        <ele>964.82</ele>
        <time>2014-04-18T11:35:59Z</time>
      </trkpt>
      <trkpt lat="43.99771" lon="5.42321">
        <ele>964.82</ele>
        <time>2014-04-18T11:36:14Z</time>
      </trkpt>
      <trkpt lat="43.99772" lon="5.4232">
        <ele>964.82</ele>
        <time>2014-04-18T11:36:32Z</time>
      </trkpt>
      <trkpt lat="43.99772" lon="5.42319">
        <ele>964.34</ele>
        <time>2014-04-18T11:36:46Z</time>
      </trkpt>
      <trkpt lat="43.99772" lon="5.42319">
        <ele>965.78</ele>
        <time>2014-04-18T11:36:56Z</time>
      </trkpt>
      <trkpt lat="43.99771" lon="5.42319">
        <ele>964.82</ele>
        <time>2014-04-18T11:37:13Z</time>
      </trkpt>
      <trkpt lat="43.99772" lon="5.42319">
        <ele>964.82</ele>
        <time>2014-04-18T11:37:35Z</time>
      </trkpt>
      <trkpt lat="43.99772" lon="5.42319">
        <ele>961.46</ele>
        <time>2014-04-18T11:37:42Z</time>
      </trkpt>
      <trkpt lat="43.99771" lon="5.42319">
        <ele>961.46</ele>
        <time>2014-04-18T11:37:43Z</time>
      </trkpt>
      <trkpt lat="43.99771" lon="5.42319">
        <ele>966.74</ele>
        <time>2014-04-18T11:37:44Z</time>
      </trkpt>
      <trkpt lat="43.99771" lon="5.42319">
        <ele>964.82</ele>
        <time>2014-04-18T11:37:45Z</time>
      </trkpt>
      <trkpt lat="43.99771" lon="5.42319">
        <ele>965.3</ele>
        <time>2014-04-18T11:37:49Z</time>
      </trkpt>
      <trkpt lat="43.99771" lon="5.42319">
        <ele>961.46</ele>
        <time>2014-04-18T11:38:07Z</time>
      </trkpt>
      <trkpt lat="43.99771" lon="5.42319">
        <ele>968.18</ele>
        <time>2014-04-18T11:38:08Z</time>
      </trkpt>
      <trkpt lat="43.99771" lon="5.42319">
        <ele>961.46</ele>
        <time>2014-04-18T11:38:10Z</time>
      </trkpt>
      <trkpt lat="43.99771" lon="5.42319">
        <ele>967.7</ele>
        <time>2014-04-18T11:38:11Z</time>
      </trkpt>
      <trkpt lat="43.99771" lon="5.42318">
        <ele>964.34</ele>
        <time>2014-04-18T11:38:21Z</time>
      </trkpt>
      <trkpt lat="43.9977" lon="5.42319">
        <ele>965.3</ele>
        <time>2014-04-18T11:38:43Z</time>
      </trkpt>
      <trkpt lat="43.99769" lon="5.42318">
        <ele>964.82</ele>
        <time>2014-04-18T11:38:54Z</time>
      </trkpt>
      <trkpt lat="43.99766" lon="5.42306">
        <ele>964.82</ele>
        <time>2014-04-18T11:39:04Z</time>
      </trkpt>
      <trkpt lat="43.99763" lon="5.42293">
        <ele>965.3</ele>
        <time>2014-04-18T11:39:15Z</time>
      </trkpt>
      <trkpt lat="43.99761" lon="5.42289">
        <ele>965.3</ele>
        <time>2014-04-18T11:39:28Z</time>
      </trkpt>
      <trkpt lat="43.99756" lon="5.42281">
        <ele>965.3</ele>
        <time>2014-04-18T11:39:34Z</time>
      </trkpt>
      <trkpt lat="43.9975" lon="5.42272">
        <ele>965.3</ele>
        <time>2014-04-18T11:39:41Z</time>
      </trkpt>
      <trkpt lat="43.99746" lon="5.42267">
        <ele>965.3</ele>
        <time>2014-04-18T11:39:46Z</time>
      </trkpt>
      <trkpt lat="43.99736" lon="5.4226">
        <ele>965.3</ele>
        <time>2014-04-18T11:39:58Z</time>
      </trkpt>
      <trkpt lat="43.99733" lon="5.42259">
        <ele>965.3</ele>
        <time>2014-04-18T11:40:01Z</time>
      </trkpt>
      <trkpt lat="43.9973" lon="5.42252">
        <ele>965.3</ele>
        <time>2014-04-18T11:40:06Z</time>
      </trkpt>
      <trkpt lat="43.99724" lon="5.42245">
        <ele>965.3</ele>
        <time>2014-04-18T11:40:16Z</time>
      </trkpt>
      <trkpt lat="43.99723" lon="5.42244">
        <ele>965.3</ele>
        <time>2014-04-18T11:40:18Z</time>
      </trkpt>
      <trkpt lat="43.9972" lon="5.42242">
        <ele>965.3</ele>
        <time>2014-04-18T11:40:29Z</time>
      </trkpt>
      <trkpt lat="43.99725" lon="5.42249">
        <ele>964.82</ele>
        <time>2014-04-18T11:40:36Z</time>
      </trkpt>
      <trkpt lat="43.99727" lon="5.42252">
        <ele>966.26</ele>
        <time>2014-04-18T11:40:38Z</time>
      </trkpt>
      <trkpt lat="43.9973" lon="5.42259">
        <ele>965.3</ele>
        <time>2014-04-18T11:40:43Z</time>
      </trkpt>
      <trkpt lat="43.99731" lon="5.42261">
        <ele>965.3</ele>
        <time>2014-04-18T11:40:52Z</time>
      </trkpt>
      <trkpt lat="43.99723" lon="5.42245">
        <ele>965.3</ele>
        <time>2014-04-18T11:41:03Z</time>
      </trkpt>
      <trkpt lat="43.99713" lon="5.42235">
        <ele>965.3</ele>
        <time>2014-04-18T11:41:13Z</time>
      </trkpt>
      <trkpt lat="43.997" lon="5.42227">
        <ele>964.34</ele>
        <time>2014-04-18T11:41:21Z</time>
      </trkpt>
      <trkpt lat="43.99699" lon="5.42227">
        <ele>964.34</ele>
        <time>2014-04-18T11:41:22Z</time>
      </trkpt>
      <trkpt lat="43.99696" lon="5.42222">
        <ele>964.34</ele>
        <time>2014-04-18T11:41:26Z</time>
      </trkpt>
      <trkpt lat="43.99689" lon="5.42217">
        <ele>964.34</ele>
        <time>2014-04-18T11:41:32Z</time>
      </trkpt>
      <trkpt lat="43.99674" lon="5.42208">
        <ele>962.9</ele>
        <time>2014-04-18T11:41:45Z</time>
      </trkpt>
      <trkpt lat="43.99662" lon="5.42199">
        <ele>962.42</ele>
        <time>2014-04-18T11:41:56Z</time>
      </trkpt>
      <trkpt lat="43.9966" lon="5.42198">
        <ele>962.42</ele>
        <time>2014-04-18T11:41:58Z</time>
      </trkpt>
      <trkpt lat="43.99646" lon="5.42192">
        <ele>961.94</ele>
        <time>2014-04-18T11:42:10Z</time>
      </trkpt>
      <trkpt lat="43.99646" lon="5.42192">
        <ele>965.78</ele>
        <time>2014-04-18T11:42:12Z</time>
      </trkpt>
      <trkpt lat="43.99646" lon="5.42192">
        <ele>960.98</ele>
        <time>2014-04-18T11:42:13Z</time>
      </trkpt>
      <trkpt lat="43.99646" lon="5.42192">
        <ele>961.46</ele>
        <time>2014-04-18T11:42:24Z</time>
      </trkpt>
      <trkpt lat="43.99644" lon="5.42191">
        <ele>961.94</ele>
        <time>2014-04-18T11:42:38Z</time>
      </trkpt>
      <trkpt lat="43.99633" lon="5.42185">
        <ele>960.98</ele>
        <time>2014-04-18T11:42:49Z</time>
      </trkpt>
      <trkpt lat="43.99619" lon="5.42179">
        <ele>960.01</ele>
        <time>2014-04-18T11:43:00Z</time>
      </trkpt>
      <trkpt lat="43.9961" lon="5.42174">
        <ele>959.53</ele>
        <time>2014-04-18T11:43:08Z</time>
      </trkpt>
      <trkpt lat="43.99607" lon="5.42173">
        <ele>959.05</ele>
        <time>2014-04-18T11:43:11Z</time>
      </trkpt>
      <trkpt lat="43.99592" lon="5.42172">
        <ele>959.05</ele>
        <time>2014-04-18T11:43:23Z</time>
      </trkpt>
      <trkpt lat="43.99581" lon="5.42167">
        <ele>958.09</ele>
        <time>2014-04-18T11:43:32Z</time>
      </trkpt>
      <trkpt lat="43.99574" lon="5.42164">
        <ele>957.61</ele>
        <time>2014-04-18T11:43:37Z</time>
      </trkpt>
      <trkpt lat="43.9956" lon="5.42159">
        <ele>957.13</ele>
        <time>2014-04-18T11:43:47Z</time>
      </trkpt>
      <trkpt lat="43.99548" lon="5.42155">
        <ele>956.65</ele>
        <time>2014-04-18T11:43:55Z</time>
      </trkpt>
      <trkpt lat="43.99535" lon="5.42148">
        <ele>956.17</ele>
        <time>2014-04-18T11:44:06Z</time>
      </trkpt>
      <trkpt lat="43.9952" lon="5.42144">
        <ele>955.69</ele>
        <time>2014-04-18T11:44:17Z</time>
      </trkpt>
      <trkpt lat="43.99509" lon="5.42138">
        <ele>954.73</ele>
        <time>2014-04-18T11:44:27Z</time>
      </trkpt>
      <trkpt lat="43.99496" lon="5.42126">
        <ele>954.25</ele>
        <time>2014-04-18T11:44:38Z</time>
      </trkpt>
      <trkpt lat="43.99483" lon="5.42117">
        <ele>953.28</ele>
        <time>2014-04-18T11:44:49Z</time>
      </trkpt>
      <trkpt lat="43.99474" lon="5.42108">
        <ele>952.8</ele>
        <time>2014-04-18T11:44:59Z</time>
      </trkpt>
      <trkpt lat="43.99472" lon="5.42106">
        <ele>952.8</ele>
        <time>2014-04-18T11:45:01Z</time>
      </trkpt>
      <trkpt lat="43.99458" lon="5.4209">
        <ele>952.32</ele>
        <time>2014-04-18T11:45:13Z</time>
      </trkpt>
      <trkpt lat="43.99453" lon="5.42086">
        <ele>951.84</ele>
        <time>2014-04-18T11:45:21Z</time>
      </trkpt>
      <trkpt lat="43.99439" lon="5.42076">
        <ele>950.88</ele>
        <time>2014-04-18T11:45:34Z</time>
      </trkpt>
      <trkpt lat="43.99431" lon="5.42066">
        <ele>949.92</ele>
        <time>2014-04-18T11:45:44Z</time>
      </trkpt>
      <trkpt lat="43.99425" lon="5.42061">
        <ele>949.92</ele>
        <time>2014-04-18T11:45:49Z</time>
      </trkpt>
      <trkpt lat="43.99423" lon="5.42058">
        <ele>949.92</ele>
        <time>2014-04-18T11:45:51Z</time>
      </trkpt>
      <trkpt lat="43.99409" lon="5.42047">
        <ele>949.44</ele>
        <time>2014-04-18T11:46:02Z</time>
      </trkpt>
      <trkpt lat="43.99404" lon="5.4205">
        <ele>950.4</ele>
        <time>2014-04-18T11:46:09Z</time>
      </trkpt>
      <trkpt lat="43.99393" lon="5.42057">
        <ele>950.88</ele>
        <time>2014-04-18T11:46:20Z</time>
      </trkpt>
      <trkpt lat="43.99385" lon="5.4206">
        <ele>951.36</ele>
        <time>2014-04-18T11:46:28Z</time>
      </trkpt>
      <trkpt lat="43.99379" lon="5.42063">
        <ele>951.84</ele>
        <time>2014-04-18T11:46:37Z</time>
      </trkpt>
      <trkpt lat="43.99361" lon="5.42064">
        <ele>951.84</ele>
        <time>2014-04-18T11:46:50Z</time>
      </trkpt>
      <trkpt lat="43.99341" lon="5.42071">
        <ele>952.32</ele>
        <time>2014-04-18T11:47:04Z</time>
      </trkpt>
      <trkpt lat="43.99324" lon="5.42077">
        <ele>951.84</ele>
        <time>2014-04-18T11:47:18Z</time>
      </trkpt>
      <trkpt lat="43.99309" lon="5.42074">
        <ele>951.36</ele>
        <time>2014-04-18T11:47:31Z</time>
      </trkpt>
      <trkpt lat="43.99287" lon="5.42069">
        <ele>951.36</ele>
        <time>2014-04-18T11:47:45Z</time>
      </trkpt>
      <trkpt lat="43.99275" lon="5.42061">
        <ele>951.36</ele>
        <time>2014-04-18T11:47:55Z</time>
      </trkpt>
      <trkpt lat="43.99262" lon="5.42055">
        <ele>950.88</ele>
        <time>2014-04-18T11:48:05Z</time>
      </trkpt>
      <trkpt lat="43.9926" lon="5.42054">
        <ele>950.88</ele>
        <time>2014-04-18T11:48:08Z</time>
      </trkpt>
      <trkpt lat="43.99241" lon="5.42045">
        <ele>950.88</ele>
        <time>2014-04-18T11:48:21Z</time>
      </trkpt>
      <trkpt lat="43.99223" lon="5.42039">
        <ele>950.88</ele>
        <time>2014-04-18T11:48:34Z</time>
      </trkpt>
      <trkpt lat="43.99208" lon="5.42041">
        <ele>951.36</ele>
        <time>2014-04-18T11:48:47Z</time>
      </trkpt>
      <trkpt lat="43.99192" lon="5.42047">
        <ele>951.84</ele>
        <time>2014-04-18T11:49:00Z</time>
      </trkpt>
      <trkpt lat="43.99176" lon="5.42057">
        <ele>951.36</ele>
        <time>2014-04-18T11:49:12Z</time>
      </trkpt>
      <trkpt lat="43.99165" lon="5.42059">
        <ele>951.84</ele>
        <time>2014-04-18T11:49:23Z</time>
      </trkpt>
      <trkpt lat="43.99148" lon="5.42062">
        <ele>951.84</ele>
        <time>2014-04-18T11:49:34Z</time>
      </trkpt>
      <trkpt lat="43.99136" lon="5.42059">
        <ele>952.32</ele>
        <time>2014-04-18T11:49:43Z</time>
      </trkpt>
      <trkpt lat="43.99125" lon="5.42052">
        <ele>952.32</ele>
        <time>2014-04-18T11:49:52Z</time>
      </trkpt>
      <trkpt lat="43.99112" lon="5.42048">
        <ele>952.8</ele>
        <time>2014-04-18T11:50:03Z</time>
      </trkpt>
      <trkpt lat="43.99101" lon="5.42052">
        <ele>954.25</ele>
        <time>2014-04-18T11:50:13Z</time>
      </trkpt>
      <trkpt lat="43.99092" lon="5.42057">
        <ele>956.17</ele>
        <time>2014-04-18T11:50:24Z</time>
      </trkpt>
      <trkpt lat="43.99081" lon="5.42068">
        <ele>957.61</ele>
        <time>2014-04-18T11:50:35Z</time>
      </trkpt>
      <trkpt lat="43.99071" lon="5.42074">
        <ele>959.05</ele>
        <time>2014-04-18T11:50:47Z</time>
      </trkpt>
      <trkpt lat="43.99066" lon="5.42077">
        <ele>960.49</ele>
        <time>2014-04-18T11:50:59Z</time>
      </trkpt>
      <trkpt lat="43.9905" lon="5.4209">
        <ele>961.94</ele>
        <time>2014-04-18T11:51:10Z</time>
      </trkpt>
      <trkpt lat="43.99041" lon="5.42095">
        <ele>962.9</ele>
        <time>2014-04-18T11:51:21Z</time>
      </trkpt>
      <trkpt lat="43.99035" lon="5.42099">
        <ele>964.34</ele>
        <time>2014-04-18T11:51:31Z</time>
      </trkpt>
      <trkpt lat="43.99029" lon="5.42104">
        <ele>965.78</ele>
        <time>2014-04-18T11:51:41Z</time>
      </trkpt>
      <trkpt lat="43.9902" lon="5.42114">
        <ele>967.22</ele>
        <time>2014-04-18T11:51:52Z</time>
      </trkpt>
      <trkpt lat="43.9901" lon="5.4212">
        <ele>969.15</ele>
        <time>2014-04-18T11:52:03Z</time>
      </trkpt>
      <trkpt lat="43.98998" lon="5.42118">
        <ele>971.07</ele>
        <time>2014-04-18T11:52:16Z</time>
      </trkpt>
      <trkpt lat="43.98988" lon="5.4211">
        <ele>972.51</ele>
        <time>2014-04-18T11:52:28Z</time>
      </trkpt>
      <trkpt lat="43.9898" lon="5.42107">
        <ele>973.95</ele>
        <time>2014-04-18T11:52:41Z</time>
      </trkpt>
      <trkpt lat="43.98972" lon="5.421">
        <ele>976.36</ele>
        <time>2014-04-18T11:52:51Z</time>
      </trkpt>
      <trkpt lat="43.98964" lon="5.42095">
        <ele>977.32</ele>
        <time>2014-04-18T11:53:03Z</time>
      </trkpt>
      <trkpt lat="43.98954" lon="5.42092">
        <ele>979.24</ele>
        <time>2014-04-18T11:53:15Z</time>
      </trkpt>
      <trkpt lat="43.98949" lon="5.42091">
        <ele>980.68</ele>
        <time>2014-04-18T11:53:26Z</time>
      </trkpt>
      <trkpt lat="43.98946" lon="5.42091">
        <ele>981.16</ele>
        <time>2014-04-18T11:53:32Z</time>
      </trkpt>
      <trkpt lat="43.98938" lon="5.42099">
        <ele>983.09</ele>
        <time>2014-04-18T11:53:42Z</time>
      </trkpt>
      <trkpt lat="43.98928" lon="5.42108">
        <ele>984.05</ele>
        <time>2014-04-18T11:53:54Z</time>
      </trkpt>
      <trkpt lat="43.9892" lon="5.4211">
        <ele>985.01</ele>
        <time>2014-04-18T11:54:02Z</time>
      </trkpt>
      <trkpt lat="43.98908" lon="5.42112">
        <ele>985.97</ele>
        <time>2014-04-18T11:54:13Z</time>
      </trkpt>
      <trkpt lat="43.98898" lon="5.42105">
        <ele>986.45</ele>
        <time>2014-04-18T11:54:24Z</time>
      </trkpt>
      <trkpt lat="43.98889" lon="5.42095">
        <ele>987.41</ele>
        <time>2014-04-18T11:54:35Z</time>
      </trkpt>
      <trkpt lat="43.98878" lon="5.42081">
        <ele>988.85</ele>
        <time>2014-04-18T11:54:47Z</time>
      </trkpt>
      <trkpt lat="43.98867" lon="5.42073">
        <ele>989.33</ele>
        <time>2014-04-18T11:54:58Z</time>
      </trkpt>
      <trkpt lat="43.98858" lon="5.42063">
        <ele>990.3</ele>
        <time>2014-04-18T11:55:09Z</time>
      </trkpt>
      <trkpt lat="43.98847" lon="5.42053">
        <ele>991.26</ele>
        <time>2014-04-18T11:55:20Z</time>
      </trkpt>
      <trkpt lat="43.98837" lon="5.42051">
        <ele>991.74</ele>
        <time>2014-04-18T11:55:32Z</time>
      </trkpt>
      <trkpt lat="43.98823" lon="5.42054">
        <ele>993.18</ele>
        <time>2014-04-18T11:55:46Z</time>
      </trkpt>
      <trkpt lat="43.98812" lon="5.42057">
        <ele>994.62</ele>
        <time>2014-04-18T11:55:58Z</time>
      </trkpt>
      <trkpt lat="43.98796" lon="5.42048">
        <ele>994.62</ele>
        <time>2014-04-18T11:56:10Z</time>
      </trkpt>
      <trkpt lat="43.98787" lon="5.42037">
        <ele>994.62</ele>
        <time>2014-04-18T11:56:21Z</time>
      </trkpt>
      <trkpt lat="43.9878" lon="5.42026">
        <ele>993.66</ele>
        <time>2014-04-18T11:56:32Z</time>
      </trkpt>
      <trkpt lat="43.98771" lon="5.4201">
        <ele>993.66</ele>
        <time>2014-04-18T11:56:40Z</time>
      </trkpt>
      <trkpt lat="43.98763" lon="5.41993">
        <ele>992.7</ele>
        <time>2014-04-18T11:56:52Z</time>
      </trkpt>
      <trkpt lat="43.98759" lon="5.41977">
        <ele>992.7</ele>
        <time>2014-04-18T11:57:03Z</time>
      </trkpt>
      <trkpt lat="43.98753" lon="5.41962">
        <ele>992.22</ele>
        <time>2014-04-18T11:57:14Z</time>
      </trkpt>
      <trkpt lat="43.98746" lon="5.41945">
        <ele>991.74</ele>
        <time>2014-04-18T11:57:25Z</time>
      </trkpt>
      <trkpt lat="43.98741" lon="5.41943">
        <ele>991.74</ele>
        <time>2014-04-18T11:57:29Z</time>
      </trkpt>
      <trkpt lat="43.98729" lon="5.41941">
        <ele>991.74</ele>
        <time>2014-04-18T11:57:41Z</time>
      </trkpt>
      <trkpt lat="43.98726" lon="5.41939">
        <ele>991.74</ele>
        <time>2014-04-18T11:57:43Z</time>
      </trkpt>
      <trkpt lat="43.98723" lon="5.4194">
        <ele>991.74</ele>
        <time>2014-04-18T11:57:46Z</time>
      </trkpt>
      <trkpt lat="43.9871" lon="5.41932">
        <ele>991.74</ele>
        <time>2014-04-18T11:57:57Z</time>
      </trkpt>
      <trkpt lat="43.98696" lon="5.4193">
        <ele>991.26</ele>
        <time>2014-04-18T11:58:06Z</time>
      </trkpt>
      <trkpt lat="43.98681" lon="5.41926">
        <ele>990.78</ele>
        <time>2014-04-18T11:58:17Z</time>
      </trkpt>
      <trkpt lat="43.98673" lon="5.41926">
        <ele>990.3</ele>
        <time>2014-04-18T11:58:23Z</time>
      </trkpt>
      <trkpt lat="43.98668" lon="5.41924">
        <ele>990.3</ele>
        <time>2014-04-18T11:58:26Z</time>
      </trkpt>
      <trkpt lat="43.98652" lon="5.4192">
        <ele>989.33</ele>
        <time>2014-04-18T11:58:40Z</time>
      </trkpt>
      <trkpt lat="43.98637" lon="5.41912">
        <ele>988.85</ele>
        <time>2014-04-18T11:58:52Z</time>
      </trkpt>
      <trkpt lat="43.98625" lon="5.41904">
        <ele>987.89</ele>
        <time>2014-04-18T11:59:04Z</time>
      </trkpt>
      <trkpt lat="43.98616" lon="5.41896">
        <ele>986.93</ele>
        <time>2014-04-18T11:59:13Z</time>
      </trkpt>
      <trkpt lat="43.98604" lon="5.41887">
        <ele>985.97</ele>
        <time>2014-04-18T11:59:25Z</time>
      </trkpt>
      <trkpt lat="43.9859" lon="5.41883">
        <ele>985.01</ele>
        <time>2014-04-18T11:59:37Z</time>
      </trkpt>
      <trkpt lat="43.98576" lon="5.41882">
        <ele>984.05</ele>
        <time>2014-04-18T11:59:50Z</time>
      </trkpt>
      <trkpt lat="43.98562" lon="5.41885">
        <ele>983.57</ele>
        <time>2014-04-18T12:00:03Z</time>
      </trkpt>
      <trkpt lat="43.98556" lon="5.41887">
        <ele>983.57</ele>
        <time>2014-04-18T12:00:08Z</time>
      </trkpt>
      <trkpt lat="43.98542" lon="5.41899">
        <ele>982.12</ele>
        <time>2014-04-18T12:00:22Z</time>
      </trkpt>
      <trkpt lat="43.98537" lon="5.41902">
        <ele>982.12</ele>
        <time>2014-04-18T12:00:32Z</time>
      </trkpt>
      <trkpt lat="43.9853" lon="5.41909">
        <ele>981.16</ele>
        <time>2014-04-18T12:00:43Z</time>
      </trkpt>
      <trkpt lat="43.98522" lon="5.41914">
        <ele>980.68</ele>
        <time>2014-04-18T12:00:52Z</time>
      </trkpt>
      <trkpt lat="43.98504" lon="5.41924">
        <ele>978.76</ele>
        <time>2014-04-18T12:01:04Z</time>
      </trkpt>
      <trkpt lat="43.98496" lon="5.41928">
        <ele>977.8</ele>
        <time>2014-04-18T12:01:14Z</time>
      </trkpt>
      <trkpt lat="43.98481" lon="5.41935">
        <ele>976.84</ele>
        <time>2014-04-18T12:01:25Z</time>
      </trkpt>
      <trkpt lat="43.98479" lon="5.41937">
        <ele>976.84</ele>
        <time>2014-04-18T12:01:26Z</time>
      </trkpt>
      <trkpt lat="43.98476" lon="5.41938">
        <ele>976.84</ele>
        <time>2014-04-18T12:01:28Z</time>
      </trkpt>
      <trkpt lat="43.98451" lon="5.41951">
        <ele>976.36</ele>
        <time>2014-04-18T12:01:41Z</time>
      </trkpt>
      <trkpt lat="43.98444" lon="5.41956">
        <ele>975.88</ele>
        <time>2014-04-18T12:01:47Z</time>
      </trkpt>
      <trkpt lat="43.98426" lon="5.4196">
        <ele>974.91</ele>
        <time>2014-04-18T12:02:01Z</time>
      </trkpt>
      <trkpt lat="43.98413" lon="5.41964">
        <ele>973.95</ele>
        <time>2014-04-18T12:02:12Z</time>
      </trkpt>
      <trkpt lat="43.98403" lon="5.41966">
        <ele>973.95</ele>
        <time>2014-04-18T12:02:21Z</time>
      </trkpt>
      <trkpt lat="43.98398" lon="5.41965">
        <ele>972.99</ele>
        <time>2014-04-18T12:02:31Z</time>
      </trkpt>
      <trkpt lat="43.98386" lon="5.41964">
        <ele>972.03</ele>
        <time>2014-04-18T12:02:44Z</time>
      </trkpt>
      <trkpt lat="43.98369" lon="5.41966">
        <ele>969.15</ele>
        <time>2014-04-18T12:02:59Z</time>
      </trkpt>
      <trkpt lat="43.98349" lon="5.41976">
        <ele>969.63</ele>
        <time>2014-04-18T12:03:14Z</time>
      </trkpt>
      <trkpt lat="43.98323" lon="5.41984">
        <ele>968.18</ele>
        <time>2014-04-18T12:03:32Z</time>
      </trkpt>
      <trkpt lat="43.98301" lon="5.41982">
        <ele>966.74</ele>
        <time>2014-04-18T12:03:51Z</time>
      </trkpt>
      <trkpt lat="43.98281" lon="5.41985">
        <ele>964.82</ele>
        <time>2014-04-18T12:04:10Z</time>
      </trkpt>
      <trkpt lat="43.98268" lon="5.4199">
        <ele>963.38</ele>
        <time>2014-04-18T12:04:27Z</time>
      </trkpt>
      <trkpt lat="43.98243" lon="5.41995">
        <ele>960.49</ele>
        <time>2014-04-18T12:04:43Z</time>
      </trkpt>
      <trkpt lat="43.98225" lon="5.42002">
        <ele>958.57</ele>
        <time>2014-04-18T12:04:58Z</time>
      </trkpt>
      <trkpt lat="43.9822" lon="5.42009">
        <ele>957.13</ele>
        <time>2014-04-18T12:05:14Z</time>
      </trkpt>
      <trkpt lat="43.98212" lon="5.42023">
        <ele>956.17</ele>
        <time>2014-04-18T12:05:25Z</time>
      </trkpt>
      <trkpt lat="43.98202" lon="5.4204">
        <ele>953.77</ele>
        <time>2014-04-18T12:05:40Z</time>
      </trkpt>
      <trkpt lat="43.982" lon="5.42041">
        <ele>951.36</ele>
        <time>2014-04-18T12:05:50Z</time>
      </trkpt>
      <trkpt lat="43.98172" lon="5.4206">
        <ele>948.96</ele>
        <time>2014-04-18T12:06:05Z</time>
      </trkpt>
      <trkpt lat="43.98155" lon="5.42074">
        <ele>947.04</ele>
        <time>2014-04-18T12:06:20Z</time>
      </trkpt>
      <trkpt lat="43.98153" lon="5.42093">
        <ele>944.15</ele>
        <time>2014-04-18T12:06:31Z</time>
      </trkpt>
      <trkpt lat="43.98157" lon="5.4211">
        <ele>944.63</ele>
        <time>2014-04-18T12:06:45Z</time>
      </trkpt>
      <trkpt lat="43.98159" lon="5.42117">
        <ele>945.11</ele>
        <time>2014-04-18T12:07:06Z</time>
      </trkpt>
      <trkpt lat="43.98156" lon="5.42116">
        <ele>944.63</ele>
        <time>2014-04-18T12:07:24Z</time>
      </trkpt>
      <trkpt lat="43.98159" lon="5.42117">
        <ele>944.15</ele>
        <time>2014-04-18T12:07:39Z</time>
      </trkpt>
      <trkpt lat="43.98155" lon="5.42123">
        <ele>943.67</ele>
        <time>2014-04-18T12:07:52Z</time>
      </trkpt>
      <trkpt lat="43.98149" lon="5.42129">
        <ele>942.71</ele>
        <time>2014-04-18T12:08:11Z</time>
      </trkpt>
      <trkpt lat="43.98141" lon="5.42119">
        <ele>941.75</ele>
        <time>2014-04-18T12:08:27Z</time>
      </trkpt>
      <trkpt lat="43.9814" lon="5.42118">
        <ele>942.71</ele>
        <time>2014-04-18T12:08:47Z</time>
      </trkpt>
      <trkpt lat="43.98142" lon="5.42117">
        <ele>942.71</ele>
        <time>2014-04-18T12:09:00Z</time>
      </trkpt>
      <trkpt lat="43.98142" lon="5.42123">
        <ele>941.75</ele>
        <time>2014-04-18T12:09:11Z</time>
      </trkpt>
      <trkpt lat="43.9814" lon="5.4213">
        <ele>940.79</ele>
        <time>2014-04-18T12:09:21Z</time>
      </trkpt>
      <trkpt lat="43.98137" lon="5.42131">
        <ele>939.35</ele>
        <time>2014-04-18T12:09:31Z</time>
      </trkpt>
      <trkpt lat="43.9813" lon="5.42129">
        <ele>937.9</ele>
        <time>2014-04-18T12:09:43Z</time>
      </trkpt>
      <trkpt lat="43.98129" lon="5.42129">
        <ele>937.9</ele>
        <time>2014-04-18T12:10:00Z</time>
      </trkpt>
      <trkpt lat="43.98132" lon="5.42141">
        <ele>936.94</ele>
        <time>2014-04-18T12:10:12Z</time>
      </trkpt>
      <trkpt lat="43.98137" lon="5.42155">
        <ele>935.98</ele>
        <time>2014-04-18T12:10:24Z</time>
      </trkpt>
      <trkpt lat="43.9814" lon="5.42163">
        <ele>935.02</ele>
        <time>2014-04-18T12:10:36Z</time>
      </trkpt>
      <trkpt lat="43.98143" lon="5.42172">
        <ele>934.54</ele>
        <time>2014-04-18T12:10:47Z</time>
      </trkpt>
      <trkpt lat="43.98141" lon="5.42187">
        <ele>935.02</ele>
        <time>2014-04-18T12:10:59Z</time>
      </trkpt>
      <trkpt lat="43.9813" lon="5.42176">
        <ele>934.54</ele>
        <time>2014-04-18T12:11:13Z</time>
      </trkpt>
      <trkpt lat="43.98122" lon="5.42163">
        <ele>933.58</ele>
        <time>2014-04-18T12:11:26Z</time>
      </trkpt>
      <trkpt lat="43.98113" lon="5.42153">
        <ele>932.14</ele>
        <time>2014-04-18T12:11:41Z</time>
      </trkpt>
      <trkpt lat="43.98106" lon="5.42143">
        <ele>930.69</ele>
        <time>2014-04-18T12:11:53Z</time>
      </trkpt>
      <trkpt lat="43.98096" lon="5.42119">
        <ele>929.73</ele>
        <time>2014-04-18T12:12:06Z</time>
      </trkpt>
      <trkpt lat="43.98086" lon="5.42096">
        <ele>928.77</ele>
        <time>2014-04-18T12:12:20Z</time>
      </trkpt>
      <trkpt lat="43.98082" lon="5.42089">
        <ele>928.29</ele>
        <time>2014-04-18T12:12:31Z</time>
      </trkpt>
      <trkpt lat="43.98079" lon="5.4208">
        <ele>927.33</ele>
        <time>2014-04-18T12:12:43Z</time>
      </trkpt>
      <trkpt lat="43.98068" lon="5.42055">
        <ele>925.41</ele>
        <time>2014-04-18T12:12:56Z</time>
      </trkpt>
      <trkpt lat="43.98071" lon="5.42056">
        <ele>923.96</ele>
        <time>2014-04-18T12:13:08Z</time>
      </trkpt>
      <trkpt lat="43.98072" lon="5.42064">
        <ele>923.48</ele>
        <time>2014-04-18T12:13:19Z</time>
      </trkpt>
      <trkpt lat="43.9807" lon="5.42078">
        <ele>923.48</ele>
        <time>2014-04-18T12:13:30Z</time>
      </trkpt>
      <trkpt lat="43.98068" lon="5.42087">
        <ele>923.96</ele>
        <time>2014-04-18T12:13:49Z</time>
      </trkpt>
      <trkpt lat="43.98065" lon="5.4209">
        <ele>923.48</ele>
        <time>2014-04-18T12:14:00Z</time>
      </trkpt>
      <trkpt lat="43.98065" lon="5.42083">
        <ele>923.48</ele>
        <time>2014-04-18T12:14:15Z</time>
      </trkpt>
      <trkpt lat="43.98065" lon="5.42079">
        <ele>922.04</ele>
        <time>2014-04-18T12:14:29Z</time>
      </trkpt>
      <trkpt lat="43.98058" lon="5.42075">
        <ele>920.12</ele>
        <time>2014-04-18T12:14:43Z</time>
      </trkpt>
      <trkpt lat="43.98052" lon="5.42079">
        <ele>919.16</ele>
        <time>2014-04-18T12:14:57Z</time>
      </trkpt>
      <trkpt lat="43.98054" lon="5.42084">
        <ele>919.64</ele>
        <time>2014-04-18T12:15:08Z</time>
      </trkpt>
      <trkpt lat="43.98061" lon="5.42078">
        <ele>919.64</ele>
        <time>2014-04-18T12:15:15Z</time>
      </trkpt>
      <trkpt lat="43.98062" lon="5.42095">
        <ele>919.16</ele>
        <time>2014-04-18T12:15:28Z</time>
      </trkpt>
      <trkpt lat="43.98059" lon="5.42102">
        <ele>919.64</ele>
        <time>2014-04-18T12:15:46Z</time>
      </trkpt>
      <trkpt lat="43.98051" lon="5.4211">
        <ele>919.16</ele>
        <time>2014-04-18T12:16:00Z</time>
      </trkpt>
      <trkpt lat="43.98045" lon="5.42114">
        <ele>918.2</ele>
        <time>2014-04-18T12:16:14Z</time>
      </trkpt>
      <trkpt lat="43.9804" lon="5.42119">
        <ele>917.24</ele>
        <time>2014-04-18T12:16:24Z</time>
      </trkpt>
      <trkpt lat="43.98035" lon="5.42122">
        <ele>916.75</ele>
        <time>2014-04-18T12:16:37Z</time>
      </trkpt>
      <trkpt lat="43.98036" lon="5.42123">
        <ele>917.24</ele>
        <time>2014-04-18T12:16:51Z</time>
      </trkpt>
      <trkpt lat="43.98036" lon="5.42123">
        <ele>917.24</ele>
        <time>2014-04-18T12:17:07Z</time>
      </trkpt>
      <trkpt lat="43.98033" lon="5.42119">
        <ele>916.27</ele>
        <time>2014-04-18T12:17:17Z</time>
      </trkpt>
      <trkpt lat="43.98027" lon="5.4211">
        <ele>915.31</ele>
        <time>2014-04-18T12:17:27Z</time>
      </trkpt>
      <trkpt lat="43.98022" lon="5.42102">
        <ele>913.87</ele>
        <time>2014-04-18T12:17:40Z</time>
      </trkpt>
      <trkpt lat="43.98013" lon="5.42086">
        <ele>911.95</ele>
        <time>2014-04-18T12:17:52Z</time>
      </trkpt>
      <trkpt lat="43.98012" lon="5.42083">
        <ele>911.95</ele>
        <time>2014-04-18T12:17:54Z</time>
      </trkpt>
      <trkpt lat="43.98006" lon="5.42072">
        <ele>910.03</ele>
        <time>2014-04-18T12:18:05Z</time>
      </trkpt>
      <trkpt lat="43.98002" lon="5.42062">
        <ele>909.06</ele>
        <time>2014-04-18T12:18:15Z</time>
      </trkpt>
      <trkpt lat="43.97996" lon="5.4205">
        <ele>907.62</ele>
        <time>2014-04-18T12:18:26Z</time>
      </trkpt>
      <trkpt lat="43.97993" lon="5.42041">
        <ele>906.66</ele>
        <time>2014-04-18T12:18:35Z</time>
      </trkpt>
      <trkpt lat="43.97988" lon="5.42031">
        <ele>905.22</ele>
        <time>2014-04-18T12:18:47Z</time>
      </trkpt>
      <trkpt lat="43.97986" lon="5.42024">
        <ele>904.74</ele>
        <time>2014-04-18T12:18:59Z</time>
      </trkpt>
      <trkpt lat="43.97983" lon="5.4201">
        <ele>904.26</ele>
        <time>2014-04-18T12:19:09Z</time>
      </trkpt>
      <trkpt lat="43.9798" lon="5.42001">
        <ele>903.3</ele>
        <time>2014-04-18T12:19:18Z</time>
      </trkpt>
      <trkpt lat="43.97972" lon="5.41984">
        <ele>902.33</ele>
        <time>2014-04-18T12:19:28Z</time>
      </trkpt>
      <trkpt lat="43.97969" lon="5.41978">
        <ele>901.37</ele>
        <time>2014-04-18T12:19:41Z</time>
      </trkpt>
      <trkpt lat="43.97965" lon="5.41972">
        <ele>899.93</ele>
        <time>2014-04-18T12:19:53Z</time>
      </trkpt>
      <trkpt lat="43.97961" lon="5.41969">
        <ele>899.45</ele>
        <time>2014-04-18T12:20:01Z</time>
      </trkpt>
      <trkpt lat="43.97957" lon="5.41966">
        <ele>898.01</ele>
        <time>2014-04-18T12:20:12Z</time>
      </trkpt>
      <trkpt lat="43.97955" lon="5.41977">
        <ele>897.05</ele>
        <time>2014-04-18T12:20:23Z</time>
      </trkpt>
      <trkpt lat="43.97954" lon="5.4199">
        <ele>896.09</ele>
        <time>2014-04-18T12:20:35Z</time>
      </trkpt>
      <trkpt lat="43.97955" lon="5.42004">
        <ele>895.61</ele>
        <time>2014-04-18T12:20:46Z</time>
      </trkpt>
      <trkpt lat="43.97956" lon="5.42014">
        <ele>894.64</ele>
        <time>2014-04-18T12:20:56Z</time>
      </trkpt>
      <trkpt lat="43.97958" lon="5.42029">
        <ele>893.2</ele>
        <time>2014-04-18T12:21:07Z</time>
      </trkpt>
      <trkpt lat="43.97954" lon="5.42042">
        <ele>892.24</ele>
        <time>2014-04-18T12:21:16Z</time>
      </trkpt>
      <trkpt lat="43.9795" lon="5.42043">
        <ele>891.28</ele>
        <time>2014-04-18T12:21:28Z</time>
      </trkpt>
      <trkpt lat="43.97944" lon="5.42037">
        <ele>889.84</ele>
        <time>2014-04-18T12:21:42Z</time>
      </trkpt>
      <trkpt lat="43.97937" lon="5.42028">
        <ele>888.88</ele>
        <time>2014-04-18T12:21:53Z</time>
      </trkpt>
      <trkpt lat="43.97929" lon="5.42018">
        <ele>887.91</ele>
        <time>2014-04-18T12:22:02Z</time>
      </trkpt>
      <trkpt lat="43.9792" lon="5.42006">
        <ele>886.47</ele>
        <time>2014-04-18T12:22:13Z</time>
      </trkpt>
      <trkpt lat="43.97912" lon="5.41994">
        <ele>885.51</ele>
        <time>2014-04-18T12:22:23Z</time>
      </trkpt>
      <trkpt lat="43.97904" lon="5.41994">
        <ele>884.07</ele>
        <time>2014-04-18T12:22:33Z</time>
      </trkpt>
      <trkpt lat="43.97903" lon="5.42004">
        <ele>883.59</ele>
        <time>2014-04-18T12:22:42Z</time>
      </trkpt>
      <trkpt lat="43.97906" lon="5.42016">
        <ele>882.63</ele>
        <time>2014-04-18T12:22:52Z</time>
      </trkpt>
      <trkpt lat="43.97908" lon="5.42028">
        <ele>882.15</ele>
        <time>2014-04-18T12:23:02Z</time>
      </trkpt>
      <trkpt lat="43.97911" lon="5.4204">
        <ele>881.19</ele>
        <time>2014-04-18T12:23:11Z</time>
      </trkpt>
      <trkpt lat="43.97912" lon="5.42056">
        <ele>879.74</ele>
        <time>2014-04-18T12:23:22Z</time>
      </trkpt>
      <trkpt lat="43.97909" lon="5.42062">
        <ele>878.3</ele>
        <time>2014-04-18T12:23:33Z</time>
      </trkpt>
      <trkpt lat="43.97902" lon="5.42058">
        <ele>876.86</ele>
        <time>2014-04-18T12:23:43Z</time>
      </trkpt>
      <trkpt lat="43.97895" lon="5.42048">
        <ele>874.94</ele>
        <time>2014-04-18T12:23:54Z</time>
      </trkpt>
      <trkpt lat="43.97887" lon="5.42037">
        <ele>873.01</ele>
        <time>2014-04-18T12:24:05Z</time>
      </trkpt>
      <trkpt lat="43.9788" lon="5.42028">
        <ele>872.05</ele>
        <time>2014-04-18T12:24:16Z</time>
      </trkpt>
      <trkpt lat="43.9787" lon="5.42013">
        <ele>870.61</ele>
        <time>2014-04-18T12:24:27Z</time>
      </trkpt>
      <trkpt lat="43.9786" lon="5.42001">
        <ele>869.17</ele>
        <time>2014-04-18T12:24:38Z</time>
      </trkpt>
      <trkpt lat="43.97852" lon="5.41988">
        <ele>868.21</ele>
        <time>2014-04-18T12:24:51Z</time>
      </trkpt>
      <trkpt lat="43.9785" lon="5.41984">
        <ele>867.73</ele>
        <time>2014-04-18T12:24:54Z</time>
      </trkpt>
      <trkpt lat="43.9784" lon="5.41974">
        <ele>866.29</ele>
        <time>2014-04-18T12:25:05Z</time>
      </trkpt>
      <trkpt lat="43.97829" lon="5.41968">
        <ele>864.36</ele>
        <time>2014-04-18T12:25:17Z</time>
      </trkpt>
      <trkpt lat="43.97823" lon="5.41961">
        <ele>862.44</ele>
        <time>2014-04-18T12:25:28Z</time>
      </trkpt>
      <trkpt lat="43.97812" lon="5.4195">
        <ele>860.52</ele>
        <time>2014-04-18T12:25:41Z</time>
      </trkpt>
      <trkpt lat="43.97804" lon="5.41943">
        <ele>859.08</ele>
        <time>2014-04-18T12:25:51Z</time>
      </trkpt>
      <trkpt lat="43.97801" lon="5.41932">
        <ele>857.15</ele>
        <time>2014-04-18T12:26:03Z</time>
      </trkpt>
      <trkpt lat="43.978" lon="5.41915">
        <ele>856.19</ele>
        <time>2014-04-18T12:26:14Z</time>
      </trkpt>
      <trkpt lat="43.978" lon="5.41914">
        <ele>856.19</ele>
        <time>2014-04-18T12:26:15Z</time>
      </trkpt>
      <trkpt lat="43.97792" lon="5.41915">
        <ele>854.75</ele>
        <time>2014-04-18T12:26:25Z</time>
      </trkpt>
      <trkpt lat="43.9779" lon="5.4192">
        <ele>854.75</ele>
        <time>2014-04-18T12:26:37Z</time>
      </trkpt>
      <trkpt lat="43.97787" lon="5.41924">
        <ele>854.27</ele>
        <time>2014-04-18T12:26:48Z</time>
      </trkpt>
      <trkpt lat="43.97785" lon="5.41932">
        <ele>853.79</ele>
        <time>2014-04-18T12:26:54Z</time>
      </trkpt>
      <trkpt lat="43.97778" lon="5.41939">
        <ele>851.87</ele>
        <time>2014-04-18T12:27:03Z</time>
      </trkpt>
      <trkpt lat="43.97773" lon="5.41931">
        <ele>850.42</ele>
        <time>2014-04-18T12:27:13Z</time>
      </trkpt>
      <trkpt lat="43.97773" lon="5.4193">
        <ele>849.94</ele>
        <time>2014-04-18T12:27:14Z</time>
      </trkpt>
      <trkpt lat="43.97763" lon="5.4192">
        <ele>847.54</ele>
        <time>2014-04-18T12:27:26Z</time>
      </trkpt>
      <trkpt lat="43.97755" lon="5.41915">
        <ele>846.58</ele>
        <time>2014-04-18T12:27:35Z</time>
      </trkpt>
      <trkpt lat="43.97753" lon="5.41913">
        <ele>846.58</ele>
        <time>2014-04-18T12:27:37Z</time>
      </trkpt>
      <trkpt lat="43.9775" lon="5.41911">
        <ele>844.66</ele>
        <time>2014-04-18T12:27:42Z</time>
      </trkpt>
      <trkpt lat="43.97739" lon="5.41904">
        <ele>842.25</ele>
        <time>2014-04-18T12:27:54Z</time>
      </trkpt>
      <trkpt lat="43.97731" lon="5.41897">
        <ele>840.33</ele>
        <time>2014-04-18T12:28:04Z</time>
      </trkpt>
      <trkpt lat="43.97724" lon="5.41891">
        <ele>836.96</ele>
        <time>2014-04-18T12:28:13Z</time>
      </trkpt>
      <trkpt lat="43.97722" lon="5.41889">
        <ele>836.96</ele>
        <time>2014-04-18T12:28:15Z</time>
      </trkpt>
      <trkpt lat="43.97709" lon="5.4188">
        <ele>834.08</ele>
        <time>2014-04-18T12:28:26Z</time>
      </trkpt>
      <trkpt lat="43.97697" lon="5.41878">
        <ele>831.68</ele>
        <time>2014-04-18T12:28:37Z</time>
      </trkpt>
      <trkpt lat="43.97693" lon="5.41879">
        <ele>830.24</ele>
        <time>2014-04-18T12:28:41Z</time>
      </trkpt>
      <trkpt lat="43.97684" lon="5.41878">
        <ele>828.79</ele>
        <time>2014-04-18T12:28:49Z</time>
      </trkpt>
      <trkpt lat="43.97677" lon="5.41878">
        <ele>827.35</ele>
        <time>2014-04-18T12:28:54Z</time>
      </trkpt>
      <trkpt lat="43.97664" lon="5.41876">
        <ele>825.43</ele>
        <time>2014-04-18T12:29:06Z</time>
      </trkpt>
      <trkpt lat="43.97653" lon="5.41873">
        <ele>823.51</ele>
        <time>2014-04-18T12:29:17Z</time>
      </trkpt>
      <trkpt lat="43.97646" lon="5.41876">
        <ele>822.06</ele>
        <time>2014-04-18T12:29:24Z</time>
      </trkpt>
      <trkpt lat="43.97632" lon="5.41877">
        <ele>820.14</ele>
        <time>2014-04-18T12:29:36Z</time>
      </trkpt>
      <trkpt lat="43.97631" lon="5.41877">
        <ele>820.14</ele>
        <time>2014-04-18T12:29:37Z</time>
      </trkpt>
      <trkpt lat="43.97623" lon="5.41873">
        <ele>818.7</ele>
        <time>2014-04-18T12:29:47Z</time>
      </trkpt>
      <trkpt lat="43.97619" lon="5.41873">
        <ele>818.7</ele>
        <time>2014-04-18T12:29:51Z</time>
      </trkpt>
      <trkpt lat="43.97604" lon="5.41878">
        <ele>816.3</ele>
        <time>2014-04-18T12:30:02Z</time>
      </trkpt>
      <trkpt lat="43.97596" lon="5.41878">
        <ele>814.85</ele>
        <time>2014-04-18T12:30:10Z</time>
      </trkpt>
      <trkpt lat="43.97587" lon="5.4188">
        <ele>813.41</ele>
        <time>2014-04-18T12:30:17Z</time>
      </trkpt>
      <trkpt lat="43.97572" lon="5.41874">
        <ele>811.49</ele>
        <time>2014-04-18T12:30:28Z</time>
      </trkpt>
      <trkpt lat="43.97561" lon="5.41869">
        <ele>809.09</ele>
        <time>2014-04-18T12:30:40Z</time>
      </trkpt>
      <trkpt lat="43.97559" lon="5.41862">
        <ele>808.13</ele>
        <time>2014-04-18T12:30:50Z</time>
      </trkpt>
      <trkpt lat="43.97558" lon="5.41856">
        <ele>806.68</ele>
        <time>2014-04-18T12:31:00Z</time>
      </trkpt>
      <trkpt lat="43.97551" lon="5.41851">
        <ele>805.72</ele>
        <time>2014-04-18T12:31:10Z</time>
      </trkpt>
      <trkpt lat="43.97541" lon="5.41848">
        <ele>803.8</ele>
        <time>2014-04-18T12:31:21Z</time>
      </trkpt>
      <trkpt lat="43.97529" lon="5.41844">
        <ele>801.88</ele>
        <time>2014-04-18T12:31:32Z</time>
      </trkpt>
      <trkpt lat="43.97527" lon="5.41844">
        <ele>801.88</ele>
        <time>2014-04-18T12:31:33Z</time>
      </trkpt>
      <trkpt lat="43.97516" lon="5.41839">
        <ele>799.95</ele>
        <time>2014-04-18T12:31:44Z</time>
      </trkpt>
      <trkpt lat="43.97503" lon="5.41831">
        <ele>797.55</ele>
        <time>2014-04-18T12:31:55Z</time>
      </trkpt>
      <trkpt lat="43.97491" lon="5.41828">
        <ele>797.07</ele>
        <time>2014-04-18T12:32:04Z</time>
      </trkpt>
      <trkpt lat="43.97477" lon="5.41823">
        <ele>795.15</ele>
        <time>2014-04-18T12:32:17Z</time>
      </trkpt>
      <trkpt lat="43.97466" lon="5.41814">
        <ele>793.22</ele>
        <time>2014-04-18T12:32:27Z</time>
      </trkpt>
      <trkpt lat="43.97455" lon="5.41812">
        <ele>792.74</ele>
        <time>2014-04-18T12:32:35Z</time>
      </trkpt>
      <trkpt lat="43.97444" lon="5.41813">
        <ele>792.74</ele>
        <time>2014-04-18T12:32:45Z</time>
      </trkpt>
      <trkpt lat="43.97439" lon="5.41812">
        <ele>792.74</ele>
        <time>2014-04-18T12:32:48Z</time>
      </trkpt>
      <trkpt lat="43.97431" lon="5.41812">
        <ele>790.82</ele>
        <time>2014-04-18T12:32:58Z</time>
      </trkpt>
      <trkpt lat="43.97416" lon="5.41808">
        <ele>788.9</ele>
        <time>2014-04-18T12:33:10Z</time>
      </trkpt>
      <trkpt lat="43.97413" lon="5.41809">
        <ele>788.42</ele>
        <time>2014-04-18T12:33:13Z</time>
      </trkpt>
      <trkpt lat="43.97405" lon="5.41803">
        <ele>786.02</ele>
        <time>2014-04-18T12:33:23Z</time>
      </trkpt>
      <trkpt lat="43.97401" lon="5.41801">
        <ele>785.53</ele>
        <time>2014-04-18T12:33:27Z</time>
      </trkpt>
      <trkpt lat="43.97393" lon="5.41796">
        <ele>783.61</ele>
        <time>2014-04-18T12:33:37Z</time>
      </trkpt>
      <trkpt lat="43.97385" lon="5.41792">
        <ele>781.69</ele>
        <time>2014-04-18T12:33:45Z</time>
      </trkpt>
      <trkpt lat="43.97383" lon="5.41791">
        <ele>781.69</ele>
        <time>2014-04-18T12:33:47Z</time>
      </trkpt>
      <trkpt lat="43.97372" lon="5.41784">
        <ele>779.29</ele>
        <time>2014-04-18T12:33:59Z</time>
      </trkpt>
      <trkpt lat="43.97369" lon="5.41779">
        <ele>776.88</ele>
        <time>2014-04-18T12:34:13Z</time>
      </trkpt>
      <trkpt lat="43.97361" lon="5.41772">
        <ele>774.96</ele>
        <time>2014-04-18T12:34:22Z</time>
      </trkpt>
      <trkpt lat="43.97356" lon="5.4176">
        <ele>772.08</ele>
        <time>2014-04-18T12:34:33Z</time>
      </trkpt>
      <trkpt lat="43.97349" lon="5.4175">
        <ele>770.15</ele>
        <time>2014-04-18T12:34:43Z</time>
      </trkpt>
      <trkpt lat="43.97345" lon="5.41738">
        <ele>767.75</ele>
        <time>2014-04-18T12:34:52Z</time>
      </trkpt>
      <trkpt lat="43.97333" lon="5.41734">
        <ele>765.83</ele>
        <time>2014-04-18T12:35:03Z</time>
      </trkpt>
      <trkpt lat="43.97327" lon="5.41727">
        <ele>764.39</ele>
        <time>2014-04-18T12:35:10Z</time>
      </trkpt>
      <trkpt lat="43.97318" lon="5.4172">
        <ele>761.98</ele>
        <time>2014-04-18T12:35:21Z</time>
      </trkpt>
      <trkpt lat="43.97316" lon="5.41717">
        <ele>761.02</ele>
        <time>2014-04-18T12:35:24Z</time>
      </trkpt>
      <trkpt lat="43.97303" lon="5.41709">
        <ele>759.1</ele>
        <time>2014-04-18T12:35:34Z</time>
      </trkpt>
      <trkpt lat="43.97302" lon="5.41708">
        <ele>759.1</ele>
        <time>2014-04-18T12:35:36Z</time>
      </trkpt>
      <trkpt lat="43.97294" lon="5.41701">
        <ele>757.18</ele>
        <time>2014-04-18T12:35:47Z</time>
      </trkpt>
      <trkpt lat="43.97291" lon="5.41695">
        <ele>754.77</ele>
        <time>2014-04-18T12:35:57Z</time>
      </trkpt>
      <trkpt lat="43.97284" lon="5.41691">
        <ele>752.85</ele>
        <time>2014-04-18T12:36:06Z</time>
      </trkpt>
      <trkpt lat="43.97279" lon="5.41684">
        <ele>750.93</ele>
        <time>2014-04-18T12:36:15Z</time>
      </trkpt>
      <trkpt lat="43.97275" lon="5.41679">
        <ele>748.52</ele>
        <time>2014-04-18T12:36:27Z</time>
      </trkpt>
      <trkpt lat="43.97271" lon="5.41679">
        <ele>747.08</ele>
        <time>2014-04-18T12:36:37Z</time>
      </trkpt>
      <trkpt lat="43.97264" lon="5.41676">
        <ele>746.12</ele>
        <time>2014-04-18T12:36:46Z</time>
      </trkpt>
      <trkpt lat="43.97257" lon="5.41672">
        <ele>743.72</ele>
        <time>2014-04-18T12:36:56Z</time>
      </trkpt>
      <trkpt lat="43.9725" lon="5.41669">
        <ele>741.79</ele>
        <time>2014-04-18T12:37:05Z</time>
      </trkpt>
      <trkpt lat="43.97243" lon="5.41666">
        <ele>739.87</ele>
        <time>2014-04-18T12:37:14Z</time>
      </trkpt>
      <trkpt lat="43.97231" lon="5.4166">
        <ele>737.47</ele>
        <time>2014-04-18T12:37:24Z</time>
      </trkpt>
      <trkpt lat="43.97215" lon="5.41643">
        <ele>735.07</ele>
        <time>2014-04-18T12:37:35Z</time>
      </trkpt>
      <trkpt lat="43.97207" lon="5.41635">
        <ele>733.14</ele>
        <time>2014-04-18T12:37:43Z</time>
      </trkpt>
      <trkpt lat="43.97199" lon="5.41628">
        <ele>731.7</ele>
        <time>2014-04-18T12:37:51Z</time>
      </trkpt>
      <trkpt lat="43.97188" lon="5.41622">
        <ele>729.3</ele>
        <time>2014-04-18T12:38:01Z</time>
      </trkpt>
      <trkpt lat="43.97176" lon="5.41616">
        <ele>726.89</ele>
        <time>2014-04-18T12:38:12Z</time>
      </trkpt>
      <trkpt lat="43.97167" lon="5.41614">
        <ele>724.97</ele>
        <time>2014-04-18T12:38:23Z</time>
      </trkpt>
      <trkpt lat="43.97159" lon="5.41611">
        <ele>722.57</ele>
        <time>2014-04-18T12:38:33Z</time>
      </trkpt>
      <trkpt lat="43.9715" lon="5.41608">
        <ele>720.16</ele>
        <time>2014-04-18T12:38:44Z</time>
      </trkpt>
      <trkpt lat="43.97145" lon="5.41606">
        <ele>718.72</ele>
        <time>2014-04-18T12:38:52Z</time>
      </trkpt>
      <trkpt lat="43.9714" lon="5.41605">
        <ele>716.8</ele>
        <time>2014-04-18T12:39:01Z</time>
      </trkpt>
      <trkpt lat="43.9713" lon="5.41602">
        <ele>714.88</ele>
        <time>2014-04-18T12:39:11Z</time>
      </trkpt>
      <trkpt lat="43.97118" lon="5.41601">
        <ele>711.51</ele>
        <time>2014-04-18T12:39:24Z</time>
      </trkpt>
      <trkpt lat="43.97117" lon="5.41601">
        <ele>711.03</ele>
        <time>2014-04-18T12:39:27Z</time>
      </trkpt>
      <trkpt lat="43.97105" lon="5.41599">
        <ele>709.11</ele>
        <time>2014-04-18T12:39:38Z</time>
      </trkpt>
      <trkpt lat="43.97099" lon="5.41592">
        <ele>707.19</ele>
        <time>2014-04-18T12:39:45Z</time>
      </trkpt>
      <trkpt lat="43.97089" lon="5.41586">
        <ele>704.78</ele>
        <time>2014-04-18T12:39:56Z</time>
      </trkpt>
      <trkpt lat="43.97085" lon="5.41584">
        <ele>703.82</ele>
        <time>2014-04-18T12:40:01Z</time>
      </trkpt>
      <trkpt lat="43.97077" lon="5.4158">
        <ele>701.42</ele>
        <time>2014-04-18T12:40:12Z</time>
      </trkpt>
      <trkpt lat="43.97066" lon="5.41576">
        <ele>699.5</ele>
        <time>2014-04-18T12:40:24Z</time>
      </trkpt>
      <trkpt lat="43.97065" lon="5.41576">
        <ele>699.02</ele>
        <time>2014-04-18T12:40:25Z</time>
      </trkpt>
      <trkpt lat="43.97056" lon="5.41573">
        <ele>696.61</ele>
        <time>2014-04-18T12:40:36Z</time>
      </trkpt>
      <trkpt lat="43.97047" lon="5.41567">
        <ele>694.69</ele>
        <time>2014-04-18T12:40:45Z</time>
      </trkpt>
      <trkpt lat="43.97039" lon="5.41562">
        <ele>692.77</ele>
        <time>2014-04-18T12:40:54Z</time>
      </trkpt>
      <trkpt lat="43.97033" lon="5.4156">
        <ele>689.88</ele>
        <time>2014-04-18T12:41:05Z</time>
      </trkpt>
      <trkpt lat="43.97031" lon="5.41559">
        <ele>689.4</ele>
        <time>2014-04-18T12:41:15Z</time>
      </trkpt>
      <trkpt lat="43.97028" lon="5.41557">
        <ele>687.48</ele>
        <time>2014-04-18T12:41:19Z</time>
      </trkpt>
      <trkpt lat="43.97022" lon="5.41554">
        <ele>686.04</ele>
        <time>2014-04-18T12:41:29Z</time>
      </trkpt>
      <trkpt lat="43.97017" lon="5.4155">
        <ele>684.12</ele>
        <time>2014-04-18T12:41:39Z</time>
      </trkpt>
      <trkpt lat="43.97007" lon="5.41546">
        <ele>682.19</ele>
        <time>2014-04-18T12:41:48Z</time>
      </trkpt>
      <trkpt lat="43.96995" lon="5.41541">
        <ele>679.31</ele>
        <time>2014-04-18T12:42:01Z</time>
      </trkpt>
      <trkpt lat="43.96992" lon="5.41539">
        <ele>678.83</ele>
        <time>2014-04-18T12:42:04Z</time>
      </trkpt>
      <trkpt lat="43.9698" lon="5.41532">
        <ele>675.46</ele>
        <time>2014-04-18T12:42:16Z</time>
      </trkpt>
      <trkpt lat="43.96971" lon="5.41529">
        <ele>673.54</ele>
        <time>2014-04-18T12:42:26Z</time>
      </trkpt>
      <trkpt lat="43.9696" lon="5.41524">
        <ele>670.66</ele>
        <time>2014-04-18T12:42:39Z</time>
      </trkpt>
      <trkpt lat="43.96953" lon="5.41518">
        <ele>668.25</ele>
        <time>2014-04-18T12:42:49Z</time>
      </trkpt>
      <trkpt lat="43.96947" lon="5.41517">
        <ele>666.81</ele>
        <time>2014-04-18T12:42:58Z</time>
      </trkpt>
      <trkpt lat="43.96937" lon="5.41508">
        <ele>664.41</ele>
        <time>2014-04-18T12:43:08Z</time>
      </trkpt>
      <trkpt lat="43.96933" lon="5.41504">
        <ele>662.49</ele>
        <time>2014-04-18T12:43:17Z</time>
      </trkpt>
      <trkpt lat="43.96926" lon="5.41499">
        <ele>660.56</ele>
        <time>2014-04-18T12:43:26Z</time>
      </trkpt>
      <trkpt lat="43.96921" lon="5.41492">
        <ele>659.12</ele>
        <time>2014-04-18T12:43:32Z</time>
      </trkpt>
      <trkpt lat="43.96913" lon="5.41477">
        <ele>656.72</ele>
        <time>2014-04-18T12:43:42Z</time>
      </trkpt>
      <trkpt lat="43.96906" lon="5.41469">
        <ele>654.8</ele>
        <time>2014-04-18T12:43:51Z</time>
      </trkpt>
      <trkpt lat="43.96899" lon="5.41458">
        <ele>653.35</ele>
        <time>2014-04-18T12:44:02Z</time>
      </trkpt>
      <trkpt lat="43.96894" lon="5.4145">
        <ele>650.95</ele>
        <time>2014-04-18T12:44:13Z</time>
      </trkpt>
      <trkpt lat="43.96893" lon="5.41448">
        <ele>650.47</ele>
        <time>2014-04-18T12:44:15Z</time>
      </trkpt>
      <trkpt lat="43.96885" lon="5.41437">
        <ele>647.59</ele>
        <time>2014-04-18T12:44:26Z</time>
      </trkpt>
      <trkpt lat="43.96878" lon="5.41429">
        <ele>645.18</ele>
        <time>2014-04-18T12:44:36Z</time>
      </trkpt>
      <trkpt lat="43.96872" lon="5.41426">
        <ele>643.74</ele>
        <time>2014-04-18T12:44:45Z</time>
      </trkpt>
      <trkpt lat="43.96866" lon="5.41422">
        <ele>642.3</ele>
        <time>2014-04-18T12:44:51Z</time>
      </trkpt>
      <trkpt lat="43.96864" lon="5.41421">
        <ele>641.82</ele>
        <time>2014-04-18T12:44:53Z</time>
      </trkpt>
      <trkpt lat="43.96859" lon="5.41419">
        <ele>640.86</ele>
        <time>2014-04-18T12:44:57Z</time>
      </trkpt>
      <trkpt lat="43.96848" lon="5.41417">
        <ele>637.97</ele>
        <time>2014-04-18T12:45:09Z</time>
      </trkpt>
      <trkpt lat="43.96847" lon="5.41417">
        <ele>637.97</ele>
        <time>2014-04-18T12:45:10Z</time>
      </trkpt>
      <trkpt lat="43.96841" lon="5.41413">
        <ele>636.05</ele>
        <time>2014-04-18T12:45:20Z</time>
      </trkpt>
      <trkpt lat="43.96835" lon="5.41411">
        <ele>634.13</ele>
        <time>2014-04-18T12:45:30Z</time>
      </trkpt>
      <trkpt lat="43.96833" lon="5.41412">
        <ele>633.65</ele>
        <time>2014-04-18T12:45:42Z</time>
      </trkpt>
      <trkpt lat="43.96835" lon="5.41413">
        <ele>635.09</ele>
        <time>2014-04-18T12:45:52Z</time>
      </trkpt>
      <trkpt lat="43.96836" lon="5.41414">
        <ele>635.57</ele>
        <time>2014-04-18T12:46:07Z</time>
      </trkpt>
      <trkpt lat="43.96837" lon="5.41413">
        <ele>635.09</ele>
        <time>2014-04-18T12:46:21Z</time>
      </trkpt>
      <trkpt lat="43.9684" lon="5.4141">
        <ele>635.09</ele>
        <time>2014-04-18T12:46:34Z</time>
      </trkpt>
      <trkpt lat="43.96841" lon="5.41409">
        <ele>636.05</ele>
        <time>2014-04-18T12:46:46Z</time>
      </trkpt>
      <trkpt lat="43.96834" lon="5.41409">
        <ele>633.65</ele>
        <time>2014-04-18T12:46:57Z</time>
      </trkpt>
      <trkpt lat="43.9683" lon="5.41408">
        <ele>632.2</ele>
        <time>2014-04-18T12:47:08Z</time>
      </trkpt>
      <trkpt lat="43.9683" lon="5.41408">
        <ele>628.84</ele>
        <time>2014-04-18T12:47:09Z</time>
      </trkpt>
      <trkpt lat="43.9683" lon="5.41408">
        <ele>637.01</ele>
        <time>2014-04-18T12:47:10Z</time>
      </trkpt>
      <trkpt lat="43.9683" lon="5.41408">
        <ele>633.17</ele>
        <time>2014-04-18T12:47:11Z</time>
      </trkpt>
      <trkpt lat="43.9683" lon="5.41405">
        <ele>632.68</ele>
        <time>2014-04-18T12:47:21Z</time>
      </trkpt>
      <trkpt lat="43.96831" lon="5.41406">
        <ele>632.68</ele>
        <time>2014-04-18T12:47:33Z</time>
      </trkpt>
      <trkpt lat="43.9683" lon="5.41405">
        <ele>632.68</ele>
        <time>2014-04-18T12:47:53Z</time>
      </trkpt>
      <trkpt lat="43.96831" lon="5.41408">
        <ele>633.65</ele>
        <time>2014-04-18T12:48:10Z</time>
      </trkpt>
      <trkpt lat="43.96835" lon="5.41409">
        <ele>634.61</ele>
        <time>2014-04-18T12:48:19Z</time>
      </trkpt>
      <trkpt lat="43.96834" lon="5.41407">
        <ele>634.61</ele>
        <time>2014-04-18T12:48:42Z</time>
      </trkpt>
      <trkpt lat="43.96834" lon="5.41407">
        <ele>634.13</ele>
        <time>2014-04-18T12:49:06Z</time>
      </trkpt>
      <trkpt lat="43.96834" lon="5.41408">
        <ele>634.61</ele>
        <time>2014-04-18T12:49:18Z</time>
      </trkpt>
      <trkpt lat="43.96834" lon="5.41408">
        <ele>634.61</ele>
        <time>2014-04-18T12:49:34Z</time>
      </trkpt>
      <trkpt lat="43.96834" lon="5.41409">
        <ele>634.13</ele>
        <time>2014-04-18T12:49:49Z</time>
      </trkpt>
      <trkpt lat="43.96833" lon="5.41409">
        <ele>634.13</ele>
        <time>2014-04-18T12:50:07Z</time>
      </trkpt>
      <trkpt lat="43.96833" lon="5.41408">
        <ele>633.17</ele>
        <time>2014-04-18T12:50:19Z</time>
      </trkpt>
      <trkpt lat="43.96832" lon="5.41408">
        <ele>633.17</ele>
        <time>2014-04-18T12:50:27Z</time>
      </trkpt>
      <trkpt lat="43.96832" lon="5.41408">
        <ele>633.65</ele>
        <time>2014-04-18T12:50:39Z</time>
      </trkpt>
      <trkpt lat="43.96831" lon="5.41407">
        <ele>633.17</ele>
        <time>2014-04-18T12:50:51Z</time>
      </trkpt>
      <trkpt lat="43.96831" lon="5.41407">
        <ele>633.17</ele>
        <time>2014-04-18T12:51:09Z</time>
      </trkpt>
      <trkpt lat="43.96831" lon="5.41407">
        <ele>633.17</ele>
        <time>2014-04-18T12:51:18Z</time>
      </trkpt>
      <trkpt lat="43.9683" lon="5.41408">
        <ele>633.17</ele>
        <time>2014-04-18T12:51:40Z</time>
      </trkpt>
      <trkpt lat="43.9683" lon="5.41408">
        <ele>632.2</ele>
        <time>2014-04-18T12:51:51Z</time>
      </trkpt>
      <trkpt lat="43.96829" lon="5.41408">
        <ele>630.76</ele>
        <time>2014-04-18T12:52:00Z</time>
      </trkpt>
      <trkpt lat="43.96825" lon="5.41408">
        <ele>628.84</ele>
        <time>2014-04-18T12:52:11Z</time>
      </trkpt>
      <trkpt lat="43.96823" lon="5.41403">
        <ele>627.4</ele>
        <time>2014-04-18T12:52:16Z</time>
      </trkpt>
      <trkpt lat="43.96816" lon="5.414">
        <ele>626.44</ele>
        <time>2014-04-18T12:52:22Z</time>
      </trkpt>
      <trkpt lat="43.9681" lon="5.41398">
        <ele>624.51</ele>
        <time>2014-04-18T12:52:29Z</time>
      </trkpt>
      <trkpt lat="43.96802" lon="5.41399">
        <ele>622.11</ele>
        <time>2014-04-18T12:52:39Z</time>
      </trkpt>
      <trkpt lat="43.968" lon="5.41398">
        <ele>621.15</ele>
        <time>2014-04-18T12:52:42Z</time>
      </trkpt>
      <trkpt lat="43.96793" lon="5.41392">
        <ele>619.71</ele>
        <time>2014-04-18T12:52:52Z</time>
      </trkpt>
      <trkpt lat="43.96791" lon="5.41392">
        <ele>619.23</ele>
        <time>2014-04-18T12:52:54Z</time>
      </trkpt>
      <trkpt lat="43.96786" lon="5.41392">
        <ele>617.78</ele>
        <time>2014-04-18T12:53:00Z</time>
      </trkpt>
      <trkpt lat="43.9678" lon="5.41389">
        <ele>616.34</ele>
        <time>2014-04-18T12:53:07Z</time>
      </trkpt>
      <trkpt lat="43.96774" lon="5.41388">
        <ele>614.9</ele>
        <time>2014-04-18T12:53:14Z</time>
      </trkpt>
      <trkpt lat="43.9677" lon="5.41387">
        <ele>613.94</ele>
        <time>2014-04-18T12:53:19Z</time>
      </trkpt>
      <trkpt lat="43.96762" lon="5.41382">
        <ele>611.06</ele>
        <time>2014-04-18T12:53:31Z</time>
      </trkpt>
      <trkpt lat="43.96756" lon="5.4138">
        <ele>609.13</ele>
        <time>2014-04-18T12:53:38Z</time>
      </trkpt>
      <trkpt lat="43.96745" lon="5.41374">
        <ele>606.25</ele>
        <time>2014-04-18T12:53:51Z</time>
      </trkpt>
      <trkpt lat="43.96744" lon="5.41373">
        <ele>606.25</ele>
        <time>2014-04-18T12:53:52Z</time>
      </trkpt>
      <trkpt lat="43.96739" lon="5.4137">
        <ele>604.81</ele>
        <time>2014-04-18T12:53:57Z</time>
      </trkpt>
      <trkpt lat="43.9673" lon="5.41366">
        <ele>602.4</ele>
        <time>2014-04-18T12:54:07Z</time>
      </trkpt>
      <trkpt lat="43.96725" lon="5.41363">
        <ele>600</ele>
        <time>2014-04-18T12:54:17Z</time>
      </trkpt>
      <trkpt lat="43.96716" lon="5.41357">
        <ele>596.64</ele>
        <time>2014-04-18T12:54:26Z</time>
      </trkpt>
      <trkpt lat="43.96709" lon="5.41348">
        <ele>595.19</ele>
        <time>2014-04-18T12:54:35Z</time>
      </trkpt>
      <trkpt lat="43.96707" lon="5.41343">
        <ele>594.23</ele>
        <time>2014-04-18T12:54:38Z</time>
      </trkpt>
      <trkpt lat="43.96695" lon="5.41334">
        <ele>590.87</ele>
        <time>2014-04-18T12:54:50Z</time>
      </trkpt>
      <trkpt lat="43.96692" lon="5.4133">
        <ele>589.91</ele>
        <time>2014-04-18T12:54:53Z</time>
      </trkpt>
      <trkpt lat="43.96687" lon="5.4132">
        <ele>587.5</ele>
        <time>2014-04-18T12:55:03Z</time>
      </trkpt>
      <trkpt lat="43.96677" lon="5.41307">
        <ele>584.62</ele>
        <time>2014-04-18T12:55:15Z</time>
      </trkpt>
      <trkpt lat="43.96671" lon="5.413">
        <ele>582.7</ele>
        <time>2014-04-18T12:55:24Z</time>
      </trkpt>
      <trkpt lat="43.9667" lon="5.41296">
        <ele>582.22</ele>
        <time>2014-04-18T12:55:27Z</time>
      </trkpt>
      <trkpt lat="43.96668" lon="5.41283">
        <ele>581.25</ele>
        <time>2014-04-18T12:55:37Z</time>
      </trkpt>
      <trkpt lat="43.96666" lon="5.4128">
        <ele>581.25</ele>
        <time>2014-04-18T12:55:42Z</time>
      </trkpt>
      <trkpt lat="43.96663" lon="5.41272">
        <ele>580.77</ele>
        <time>2014-04-18T12:55:49Z</time>
      </trkpt>
      <trkpt lat="43.96662" lon="5.4127">
        <ele>580.29</ele>
        <time>2014-04-18T12:55:51Z</time>
      </trkpt>
      <trkpt lat="43.96649" lon="5.41258">
        <ele>577.89</ele>
        <time>2014-04-18T12:56:02Z</time>
      </trkpt>
      <trkpt lat="43.96648" lon="5.41257">
        <ele>577.89</ele>
        <time>2014-04-18T12:56:03Z</time>
      </trkpt>
      <trkpt lat="43.96642" lon="5.4125">
        <ele>577.41</ele>
        <time>2014-04-18T12:56:12Z</time>
      </trkpt>
      <trkpt lat="43.96642" lon="5.4125">
        <ele>577.41</ele>
        <time>2014-04-18T12:56:17Z</time>
      </trkpt>
      <trkpt lat="43.96639" lon="5.4125">
        <ele>576.93</ele>
        <time>2014-04-18T12:56:21Z</time>
      </trkpt>
      <trkpt lat="43.96633" lon="5.41252">
        <ele>577.41</ele>
        <time>2014-04-18T12:56:26Z</time>
      </trkpt>
      <trkpt lat="43.96622" lon="5.41245">
        <ele>576.45</ele>
        <time>2014-04-18T12:56:38Z</time>
      </trkpt>
      <trkpt lat="43.96618" lon="5.41242">
        <ele>576.93</ele>
        <time>2014-04-18T12:56:42Z</time>
      </trkpt>
      <trkpt lat="43.96603" lon="5.41233">
        <ele>575.01</ele>
        <time>2014-04-18T12:56:56Z</time>
      </trkpt>
      <trkpt lat="43.96594" lon="5.41229">
        <ele>573.56</ele>
        <time>2014-04-18T12:57:04Z</time>
      </trkpt>
      <trkpt lat="43.9659" lon="5.41229">
        <ele>573.08</ele>
        <time>2014-04-18T12:57:07Z</time>
      </trkpt>
      <trkpt lat="43.96581" lon="5.41225">
        <ele>571.64</ele>
        <time>2014-04-18T12:57:16Z</time>
      </trkpt>
      <trkpt lat="43.96574" lon="5.41226">
        <ele>570.68</ele>
        <time>2014-04-18T12:57:22Z</time>
      </trkpt>
      <trkpt lat="43.96569" lon="5.41224">
        <ele>569.72</ele>
        <time>2014-04-18T12:57:27Z</time>
      </trkpt>
      <trkpt lat="43.96563" lon="5.41222">
        <ele>568.76</ele>
        <time>2014-04-18T12:57:39Z</time>
      </trkpt>
      <trkpt lat="43.96561" lon="5.41222">
        <ele>568.76</ele>
        <time>2014-04-18T12:57:42Z</time>
      </trkpt>
      <trkpt lat="43.96553" lon="5.41221">
        <ele>567.32</ele>
        <time>2014-04-18T12:57:50Z</time>
      </trkpt>
      <trkpt lat="43.96546" lon="5.4122">
        <ele>565.39</ele>
        <time>2014-04-18T12:57:58Z</time>
      </trkpt>
      <trkpt lat="43.96545" lon="5.41219">
        <ele>564.91</ele>
        <time>2014-04-18T12:57:59Z</time>
      </trkpt>
      <trkpt lat="43.96537" lon="5.41219">
        <ele>563.47</ele>
        <time>2014-04-18T12:58:06Z</time>
      </trkpt>
      <trkpt lat="43.96531" lon="5.41226">
        <ele>561.55</ele>
        <time>2014-04-18T12:58:13Z</time>
      </trkpt>
      <trkpt lat="43.9652" lon="5.41233">
        <ele>558.66</ele>
        <time>2014-04-18T12:58:25Z</time>
      </trkpt>
      <trkpt lat="43.96514" lon="5.41239">
        <ele>556.26</ele>
        <time>2014-04-18T12:58:35Z</time>
      </trkpt>
      <trkpt lat="43.96507" lon="5.41242">
        <ele>554.34</ele>
        <time>2014-04-18T12:58:45Z</time>
      </trkpt>
      <trkpt lat="43.96504" lon="5.41243">
        <ele>553.86</ele>
        <time>2014-04-18T12:58:47Z</time>
      </trkpt>
      <trkpt lat="43.96497" lon="5.41244">
        <ele>552.41</ele>
        <time>2014-04-18T12:58:56Z</time>
      </trkpt>
      <trkpt lat="43.96495" lon="5.41244">
        <ele>551.45</ele>
        <time>2014-04-18T12:59:00Z</time>
      </trkpt>
      <trkpt lat="43.96489" lon="5.41243">
        <ele>549.53</ele>
        <time>2014-04-18T12:59:08Z</time>
      </trkpt>
      <trkpt lat="43.96484" lon="5.41242">
        <ele>548.57</ele>
        <time>2014-04-18T12:59:13Z</time>
      </trkpt>
      <trkpt lat="43.96477" lon="5.41243">
        <ele>547.13</ele>
        <time>2014-04-18T12:59:22Z</time>
      </trkpt>
      <trkpt lat="43.96475" lon="5.41243">
        <ele>546.65</ele>
        <time>2014-04-18T12:59:24Z</time>
      </trkpt>
      <trkpt lat="43.96466" lon="5.41244">
        <ele>544.72</ele>
        <time>2014-04-18T12:59:34Z</time>
      </trkpt>
      <trkpt lat="43.96466" lon="5.41244">
        <ele>544.72</ele>
        <time>2014-04-18T12:59:35Z</time>
      </trkpt>
      <trkpt lat="43.96465" lon="5.41244">
        <ele>544.24</ele>
        <time>2014-04-18T12:59:36Z</time>
      </trkpt>
      <trkpt lat="43.96457" lon="5.41247">
        <ele>542.8</ele>
        <time>2014-04-18T12:59:48Z</time>
      </trkpt>
      <trkpt lat="43.96456" lon="5.41242">
        <ele>541.36</ele>
        <time>2014-04-18T12:59:54Z</time>
      </trkpt>
      <trkpt lat="43.96445" lon="5.41233">
        <ele>539.92</ele>
        <time>2014-04-18T13:00:04Z</time>
      </trkpt>
      <trkpt lat="43.96436" lon="5.41229">
        <ele>538.48</ele>
        <time>2014-04-18T13:00:14Z</time>
      </trkpt>
      <trkpt lat="43.96434" lon="5.41228">
        <ele>537.99</ele>
        <time>2014-04-18T13:00:19Z</time>
      </trkpt>
      <trkpt lat="43.96427" lon="5.41208">
        <ele>536.55</ele>
        <time>2014-04-18T13:00:30Z</time>
      </trkpt>
      <trkpt lat="43.96425" lon="5.41206">
        <ele>536.55</ele>
        <time>2014-04-18T13:00:32Z</time>
      </trkpt>
      <trkpt lat="43.96421" lon="5.41203">
        <ele>536.07</ele>
        <time>2014-04-18T13:00:37Z</time>
      </trkpt>
      <trkpt lat="43.96416" lon="5.41197">
        <ele>535.59</ele>
        <time>2014-04-18T13:00:43Z</time>
      </trkpt>
      <trkpt lat="43.96408" lon="5.41197">
        <ele>534.63</ele>
        <time>2014-04-18T13:00:51Z</time>
      </trkpt>
      <trkpt lat="43.96398" lon="5.41206">
        <ele>533.67</ele>
        <time>2014-04-18T13:01:01Z</time>
      </trkpt>
      <trkpt lat="43.96397" lon="5.41206">
        <ele>533.67</ele>
        <time>2014-04-18T13:01:02Z</time>
      </trkpt>
      <trkpt lat="43.96389" lon="5.41208">
        <ele>532.71</ele>
        <time>2014-04-18T13:01:11Z</time>
      </trkpt>
      <trkpt lat="43.96386" lon="5.41206">
        <ele>532.23</ele>
        <time>2014-04-18T13:01:16Z</time>
      </trkpt>
      <trkpt lat="43.96378" lon="5.41191">
        <ele>531.27</ele>
        <time>2014-04-18T13:01:26Z</time>
      </trkpt>
      <trkpt lat="43.96368" lon="5.41185">
        <ele>530.79</ele>
        <time>2014-04-18T13:01:36Z</time>
      </trkpt>
      <trkpt lat="43.96357" lon="5.41181">
        <ele>529.82</ele>
        <time>2014-04-18T13:01:46Z</time>
      </trkpt>
      <trkpt lat="43.96356" lon="5.41179">
        <ele>529.82</ele>
        <time>2014-04-18T13:01:47Z</time>
      </trkpt>
      <trkpt lat="43.96352" lon="5.41179">
        <ele>529.34</ele>
        <time>2014-04-18T13:01:50Z</time>
      </trkpt>
      <trkpt lat="43.96343" lon="5.41178">
        <ele>528.86</ele>
        <time>2014-04-18T13:02:00Z</time>
      </trkpt>
      <trkpt lat="43.96332" lon="5.41183">
        <ele>527.9</ele>
        <time>2014-04-18T13:02:10Z</time>
      </trkpt>
      <trkpt lat="43.9632" lon="5.41191">
        <ele>526.94</ele>
        <time>2014-04-18T13:02:20Z</time>
      </trkpt>
      <trkpt lat="43.96312" lon="5.41196">
        <ele>526.46</ele>
        <time>2014-04-18T13:02:28Z</time>
      </trkpt>
      <trkpt lat="43.96307" lon="5.41196">
        <ele>525.98</ele>
        <time>2014-04-18T13:02:33Z</time>
      </trkpt>
      <trkpt lat="43.96306" lon="5.41194">
        <ele>525.5</ele>
        <time>2014-04-18T13:02:35Z</time>
      </trkpt>
      <trkpt lat="43.96303" lon="5.4119">
        <ele>525.5</ele>
        <time>2014-04-18T13:02:38Z</time>
      </trkpt>
      <trkpt lat="43.96301" lon="5.41188">
        <ele>525.02</ele>
        <time>2014-04-18T13:02:40Z</time>
      </trkpt>
      <trkpt lat="43.96298" lon="5.41185">
        <ele>525.02</ele>
        <time>2014-04-18T13:02:43Z</time>
      </trkpt>
      <trkpt lat="43.96289" lon="5.41178">
        <ele>524.06</ele>
        <time>2014-04-18T13:02:52Z</time>
      </trkpt>
      <trkpt lat="43.96285" lon="5.41176">
        <ele>524.06</ele>
        <time>2014-04-18T13:02:55Z</time>
      </trkpt>
      <trkpt lat="43.96277" lon="5.41173">
        <ele>523.09</ele>
        <time>2014-04-18T13:03:02Z</time>
      </trkpt>
      <trkpt lat="43.96273" lon="5.41172">
        <ele>522.61</ele>
        <time>2014-04-18T13:03:05Z</time>
      </trkpt>
      <trkpt lat="43.96265" lon="5.41171">
        <ele>522.13</ele>
        <time>2014-04-18T13:03:13Z</time>
      </trkpt>
      <trkpt lat="43.96258" lon="5.41172">
        <ele>521.65</ele>
        <time>2014-04-18T13:03:19Z</time>
      </trkpt>
      <trkpt lat="43.96252" lon="5.41172">
        <ele>521.17</ele>
        <time>2014-04-18T13:03:23Z</time>
      </trkpt>
      <trkpt lat="43.96239" lon="5.41177">
        <ele>520.21</ele>
        <time>2014-04-18T13:03:33Z</time>
      </trkpt>
      <trkpt lat="43.9623" lon="5.41174">
        <ele>519.73</ele>
        <time>2014-04-18T13:03:40Z</time>
      </trkpt>
      <trkpt lat="43.96219" lon="5.41172">
        <ele>518.29</ele>
        <time>2014-04-18T13:03:51Z</time>
      </trkpt>
      <trkpt lat="43.96209" lon="5.41169">
        <ele>517.33</ele>
        <time>2014-04-18T13:04:02Z</time>
      </trkpt>
      <trkpt lat="43.96197" lon="5.41161">
        <ele>515.88</ele>
        <time>2014-04-18T13:04:13Z</time>
      </trkpt>
      <trkpt lat="43.96194" lon="5.41148">
        <ele>514.92</ele>
        <time>2014-04-18T13:04:22Z</time>
      </trkpt>
      <trkpt lat="43.96194" lon="5.41146">
        <ele>514.92</ele>
        <time>2014-04-18T13:04:23Z</time>
      </trkpt>
      <trkpt lat="43.96195" lon="5.4114">
        <ele>514.44</ele>
        <time>2014-04-18T13:04:26Z</time>
      </trkpt>
      <trkpt lat="43.96189" lon="5.41124">
        <ele>513.48</ele>
        <time>2014-04-18T13:04:36Z</time>
      </trkpt>
      <trkpt lat="43.96186" lon="5.41117">
        <ele>513</ele>
        <time>2014-04-18T13:04:41Z</time>
      </trkpt>
      <trkpt lat="43.96181" lon="5.41104">
        <ele>512.04</ele>
        <time>2014-04-18T13:04:50Z</time>
      </trkpt>
      <trkpt lat="43.96176" lon="5.41091">
        <ele>511.56</ele>
        <time>2014-04-18T13:04:57Z</time>
      </trkpt>
      <trkpt lat="43.96171" lon="5.41077">
        <ele>510.6</ele>
        <time>2014-04-18T13:05:07Z</time>
      </trkpt>
      <trkpt lat="43.96167" lon="5.41073">
        <ele>510.12</ele>
        <time>2014-04-18T13:05:11Z</time>
      </trkpt>
      <trkpt lat="43.96163" lon="5.41068">
        <ele>509.64</ele>
        <time>2014-04-18T13:05:16Z</time>
      </trkpt>
      <trkpt lat="43.96161" lon="5.41062">
        <ele>509.64</ele>
        <time>2014-04-18T13:05:19Z</time>
      </trkpt>
      <trkpt lat="43.96157" lon="5.41044">
        <ele>508.67</ele>
        <time>2014-04-18T13:05:31Z</time>
      </trkpt>
      <trkpt lat="43.96152" lon="5.4103">
        <ele>507.71</ele>
        <time>2014-04-18T13:05:41Z</time>
      </trkpt>
      <trkpt lat="43.9615" lon="5.41029">
        <ele>507.23</ele>
        <time>2014-04-18T13:05:43Z</time>
      </trkpt>
      <trkpt lat="43.9614" lon="5.41023">
        <ele>506.27</ele>
        <time>2014-04-18T13:05:52Z</time>
      </trkpt>
      <trkpt lat="43.96139" lon="5.41023">
        <ele>506.27</ele>
        <time>2014-04-18T13:05:53Z</time>
      </trkpt>
      <trkpt lat="43.96132" lon="5.41023">
        <ele>505.79</ele>
        <time>2014-04-18T13:05:59Z</time>
      </trkpt>
      <trkpt lat="43.9612" lon="5.41022">
        <ele>504.83</ele>
        <time>2014-04-18T13:06:09Z</time>
      </trkpt>
      <trkpt lat="43.96119" lon="5.41022">
        <ele>505.31</ele>
        <time>2014-04-18T13:06:21Z</time>
      </trkpt>
      <trkpt lat="43.9612" lon="5.41022">
        <ele>504.83</ele>
        <time>2014-04-18T13:06:36Z</time>
      </trkpt>
      <trkpt lat="43.96119" lon="5.41021">
        <ele>504.83</ele>
        <time>2014-04-18T13:06:58Z</time>
      </trkpt>
      <trkpt lat="43.96119" lon="5.41021">
        <ele>504.83</ele>
        <time>2014-04-18T13:07:11Z</time>
      </trkpt>
      <trkpt lat="43.96119" lon="5.41019">
        <ele>504.83</ele>
        <time>2014-04-18T13:07:30Z</time>
      </trkpt>
      <trkpt lat="43.96119" lon="5.41019">
        <ele>504.83</ele>
        <time>2014-04-18T13:07:47Z</time>
      </trkpt>
      <trkpt lat="43.96119" lon="5.41018">
        <ele>504.83</ele>
        <time>2014-04-18T13:08:08Z</time>
      </trkpt>
      <trkpt lat="43.96119" lon="5.41017">
        <ele>499.54</ele>
        <time>2014-04-18T13:08:26Z</time>
      </trkpt>
      <trkpt lat="43.96119" lon="5.41017">
        <ele>510.6</ele>
        <time>2014-04-18T13:08:27Z</time>
      </trkpt>
      <trkpt lat="43.96119" lon="5.41017">
        <ele>505.31</ele>
        <time>2014-04-18T13:08:28Z</time>
      </trkpt>
      <trkpt lat="43.96116" lon="5.41011">
        <ele>505.79</ele>
        <time>2014-04-18T13:08:38Z</time>
      </trkpt>
      <trkpt lat="43.9611" lon="5.41">
        <ele>507.71</ele>
        <time>2014-04-18T13:08:50Z</time>
      </trkpt>
      <trkpt lat="43.96102" lon="5.40992">
        <ele>509.16</ele>
        <time>2014-04-18T13:09:03Z</time>
      </trkpt>
      <trkpt lat="43.96096" lon="5.40983">
        <ele>511.08</ele>
        <time>2014-04-18T13:09:13Z</time>
      </trkpt>
      <trkpt lat="43.96093" lon="5.40978">
        <ele>513</ele>
        <time>2014-04-18T13:09:25Z</time>
      </trkpt>
      <trkpt lat="43.96091" lon="5.40965">
        <ele>515.4</ele>
        <time>2014-04-18T13:09:38Z</time>
      </trkpt>
      <trkpt lat="43.96089" lon="5.40956">
        <ele>517.33</ele>
        <time>2014-04-18T13:09:52Z</time>
      </trkpt>
      <trkpt lat="43.96087" lon="5.40945">
        <ele>519.25</ele>
        <time>2014-04-18T13:10:04Z</time>
      </trkpt>
      <trkpt lat="43.96083" lon="5.4094">
        <ele>521.17</ele>
        <time>2014-04-18T13:10:17Z</time>
      </trkpt>
      <trkpt lat="43.96082" lon="5.40935">
        <ele>522.13</ele>
        <time>2014-04-18T13:10:35Z</time>
      </trkpt>
      <trkpt lat="43.96076" lon="5.4092">
        <ele>524.06</ele>
        <time>2014-04-18T13:10:49Z</time>
      </trkpt>
      <trkpt lat="43.96072" lon="5.40913">
        <ele>525.5</ele>
        <time>2014-04-18T13:11:00Z</time>
      </trkpt>
      <trkpt lat="43.96067" lon="5.40903">
        <ele>527.42</ele>
        <time>2014-04-18T13:11:12Z</time>
      </trkpt>
      <trkpt lat="43.96058" lon="5.40896">
        <ele>528.38</ele>
        <time>2014-04-18T13:11:24Z</time>
      </trkpt>
      <trkpt lat="43.96058" lon="5.40896">
        <ele>528.38</ele>
        <time>2014-04-18T13:11:25Z</time>
      </trkpt>
      <trkpt lat="43.96054" lon="5.40894">
        <ele>528.38</ele>
        <time>2014-04-18T13:11:28Z</time>
      </trkpt>
      <trkpt lat="43.96042" lon="5.40888">
        <ele>529.34</ele>
        <time>2014-04-18T13:11:42Z</time>
      </trkpt>
      <trkpt lat="43.96032" lon="5.4088">
        <ele>530.79</ele>
        <time>2014-04-18T13:11:54Z</time>
      </trkpt>
      <trkpt lat="43.96025" lon="5.40873">
        <ele>532.71</ele>
        <time>2014-04-18T13:12:05Z</time>
      </trkpt>
      <trkpt lat="43.96019" lon="5.40865">
        <ele>534.15</ele>
        <time>2014-04-18T13:12:17Z</time>
      </trkpt>
      <trkpt lat="43.96009" lon="5.40861">
        <ele>534.63</ele>
        <time>2014-04-18T13:12:28Z</time>
      </trkpt>
      <trkpt lat="43.96" lon="5.40857">
        <ele>535.11</ele>
        <time>2014-04-18T13:12:40Z</time>
      </trkpt>
      <trkpt lat="43.9599" lon="5.40849">
        <ele>537.51</ele>
        <time>2014-04-18T13:12:54Z</time>
      </trkpt>
      <trkpt lat="43.95985" lon="5.40841">
        <ele>539.44</ele>
        <time>2014-04-18T13:13:06Z</time>
      </trkpt>
      <trkpt lat="43.95983" lon="5.40837">
        <ele>540.88</ele>
        <time>2014-04-18T13:13:18Z</time>
      </trkpt>
      <trkpt lat="43.95977" lon="5.40829">
        <ele>542.8</ele>
        <time>2014-04-18T13:13:33Z</time>
      </trkpt>
      <trkpt lat="43.95971" lon="5.40824">
        <ele>543.28</ele>
        <time>2014-04-18T13:13:43Z</time>
      </trkpt>
      <trkpt lat="43.9596" lon="5.40816">
        <ele>544.72</ele>
        <time>2014-04-18T13:13:54Z</time>
      </trkpt>
      <trkpt lat="43.95951" lon="5.40808">
        <ele>546.65</ele>
        <time>2014-04-18T13:14:07Z</time>
      </trkpt>
      <trkpt lat="43.95937" lon="5.40797">
        <ele>548.09</ele>
        <time>2014-04-18T13:14:21Z</time>
      </trkpt>
      <trkpt lat="43.95932" lon="5.40794">
        <ele>548.57</ele>
        <time>2014-04-18T13:14:33Z</time>
      </trkpt>
      <trkpt lat="43.95923" lon="5.40787">
        <ele>550.01</ele>
        <time>2014-04-18T13:14:45Z</time>
      </trkpt>
      <trkpt lat="43.95918" lon="5.40784">
        <ele>550.01</ele>
        <time>2014-04-18T13:14:50Z</time>
      </trkpt>
      <trkpt lat="43.95908" lon="5.4078">
        <ele>550.01</ele>
        <time>2014-04-18T13:15:01Z</time>
      </trkpt>
      <trkpt lat="43.95896" lon="5.40776">
        <ele>550.97</ele>
        <time>2014-04-18T13:15:13Z</time>
      </trkpt>
      <trkpt lat="43.95887" lon="5.40768">
        <ele>551.93</ele>
        <time>2014-04-18T13:15:25Z</time>
      </trkpt>
      <trkpt lat="43.95874" lon="5.4076">
        <ele>553.86</ele>
        <time>2014-04-18T13:15:38Z</time>
      </trkpt>
      <trkpt lat="43.95864" lon="5.40751">
        <ele>555.3</ele>
        <time>2014-04-18T13:15:52Z</time>
      </trkpt>
      <trkpt lat="43.95853" lon="5.40739">
        <ele>557.22</ele>
        <time>2014-04-18T13:16:05Z</time>
      </trkpt>
      <trkpt lat="43.95842" lon="5.40736">
        <ele>558.66</ele>
        <time>2014-04-18T13:16:17Z</time>
      </trkpt>
      <trkpt lat="43.95832" lon="5.40738">
        <ele>559.62</ele>
        <time>2014-04-18T13:16:29Z</time>
      </trkpt>
      <trkpt lat="43.9583" lon="5.40738">
        <ele>559.62</ele>
        <time>2014-04-18T13:16:31Z</time>
      </trkpt>
      <trkpt lat="43.95819" lon="5.4073">
        <ele>559.62</ele>
        <time>2014-04-18T13:16:43Z</time>
      </trkpt>
      <trkpt lat="43.95816" lon="5.40729">
        <ele>560.11</ele>
        <time>2014-04-18T13:16:46Z</time>
      </trkpt>
      <trkpt lat="43.95806" lon="5.40723">
        <ele>560.11</ele>
        <time>2014-04-18T13:16:58Z</time>
      </trkpt>
      <trkpt lat="43.95799" lon="5.40719">
        <ele>560.59</ele>
        <time>2014-04-18T13:17:06Z</time>
      </trkpt>
      <trkpt lat="43.95788" lon="5.40714">
        <ele>560.59</ele>
        <time>2014-04-18T13:17:17Z</time>
      </trkpt>
      <trkpt lat="43.95776" lon="5.40709">
        <ele>560.59</ele>
        <time>2014-04-18T13:17:28Z</time>
      </trkpt>
      <trkpt lat="43.95765" lon="5.40701">
        <ele>561.07</ele>
        <time>2014-04-18T13:17:39Z</time>
      </trkpt>
      <trkpt lat="43.95754" lon="5.4069">
        <ele>561.55</ele>
        <time>2014-04-18T13:17:51Z</time>
      </trkpt>
      <trkpt lat="43.95746" lon="5.4068">
        <ele>562.03</ele>
        <time>2014-04-18T13:18:01Z</time>
      </trkpt>
      <trkpt lat="43.9574" lon="5.40666">
        <ele>562.03</ele>
        <time>2014-04-18T13:18:11Z</time>
      </trkpt>
      <trkpt lat="43.95735" lon="5.40649">
        <ele>561.55</ele>
        <time>2014-04-18T13:18:22Z</time>
      </trkpt>
      <trkpt lat="43.95733" lon="5.40633">
        <ele>561.55</ele>
        <time>2014-04-18T13:18:33Z</time>
      </trkpt>
      <trkpt lat="43.95731" lon="5.40622">
        <ele>561.07</ele>
        <time>2014-04-18T13:18:41Z</time>
      </trkpt>
      <trkpt lat="43.95728" lon="5.40603">
        <ele>561.55</ele>
        <time>2014-04-18T13:18:52Z</time>
      </trkpt>
      <trkpt lat="43.95726" lon="5.40588">
        <ele>560.59</ele>
        <time>2014-04-18T13:19:05Z</time>
      </trkpt>
      <trkpt lat="43.95725" lon="5.40569">
        <ele>560.59</ele>
        <time>2014-04-18T13:19:17Z</time>
      </trkpt>
      <trkpt lat="43.95724" lon="5.40568">
        <ele>560.11</ele>
        <time>2014-04-18T13:19:18Z</time>
      </trkpt>
      <trkpt lat="43.95724" lon="5.40547">
        <ele>560.11</ele>
        <time>2014-04-18T13:19:30Z</time>
      </trkpt>
      <trkpt lat="43.95728" lon="5.40532">
        <ele>560.11</ele>
        <time>2014-04-18T13:19:41Z</time>
      </trkpt>
      <trkpt lat="43.95728" lon="5.40513">
        <ele>559.14</ele>
        <time>2014-04-18T13:19:52Z</time>
      </trkpt>
      <trkpt lat="43.95728" lon="5.40511">
        <ele>559.14</ele>
        <time>2014-04-18T13:19:53Z</time>
      </trkpt>
      <trkpt lat="43.95729" lon="5.40492">
        <ele>558.18</ele>
        <time>2014-04-18T13:20:03Z</time>
      </trkpt>
      <trkpt lat="43.95729" lon="5.40476">
        <ele>556.74</ele>
        <time>2014-04-18T13:20:14Z</time>
      </trkpt>
      <trkpt lat="43.95733" lon="5.4046">
        <ele>555.78</ele>
        <time>2014-04-18T13:20:24Z</time>
      </trkpt>
      <trkpt lat="43.95733" lon="5.40455">
        <ele>554.34</ele>
        <time>2014-04-18T13:20:27Z</time>
      </trkpt>
      <trkpt lat="43.95734" lon="5.40434">
        <ele>552.9</ele>
        <time>2014-04-18T13:20:39Z</time>
      </trkpt>
      <trkpt lat="43.95731" lon="5.40416">
        <ele>550.97</ele>
        <time>2014-04-18T13:20:52Z</time>
      </trkpt>
      <trkpt lat="43.95729" lon="5.40413">
        <ele>550.49</ele>
        <time>2014-04-18T13:20:55Z</time>
      </trkpt>
      <trkpt lat="43.95725" lon="5.40396">
        <ele>548.57</ele>
        <time>2014-04-18T13:21:06Z</time>
      </trkpt>
      <trkpt lat="43.95717" lon="5.40377">
        <ele>548.09</ele>
        <time>2014-04-18T13:21:19Z</time>
      </trkpt>
      <trkpt lat="43.9571" lon="5.40363">
        <ele>547.61</ele>
        <time>2014-04-18T13:21:32Z</time>
      </trkpt>
      <trkpt lat="43.95695" lon="5.40344">
        <ele>546.17</ele>
        <time>2014-04-18T13:21:48Z</time>
      </trkpt>
      <trkpt lat="43.95682" lon="5.40338">
        <ele>545.69</ele>
        <time>2014-04-18T13:21:58Z</time>
      </trkpt>
      <trkpt lat="43.95665" lon="5.40346">
        <ele>545.69</ele>
        <time>2014-04-18T13:22:11Z</time>
      </trkpt>
      <trkpt lat="43.95648" lon="5.40357">
        <ele>545.2</ele>
        <time>2014-04-18T13:22:25Z</time>
      </trkpt>
      <trkpt lat="43.95637" lon="5.40362">
        <ele>544.72</ele>
        <time>2014-04-18T13:22:36Z</time>
      </trkpt>
      <trkpt lat="43.95623" lon="5.40363">
        <ele>543.76</ele>
        <time>2014-04-18T13:22:47Z</time>
      </trkpt>
      <trkpt lat="43.95606" lon="5.4036">
        <ele>542.8</ele>
        <time>2014-04-18T13:23:01Z</time>
      </trkpt>
      <trkpt lat="43.95593" lon="5.4035">
        <ele>541.36</ele>
        <time>2014-04-18T13:23:10Z</time>
      </trkpt>
      <trkpt lat="43.95581" lon="5.40337">
        <ele>539.92</ele>
        <time>2014-04-18T13:23:21Z</time>
      </trkpt>
      <trkpt lat="43.95571" lon="5.40327">
        <ele>538.96</ele>
        <time>2014-04-18T13:23:32Z</time>
      </trkpt>
      <trkpt lat="43.95559" lon="5.40314">
        <ele>538.96</ele>
        <time>2014-04-18T13:23:44Z</time>
      </trkpt>
      <trkpt lat="43.95555" lon="5.40311">
        <ele>537.51</ele>
        <time>2014-04-18T13:23:48Z</time>
      </trkpt>
      <trkpt lat="43.95542" lon="5.40297">
        <ele>536.07</ele>
        <time>2014-04-18T13:24:02Z</time>
      </trkpt>
      <trkpt lat="43.9553" lon="5.40278">
        <ele>534.15</ele>
        <time>2014-04-18T13:24:16Z</time>
      </trkpt>
      <trkpt lat="43.95523" lon="5.40266">
        <ele>533.67</ele>
        <time>2014-04-18T13:24:24Z</time>
      </trkpt>
      <trkpt lat="43.95517" lon="5.40255">
        <ele>532.71</ele>
        <time>2014-04-18T13:24:31Z</time>
      </trkpt>
      <trkpt lat="43.95503" lon="5.40231">
        <ele>531.27</ele>
        <time>2014-04-18T13:24:47Z</time>
      </trkpt>
      <trkpt lat="43.95493" lon="5.40209">
        <ele>530.3</ele>
        <time>2014-04-18T13:25:00Z</time>
      </trkpt>
      <trkpt lat="43.95483" lon="5.40192">
        <ele>528.86</ele>
        <time>2014-04-18T13:25:13Z</time>
      </trkpt>
      <trkpt lat="43.95479" lon="5.40171">
        <ele>526.94</ele>
        <time>2014-04-18T13:25:25Z</time>
      </trkpt>
      <trkpt lat="43.95483" lon="5.40155">
        <ele>525.98</ele>
        <time>2014-04-18T13:25:36Z</time>
      </trkpt>
      <trkpt lat="43.95489" lon="5.40139">
        <ele>525.5</ele>
        <time>2014-04-18T13:25:48Z</time>
      </trkpt>
      <trkpt lat="43.9549" lon="5.40138">
        <ele>525.5</ele>
        <time>2014-04-18T13:25:49Z</time>
      </trkpt>
      <trkpt lat="43.95488" lon="5.40115">
        <ele>524.54</ele>
        <time>2014-04-18T13:26:02Z</time>
      </trkpt>
      <trkpt lat="43.95483" lon="5.40095">
        <ele>524.06</ele>
        <time>2014-04-18T13:26:12Z</time>
      </trkpt>
      <trkpt lat="43.95475" lon="5.40079">
        <ele>522.61</ele>
        <time>2014-04-18T13:26:23Z</time>
      </trkpt>
      <trkpt lat="43.95468" lon="5.40075">
        <ele>522.13</ele>
        <time>2014-04-18T13:26:30Z</time>
      </trkpt>
      <trkpt lat="43.9546" lon="5.40068">
        <ele>521.17</ele>
        <time>2014-04-18T13:26:38Z</time>
      </trkpt>
      <trkpt lat="43.95445" lon="5.40053">
        <ele>520.21</ele>
        <time>2014-04-18T13:26:54Z</time>
      </trkpt>
      <trkpt lat="43.95432" lon="5.40041">
        <ele>519.25</ele>
        <time>2014-04-18T13:27:06Z</time>
      </trkpt>
      <trkpt lat="43.95424" lon="5.40036">
        <ele>518.77</ele>
        <time>2014-04-18T13:27:18Z</time>
      </trkpt>
      <trkpt lat="43.95423" lon="5.40033">
        <ele>518.29</ele>
        <time>2014-04-18T13:27:21Z</time>
      </trkpt>
      <trkpt lat="43.95411" lon="5.40014">
        <ele>517.33</ele>
        <time>2014-04-18T13:27:36Z</time>
      </trkpt>
      <trkpt lat="43.95407" lon="5.40008">
        <ele>516.85</ele>
        <time>2014-04-18T13:27:41Z</time>
      </trkpt>
      <trkpt lat="43.95403" lon="5.4">
        <ele>516.37</ele>
        <time>2014-04-18T13:27:46Z</time>
      </trkpt>
      <trkpt lat="43.95398" lon="5.39994">
        <ele>515.88</ele>
        <time>2014-04-18T13:27:52Z</time>
      </trkpt>
      <trkpt lat="43.95383" lon="5.39995">
        <ele>514.44</ele>
        <time>2014-04-18T13:28:05Z</time>
      </trkpt>
      <trkpt lat="43.95378" lon="5.4001">
        <ele>513.96</ele>
        <time>2014-04-18T13:28:16Z</time>
      </trkpt>
      <trkpt lat="43.95378" lon="5.40013">
        <ele>513.96</ele>
        <time>2014-04-18T13:28:18Z</time>
      </trkpt>
      <trkpt lat="43.95386" lon="5.40031">
        <ele>513</ele>
        <time>2014-04-18T13:28:31Z</time>
      </trkpt>
      <trkpt lat="43.95395" lon="5.40047">
        <ele>512.52</ele>
        <time>2014-04-18T13:28:42Z</time>
      </trkpt>
      <trkpt lat="43.95397" lon="5.40054">
        <ele>512.04</ele>
        <time>2014-04-18T13:28:47Z</time>
      </trkpt>
      <trkpt lat="43.95396" lon="5.40063">
        <ele>511.08</ele>
        <time>2014-04-18T13:28:52Z</time>
      </trkpt>
      <trkpt lat="43.95383" lon="5.40077">
        <ele>509.16</ele>
        <time>2014-04-18T13:29:04Z</time>
      </trkpt>
      <trkpt lat="43.9538" lon="5.40077">
        <ele>509.16</ele>
        <time>2014-04-18T13:29:06Z</time>
      </trkpt>
      <trkpt lat="43.95372" lon="5.40073">
        <ele>508.19</ele>
        <time>2014-04-18T13:29:18Z</time>
      </trkpt>
      <trkpt lat="43.95372" lon="5.40072">
        <ele>507.71</ele>
        <time>2014-04-18T13:29:22Z</time>
      </trkpt>
      <trkpt lat="43.95361" lon="5.40067">
        <ele>506.75</ele>
        <time>2014-04-18T13:29:35Z</time>
      </trkpt>
      <trkpt lat="43.95353" lon="5.4006">
        <ele>505.79</ele>
        <time>2014-04-18T13:29:43Z</time>
      </trkpt>
      <trkpt lat="43.95346" lon="5.40055">
        <ele>505.31</ele>
        <time>2014-04-18T13:29:51Z</time>
      </trkpt>
      <trkpt lat="43.95334" lon="5.40045">
        <ele>503.39</ele>
        <time>2014-04-18T13:30:01Z</time>
      </trkpt>
      <trkpt lat="43.95321" lon="5.40032">
        <ele>501.95</ele>
        <time>2014-04-18T13:30:12Z</time>
      </trkpt>
      <trkpt lat="43.95309" lon="5.40019">
        <ele>500.98</ele>
        <time>2014-04-18T13:30:23Z</time>
      </trkpt>
      <trkpt lat="43.95296" lon="5.40006">
        <ele>499.54</ele>
        <time>2014-04-18T13:30:36Z</time>
      </trkpt>
      <trkpt lat="43.9529" lon="5.39999">
        <ele>499.06</ele>
        <time>2014-04-18T13:30:45Z</time>
      </trkpt>
      <trkpt lat="43.95277" lon="5.39984">
        <ele>497.14</ele>
        <time>2014-04-18T13:30:59Z</time>
      </trkpt>
      <trkpt lat="43.95269" lon="5.39966">
        <ele>495.22</ele>
        <time>2014-04-18T13:31:12Z</time>
      </trkpt>
      <trkpt lat="43.95268" lon="5.39951">
        <ele>494.74</ele>
        <time>2014-04-18T13:31:22Z</time>
      </trkpt>
      <trkpt lat="43.95268" lon="5.39933">
        <ele>493.29</ele>
        <time>2014-04-18T13:31:32Z</time>
      </trkpt>
      <trkpt lat="43.95268" lon="5.39925">
        <ele>492.81</ele>
        <time>2014-04-18T13:31:37Z</time>
      </trkpt>
      <trkpt lat="43.95268" lon="5.39906">
        <ele>489.93</ele>
        <time>2014-04-18T13:31:50Z</time>
      </trkpt>
      <trkpt lat="43.95269" lon="5.39886">
        <ele>489.45</ele>
        <time>2014-04-18T13:32:03Z</time>
      </trkpt>
      <trkpt lat="43.95268" lon="5.39883">
        <ele>488.01</ele>
        <time>2014-04-18T13:32:05Z</time>
      </trkpt>
      <trkpt lat="43.95266" lon="5.39856">
        <ele>487.05</ele>
        <time>2014-04-18T13:32:17Z</time>
      </trkpt>
      <trkpt lat="43.95264" lon="5.39832">
        <ele>485.12</ele>
        <time>2014-04-18T13:32:30Z</time>
      </trkpt>
      <trkpt lat="43.95261" lon="5.39815">
        <ele>484.64</ele>
        <time>2014-04-18T13:32:40Z</time>
      </trkpt>
      <trkpt lat="43.95258" lon="5.39799">
        <ele>483.2</ele>
        <time>2014-04-18T13:32:51Z</time>
      </trkpt>
      <trkpt lat="43.95257" lon="5.3979">
        <ele>482.72</ele>
        <time>2014-04-18T13:32:58Z</time>
      </trkpt>
      <trkpt lat="43.95255" lon="5.39773">
        <ele>481.76</ele>
        <time>2014-04-18T13:33:10Z</time>
      </trkpt>
      <trkpt lat="43.95252" lon="5.39753">
        <ele>480.32</ele>
        <time>2014-04-18T13:33:22Z</time>
      </trkpt>
      <trkpt lat="43.95244" lon="5.39725">
        <ele>478.39</ele>
        <time>2014-04-18T13:33:34Z</time>
      </trkpt>
      <trkpt lat="43.95243" lon="5.39719">
        <ele>478.39</ele>
        <time>2014-04-18T13:33:37Z</time>
      </trkpt>
      <trkpt lat="43.95242" lon="5.39714">
        <ele>478.39</ele>
        <time>2014-04-18T13:33:40Z</time>
      </trkpt>
      <trkpt lat="43.95238" lon="5.39703">
        <ele>477.91</ele>
        <time>2014-04-18T13:33:45Z</time>
      </trkpt>
      <trkpt lat="43.95237" lon="5.39695">
        <ele>476.95</ele>
        <time>2014-04-18T13:33:50Z</time>
      </trkpt>
      <trkpt lat="43.95232" lon="5.39672">
        <ele>475.03</ele>
        <time>2014-04-18T13:34:01Z</time>
      </trkpt>
      <trkpt lat="43.95232" lon="5.39665">
        <ele>475.03</ele>
        <time>2014-04-18T13:34:05Z</time>
      </trkpt>
      <trkpt lat="43.95233" lon="5.39655">
        <ele>474.55</ele>
        <time>2014-04-18T13:34:11Z</time>
      </trkpt>
      <trkpt lat="43.95235" lon="5.39628">
        <ele>474.07</ele>
        <time>2014-04-18T13:34:25Z</time>
      </trkpt>
      <trkpt lat="43.95241" lon="5.39609">
        <ele>473.11</ele>
        <time>2014-04-18T13:34:35Z</time>
      </trkpt>
      <trkpt lat="43.95252" lon="5.39594">
        <ele>472.14</ele>
        <time>2014-04-18T13:34:47Z</time>
      </trkpt>
      <trkpt lat="43.95262" lon="5.39581">
        <ele>470.22</ele>
        <time>2014-04-18T13:35:00Z</time>
      </trkpt>
      <trkpt lat="43.95277" lon="5.3957">
        <ele>468.78</ele>
        <time>2014-04-18T13:35:12Z</time>
      </trkpt>
      <trkpt lat="43.9529" lon="5.39561">
        <ele>467.34</ele>
        <time>2014-04-18T13:35:25Z</time>
      </trkpt>
      <trkpt lat="43.95301" lon="5.3955">
        <ele>466.38</ele>
        <time>2014-04-18T13:35:36Z</time>
      </trkpt>
      <trkpt lat="43.95307" lon="5.39544">
        <ele>465.42</ele>
        <time>2014-04-18T13:35:41Z</time>
      </trkpt>
      <trkpt lat="43.95308" lon="5.39536">
        <ele>465.42</ele>
        <time>2014-04-18T13:35:46Z</time>
      </trkpt>
      <trkpt lat="43.95305" lon="5.39526">
        <ele>464.45</ele>
        <time>2014-04-18T13:35:52Z</time>
      </trkpt>
      <trkpt lat="43.95297" lon="5.39512">
        <ele>463.01</ele>
        <time>2014-04-18T13:36:02Z</time>
      </trkpt>
      <trkpt lat="43.95286" lon="5.39498">
        <ele>462.05</ele>
        <time>2014-04-18T13:36:13Z</time>
      </trkpt>
      <trkpt lat="43.95275" lon="5.39479">
        <ele>461.09</ele>
        <time>2014-04-18T13:36:26Z</time>
      </trkpt>
      <trkpt lat="43.95268" lon="5.39463">
        <ele>460.13</ele>
        <time>2014-04-18T13:36:36Z</time>
      </trkpt>
      <trkpt lat="43.95262" lon="5.39442">
        <ele>458.69</ele>
        <time>2014-04-18T13:36:50Z</time>
      </trkpt>
      <trkpt lat="43.95254" lon="5.39423">
        <ele>457.72</ele>
        <time>2014-04-18T13:37:02Z</time>
      </trkpt>
      <trkpt lat="43.95252" lon="5.39419">
        <ele>457.72</ele>
        <time>2014-04-18T13:37:04Z</time>
      </trkpt>
      <trkpt lat="43.9525" lon="5.39412">
        <ele>457.24</ele>
        <time>2014-04-18T13:37:08Z</time>
      </trkpt>
      <trkpt lat="43.95245" lon="5.39403">
        <ele>456.28</ele>
        <time>2014-04-18T13:37:15Z</time>
      </trkpt>
      <trkpt lat="43.95236" lon="5.39388">
        <ele>453.88</ele>
        <time>2014-04-18T13:37:28Z</time>
      </trkpt>
      <trkpt lat="43.95226" lon="5.39365">
        <ele>452.92</ele>
        <time>2014-04-18T13:37:41Z</time>
      </trkpt>
      <trkpt lat="43.95219" lon="5.39351">
        <ele>451.48</ele>
        <time>2014-04-18T13:37:53Z</time>
      </trkpt>
      <trkpt lat="43.95209" lon="5.39336">
        <ele>450.03</ele>
        <time>2014-04-18T13:38:03Z</time>
      </trkpt>
      <trkpt lat="43.95203" lon="5.39324">
        <ele>448.59</ele>
        <time>2014-04-18T13:38:14Z</time>
      </trkpt>
      <trkpt lat="43.95194" lon="5.39312">
        <ele>447.15</ele>
        <time>2014-04-18T13:38:25Z</time>
      </trkpt>
      <trkpt lat="43.95185" lon="5.39299">
        <ele>445.23</ele>
        <time>2014-04-18T13:38:36Z</time>
      </trkpt>
      <trkpt lat="43.95178" lon="5.39291">
        <ele>443.31</ele>
        <time>2014-04-18T13:38:47Z</time>
      </trkpt>
      <trkpt lat="43.95176" lon="5.39286">
        <ele>442.82</ele>
        <time>2014-04-18T13:38:51Z</time>
      </trkpt>
      <trkpt lat="43.95173" lon="5.39282">
        <ele>442.34</ele>
        <time>2014-04-18T13:38:55Z</time>
      </trkpt>
      <trkpt lat="43.95169" lon="5.39277">
        <ele>441.86</ele>
        <time>2014-04-18T13:38:59Z</time>
      </trkpt>
      <trkpt lat="43.95167" lon="5.39274">
        <ele>441.38</ele>
        <time>2014-04-18T13:39:01Z</time>
      </trkpt>
      <trkpt lat="43.95156" lon="5.39256">
        <ele>439.94</ele>
        <time>2014-04-18T13:39:12Z</time>
      </trkpt>
      <trkpt lat="43.95143" lon="5.39236">
        <ele>438.98</ele>
        <time>2014-04-18T13:39:26Z</time>
      </trkpt>
      <trkpt lat="43.95135" lon="5.39226">
        <ele>438.02</ele>
        <time>2014-04-18T13:39:34Z</time>
      </trkpt>
      <trkpt lat="43.95125" lon="5.39211">
        <ele>437.06</ele>
        <time>2014-04-18T13:39:45Z</time>
      </trkpt>
      <trkpt lat="43.9511" lon="5.392">
        <ele>435.13</ele>
        <time>2014-04-18T13:39:58Z</time>
      </trkpt>
      <trkpt lat="43.95097" lon="5.39184">
        <ele>433.69</ele>
        <time>2014-04-18T13:40:10Z</time>
      </trkpt>
      <trkpt lat="43.95084" lon="5.39166">
        <ele>432.25</ele>
        <time>2014-04-18T13:40:23Z</time>
      </trkpt>
      <trkpt lat="43.95075" lon="5.39151">
        <ele>431.29</ele>
        <time>2014-04-18T13:40:33Z</time>
      </trkpt>
      <trkpt lat="43.95068" lon="5.39142">
        <ele>429.85</ele>
        <time>2014-04-18T13:40:42Z</time>
      </trkpt>
      <trkpt lat="43.95054" lon="5.39126">
        <ele>427.92</ele>
        <time>2014-04-18T13:40:54Z</time>
      </trkpt>
      <trkpt lat="43.9504" lon="5.39111">
        <ele>426</ele>
        <time>2014-04-18T13:41:08Z</time>
      </trkpt>
      <trkpt lat="43.95028" lon="5.391">
        <ele>425.04</ele>
        <time>2014-04-18T13:41:20Z</time>
      </trkpt>
      <trkpt lat="43.95017" lon="5.39088">
        <ele>424.08</ele>
        <time>2014-04-18T13:41:30Z</time>
      </trkpt>
      <trkpt lat="43.95006" lon="5.39072">
        <ele>423.12</ele>
        <time>2014-04-18T13:41:42Z</time>
      </trkpt>
      <trkpt lat="43.94992" lon="5.3906">
        <ele>421.19</ele>
        <time>2014-04-18T13:41:56Z</time>
      </trkpt>
      <trkpt lat="43.94981" lon="5.39044">
        <ele>419.27</ele>
        <time>2014-04-18T13:42:10Z</time>
      </trkpt>
      <trkpt lat="43.94978" lon="5.39039">
        <ele>418.31</ele>
        <time>2014-04-18T13:42:15Z</time>
      </trkpt>
      <trkpt lat="43.94976" lon="5.39037">
        <ele>418.31</ele>
        <time>2014-04-18T13:42:17Z</time>
      </trkpt>
      <trkpt lat="43.94961" lon="5.39022">
        <ele>416.39</ele>
        <time>2014-04-18T13:42:29Z</time>
      </trkpt>
      <trkpt lat="43.94958" lon="5.3902">
        <ele>415.43</ele>
        <time>2014-04-18T13:42:32Z</time>
      </trkpt>
      <trkpt lat="43.94947" lon="5.3901">
        <ele>413.98</ele>
        <time>2014-04-18T13:42:44Z</time>
      </trkpt>
      <trkpt lat="43.94933" lon="5.39">
        <ele>412.54</ele>
        <time>2014-04-18T13:42:56Z</time>
      </trkpt>
      <trkpt lat="43.94916" lon="5.38991">
        <ele>411.1</ele>
        <time>2014-04-18T13:43:09Z</time>
      </trkpt>
      <trkpt lat="43.94912" lon="5.38987">
        <ele>410.62</ele>
        <time>2014-04-18T13:43:15Z</time>
      </trkpt>
      <trkpt lat="43.94898" lon="5.38977">
        <ele>408.7</ele>
        <time>2014-04-18T13:43:27Z</time>
      </trkpt>
      <trkpt lat="43.94881" lon="5.38972">
        <ele>406.77</ele>
        <time>2014-04-18T13:43:41Z</time>
      </trkpt>
      <trkpt lat="43.94875" lon="5.3897">
        <ele>405.33</ele>
        <time>2014-04-18T13:43:46Z</time>
      </trkpt>
      <trkpt lat="43.9486" lon="5.38966">
        <ele>404.85</ele>
        <time>2014-04-18T13:43:57Z</time>
      </trkpt>
      <trkpt lat="43.94843" lon="5.38963">
        <ele>402.93</ele>
        <time>2014-04-18T13:44:10Z</time>
      </trkpt>
      <trkpt lat="43.94831" lon="5.38957">
        <ele>401.97</ele>
        <time>2014-04-18T13:44:21Z</time>
      </trkpt>
      <trkpt lat="43.94815" lon="5.38951">
        <ele>400.53</ele>
        <time>2014-04-18T13:44:33Z</time>
      </trkpt>
      <trkpt lat="43.94801" lon="5.38939">
        <ele>398.6</ele>
        <time>2014-04-18T13:44:44Z</time>
      </trkpt>
      <trkpt lat="43.94786" lon="5.38926">
        <ele>395.72</ele>
        <time>2014-04-18T13:44:57Z</time>
      </trkpt>
      <trkpt lat="43.94774" lon="5.3891">
        <ele>396.68</ele>
        <time>2014-04-18T13:45:09Z</time>
      </trkpt>
      <trkpt lat="43.94765" lon="5.38901">
        <ele>395.24</ele>
        <time>2014-04-18T13:45:19Z</time>
      </trkpt>
      <trkpt lat="43.94754" lon="5.38892">
        <ele>394.28</ele>
        <time>2014-04-18T13:45:30Z</time>
      </trkpt>
      <trkpt lat="43.94744" lon="5.38883">
        <ele>393.32</ele>
        <time>2014-04-18T13:45:39Z</time>
      </trkpt>
      <trkpt lat="43.9473" lon="5.38871">
        <ele>392.36</ele>
        <time>2014-04-18T13:45:50Z</time>
      </trkpt>
      <trkpt lat="43.9472" lon="5.38859">
        <ele>391.39</ele>
        <time>2014-04-18T13:46:02Z</time>
      </trkpt>
      <trkpt lat="43.94709" lon="5.38846">
        <ele>391.39</ele>
        <time>2014-04-18T13:46:13Z</time>
      </trkpt>
      <trkpt lat="43.94698" lon="5.38833">
        <ele>390.43</ele>
        <time>2014-04-18T13:46:22Z</time>
      </trkpt>
      <trkpt lat="43.94696" lon="5.38828">
        <ele>389.95</ele>
        <time>2014-04-18T13:46:27Z</time>
      </trkpt>
      <trkpt lat="43.94693" lon="5.38824">
        <ele>389.47</ele>
        <time>2014-04-18T13:46:30Z</time>
      </trkpt>
      <trkpt lat="43.94685" lon="5.38814">
        <ele>388.51</ele>
        <time>2014-04-18T13:46:41Z</time>
      </trkpt>
      <trkpt lat="43.94679" lon="5.38806">
        <ele>388.03</ele>
        <time>2014-04-18T13:46:47Z</time>
      </trkpt>
      <trkpt lat="43.94673" lon="5.38796">
        <ele>388.03</ele>
        <time>2014-04-18T13:46:58Z</time>
      </trkpt>
      <trkpt lat="43.94671" lon="5.38791">
        <ele>388.03</ele>
        <time>2014-04-18T13:47:01Z</time>
      </trkpt>
      <trkpt lat="43.9466" lon="5.38772">
        <ele>388.03</ele>
        <time>2014-04-18T13:47:14Z</time>
      </trkpt>
      <trkpt lat="43.94655" lon="5.38765">
        <ele>387.55</ele>
        <time>2014-04-18T13:47:25Z</time>
      </trkpt>
      <trkpt lat="43.94652" lon="5.38761">
        <ele>387.55</ele>
        <time>2014-04-18T13:47:38Z</time>
      </trkpt>
      <trkpt lat="43.9465" lon="5.38754">
        <ele>387.07</ele>
        <time>2014-04-18T13:47:50Z</time>
      </trkpt>
      <trkpt lat="43.94646" lon="5.38747">
        <ele>387.07</ele>
        <time>2014-04-18T13:48:00Z</time>
      </trkpt>
      <trkpt lat="43.94637" lon="5.38733">
        <ele>387.07</ele>
        <time>2014-04-18T13:48:09Z</time>
      </trkpt>
      <trkpt lat="43.94627" lon="5.3871">
        <ele>387.55</ele>
        <time>2014-04-18T13:48:20Z</time>
      </trkpt>
      <trkpt lat="43.94618" lon="5.38696">
        <ele>388.03</ele>
        <time>2014-04-18T13:48:31Z</time>
      </trkpt>
      <trkpt lat="43.94609" lon="5.38683">
        <ele>388.03</ele>
        <time>2014-04-18T13:48:41Z</time>
      </trkpt>
      <trkpt lat="43.94607" lon="5.38678">
        <ele>388.03</ele>
        <time>2014-04-18T13:48:44Z</time>
      </trkpt>
      <trkpt lat="43.946" lon="5.38664">
        <ele>388.51</ele>
        <time>2014-04-18T13:48:54Z</time>
      </trkpt>
      <trkpt lat="43.94599" lon="5.38663">
        <ele>388.51</ele>
        <time>2014-04-18T13:48:55Z</time>
      </trkpt>
      <trkpt lat="43.94596" lon="5.3866">
        <ele>388.99</ele>
        <time>2014-04-18T13:49:04Z</time>
      </trkpt>
      <trkpt lat="43.94596" lon="5.38659">
        <ele>388.99</ele>
        <time>2014-04-18T13:49:19Z</time>
      </trkpt>
      <trkpt lat="43.94598" lon="5.3866">
        <ele>388.99</ele>
        <time>2014-04-18T13:49:33Z</time>
      </trkpt>
      <trkpt lat="43.94598" lon="5.38658">
        <ele>388.03</ele>
        <time>2014-04-18T13:49:50Z</time>
      </trkpt>
      <trkpt lat="43.94601" lon="5.38654">
        <ele>388.51</ele>
        <time>2014-04-18T13:50:06Z</time>
      </trkpt>
      <trkpt lat="43.94596" lon="5.38658">
        <ele>388.99</ele>
        <time>2014-04-18T13:50:16Z</time>
      </trkpt>
      <trkpt lat="43.94597" lon="5.38657">
        <ele>388.99</ele>
        <time>2014-04-18T13:50:26Z</time>
      </trkpt>
      <trkpt lat="43.94595" lon="5.38656">
        <ele>388.99</ele>
        <time>2014-04-18T13:50:28Z</time>
      </trkpt>
      <trkpt lat="43.94591" lon="5.38652">
        <ele>389.47</ele>
        <time>2014-04-18T13:50:33Z</time>
      </trkpt>
      <trkpt lat="43.94583" lon="5.38642">
        <ele>388.99</ele>
        <time>2014-04-18T13:50:42Z</time>
      </trkpt>
      <trkpt lat="43.94572" lon="5.38629">
        <ele>388.99</ele>
        <time>2014-04-18T13:50:54Z</time>
      </trkpt>
      <trkpt lat="43.94572" lon="5.38629">
        <ele>388.99</ele>
        <time>2014-04-18T13:50:57Z</time>
      </trkpt>
      <trkpt lat="43.94569" lon="5.38625">
        <ele>389.47</ele>
        <time>2014-04-18T13:51:00Z</time>
      </trkpt>
      <trkpt lat="43.94562" lon="5.38618">
        <ele>389.47</ele>
        <time>2014-04-18T13:51:07Z</time>
      </trkpt>
      <trkpt lat="43.94561" lon="5.38609">
        <ele>389.47</ele>
        <time>2014-04-18T13:51:13Z</time>
      </trkpt>
      <trkpt lat="43.94559" lon="5.38607">
        <ele>388.99</ele>
        <time>2014-04-18T13:51:15Z</time>
      </trkpt>
      <trkpt lat="43.94552" lon="5.38599">
        <ele>388.99</ele>
        <time>2014-04-18T13:51:22Z</time>
      </trkpt>
      <trkpt lat="43.94548" lon="5.38593">
        <ele>388.99</ele>
        <time>2014-04-18T13:51:28Z</time>
      </trkpt>
      <trkpt lat="43.94537" lon="5.38581">
        <ele>388.99</ele>
        <time>2014-04-18T13:51:39Z</time>
      </trkpt>
      <trkpt lat="43.94534" lon="5.38577">
        <ele>388.99</ele>
        <time>2014-04-18T13:51:43Z</time>
      </trkpt>
      <trkpt lat="43.94525" lon="5.38566">
        <ele>388.99</ele>
        <time>2014-04-18T13:51:53Z</time>
      </trkpt>
      <trkpt lat="43.94515" lon="5.38555">
        <ele>388.51</ele>
        <time>2014-04-18T13:52:03Z</time>
      </trkpt>
      <trkpt lat="43.94507" lon="5.38546">
        <ele>388.03</ele>
        <time>2014-04-18T13:52:12Z</time>
      </trkpt>
      <trkpt lat="43.94507" lon="5.38545">
        <ele>388.03</ele>
        <time>2014-04-18T13:52:13Z</time>
      </trkpt>
      <trkpt lat="43.94496" lon="5.38531">
        <ele>387.07</ele>
        <time>2014-04-18T13:52:26Z</time>
      </trkpt>
      <trkpt lat="43.94487" lon="5.38518">
        <ele>386.59</ele>
        <time>2014-04-18T13:52:36Z</time>
      </trkpt>
      <trkpt lat="43.94479" lon="5.38507">
        <ele>386.59</ele>
        <time>2014-04-18T13:52:46Z</time>
      </trkpt>
      <trkpt lat="43.94476" lon="5.38503">
        <ele>386.11</ele>
        <time>2014-04-18T13:52:51Z</time>
      </trkpt>
      <trkpt lat="43.94465" lon="5.38492">
        <ele>385.63</ele>
        <time>2014-04-18T13:53:02Z</time>
      </trkpt>
      <trkpt lat="43.94455" lon="5.3848">
        <ele>385.15</ele>
        <time>2014-04-18T13:53:11Z</time>
      </trkpt>
      <trkpt lat="43.94443" lon="5.38468">
        <ele>384.66</ele>
        <time>2014-04-18T13:53:23Z</time>
      </trkpt>
      <trkpt lat="43.94435" lon="5.38464">
        <ele>384.66</ele>
        <time>2014-04-18T13:53:32Z</time>
      </trkpt>
      <trkpt lat="43.94428" lon="5.38457">
        <ele>384.18</ele>
        <time>2014-04-18T13:53:41Z</time>
      </trkpt>
      <trkpt lat="43.94425" lon="5.38453">
        <ele>384.66</ele>
        <time>2014-04-18T13:53:45Z</time>
      </trkpt>
      <trkpt lat="43.94422" lon="5.38441">
        <ele>384.66</ele>
        <time>2014-04-18T13:53:53Z</time>
      </trkpt>
      <trkpt lat="43.94415" lon="5.3843">
        <ele>384.18</ele>
        <time>2014-04-18T13:54:03Z</time>
      </trkpt>
      <trkpt lat="43.94409" lon="5.38424">
        <ele>383.7</ele>
        <time>2014-04-18T13:54:10Z</time>
      </trkpt>
      <trkpt lat="43.94408" lon="5.3842">
        <ele>383.22</ele>
        <time>2014-04-18T13:54:12Z</time>
      </trkpt>
      <trkpt lat="43.94397" lon="5.38408">
        <ele>382.74</ele>
        <time>2014-04-18T13:54:22Z</time>
      </trkpt>
      <trkpt lat="43.94391" lon="5.38399">
        <ele>382.26</ele>
        <time>2014-04-18T13:54:30Z</time>
      </trkpt>
      <trkpt lat="43.94377" lon="5.38392">
        <ele>381.3</ele>
        <time>2014-04-18T13:54:41Z</time>
      </trkpt>
      <trkpt lat="43.94369" lon="5.38382">
        <ele>380.82</ele>
        <time>2014-04-18T13:54:51Z</time>
      </trkpt>
      <trkpt lat="43.94366" lon="5.38376">
        <ele>380.34</ele>
        <time>2014-04-18T13:54:55Z</time>
      </trkpt>
      <trkpt lat="43.94356" lon="5.38365">
        <ele>379.86</ele>
        <time>2014-04-18T13:55:06Z</time>
      </trkpt>
      <trkpt lat="43.94349" lon="5.38351">
        <ele>378.9</ele>
        <time>2014-04-18T13:55:18Z</time>
      </trkpt>
      <trkpt lat="43.94347" lon="5.38346">
        <ele>378.42</ele>
        <time>2014-04-18T13:55:22Z</time>
      </trkpt>
      <trkpt lat="43.94338" lon="5.38334">
        <ele>378.42</ele>
        <time>2014-04-18T13:55:32Z</time>
      </trkpt>
      <trkpt lat="43.94335" lon="5.38326">
        <ele>378.42</ele>
        <time>2014-04-18T13:55:39Z</time>
      </trkpt>
      <trkpt lat="43.94328" lon="5.38323">
        <ele>378.9</ele>
        <time>2014-04-18T13:55:49Z</time>
      </trkpt>
      <trkpt lat="43.9433" lon="5.38319">
        <ele>379.86</ele>
        <time>2014-04-18T13:56:00Z</time>
      </trkpt>
      <trkpt lat="43.94326" lon="5.38309">
        <ele>379.86</ele>
        <time>2014-04-18T13:56:11Z</time>
      </trkpt>
      <trkpt lat="43.94318" lon="5.38289">
        <ele>380.82</ele>
        <time>2014-04-18T13:56:21Z</time>
      </trkpt>
      <trkpt lat="43.94311" lon="5.38268">
        <ele>381.3</ele>
        <time>2014-04-18T13:56:33Z</time>
      </trkpt>
      <trkpt lat="43.94309" lon="5.38266">
        <ele>380.82</ele>
        <time>2014-04-18T13:56:34Z</time>
      </trkpt>
      <trkpt lat="43.94307" lon="5.3826">
        <ele>381.3</ele>
        <time>2014-04-18T13:56:39Z</time>
      </trkpt>
      <trkpt lat="43.94301" lon="5.38245">
        <ele>381.3</ele>
        <time>2014-04-18T13:56:48Z</time>
      </trkpt>
      <trkpt lat="43.94291" lon="5.38237">
        <ele>380.82</ele>
        <time>2014-04-18T13:56:59Z</time>
      </trkpt>
      <trkpt lat="43.9429" lon="5.38236">
        <ele>380.82</ele>
        <time>2014-04-18T13:57:00Z</time>
      </trkpt>
      <trkpt lat="43.94282" lon="5.38224">
        <ele>380.82</ele>
        <time>2014-04-18T13:57:09Z</time>
      </trkpt>
      <trkpt lat="43.94276" lon="5.38215">
        <ele>380.34</ele>
        <time>2014-04-18T13:57:16Z</time>
      </trkpt>
      <trkpt lat="43.94264" lon="5.38208">
        <ele>378.42</ele>
        <time>2014-04-18T13:57:28Z</time>
      </trkpt>
      <trkpt lat="43.94259" lon="5.38204">
        <ele>377.45</ele>
        <time>2014-04-18T13:57:34Z</time>
      </trkpt>
      <trkpt lat="43.94255" lon="5.38199">
        <ele>377.45</ele>
        <time>2014-04-18T13:57:39Z</time>
      </trkpt>
      <trkpt lat="43.94247" lon="5.38197">
        <ele>376.01</ele>
        <time>2014-04-18T13:57:48Z</time>
      </trkpt>
      <trkpt lat="43.94245" lon="5.38198">
        <ele>375.53</ele>
        <time>2014-04-18T13:57:52Z</time>
      </trkpt>
      <trkpt lat="43.94243" lon="5.38198">
        <ele>375.53</ele>
        <time>2014-04-18T13:57:54Z</time>
      </trkpt>
      <trkpt lat="43.94229" lon="5.38197">
        <ele>374.09</ele>
        <time>2014-04-18T13:58:05Z</time>
      </trkpt>
      <trkpt lat="43.9422" lon="5.38201">
        <ele>373.13</ele>
        <time>2014-04-18T13:58:13Z</time>
      </trkpt>
      <trkpt lat="43.94207" lon="5.38203">
        <ele>372.17</ele>
        <time>2014-04-18T13:58:25Z</time>
      </trkpt>
      <trkpt lat="43.94204" lon="5.38203">
        <ele>372.17</ele>
        <time>2014-04-18T13:58:34Z</time>
      </trkpt>
      <trkpt lat="43.94198" lon="5.38202">
        <ele>371.21</ele>
        <time>2014-04-18T13:58:39Z</time>
      </trkpt>
      <trkpt lat="43.94181" lon="5.38206">
        <ele>369.28</ele>
        <time>2014-04-18T13:58:52Z</time>
      </trkpt>
      <trkpt lat="43.94169" lon="5.3821">
        <ele>367.36</ele>
        <time>2014-04-18T13:59:03Z</time>
      </trkpt>
      <trkpt lat="43.94166" lon="5.38211">
        <ele>367.36</ele>
        <time>2014-04-18T13:59:07Z</time>
      </trkpt>
      <trkpt lat="43.94162" lon="5.38214">
        <ele>365.92</ele>
        <time>2014-04-18T13:59:11Z</time>
      </trkpt>
      <trkpt lat="43.9415" lon="5.38224">
        <ele>365.44</ele>
        <time>2014-04-18T13:59:24Z</time>
      </trkpt>
      <trkpt lat="43.94145" lon="5.38232">
        <ele>365.44</ele>
        <time>2014-04-18T13:59:31Z</time>
      </trkpt>
      <trkpt lat="43.9414" lon="5.3824">
        <ele>364.48</ele>
        <time>2014-04-18T13:59:43Z</time>
      </trkpt>
    </trkseg>
  </trk>
</gpx>